GFSCGP_con_mucape_000.txt.gz
CAPE
0 0 0 0 0 1 28 14 2 22 92 123 40 37 182 65 193 473 619 587 552 468 1081 1139 1517 1947 1895 2011 3401 3121 3957 4009 3961 3713 3707 3955 3526 4027 3123 3193 2956 3027 3014 2094
0 0 0 0 0 0 0 4 9 18 50 88 104 88 140 84 85 294 556 604 475 591 616 809 1018 845 1286 2653 3332 3766 4332 4473 4245 4428 4388 3654 3567 3373 3137 2799 2881 2316 2122 2474
0 0 0 0 0 0 0 0 0 17 44 8 95 159 40 111 133 146 212 445 470 482 538 989 1159 1254 1511 2157 2998 3580 4453 4129 4328 4280 4280 3982 3410 3181 2528 2526 1666 1894 1130 1281
0 0 0 0 0 0 0 0 0 1 20 20 2 4 111 65 85 162 124 170 260 310 512 698 968 1409 1547 2219 2742 3640 4280 4664 4479 3519 2768 2715 1421 814 2055 1718 1537 1066 1077 1185
0 0 0 0 0 0 0 0 0 0 0 0 3 7 121 205 61 67 107 114 148 205 269 388 602 1052 1264 1971 2276 3392 4466 4113 3282 2517 1628 1325 1400 736 1039 1056 1004 1310 1365 1484
0 0 0 0 0 0 0 0 0 0 0 7 1 39 122 176 653 20 40 127 194 201 308 331 498 873 1113 1672 1994 3219 3571 3371 2832 2142 1692 926 381 749 720 1255 955 812 912 965
0 0 0 0 0 0 0 0 4 3 9 0 6 15 100 93 92 224 164 158 185 337 518 622 447 736 1242 1684 2149 2995 2979 2973 2541 1835 1442 478 491 571 837 1250 1153 973 654 993
0 0 0 0 0 0 0 0 0 22 14 16 9 17 97 34 118 483 398 611 241 224 760 866 1036 974 1602 1901 2605 2365 2723 2645 2337 2001 1758 1226 836 1167 1361 1709 1053 670 736 867
0 0 0 0 0 0 0 0 0 1 0 0 4 7 1 0 0 0 29 0 338 256 331 836 1227 1595 1854 1966 2401 2602 2770 2758 2362 1821 2651 2167 1942 1379 1085 868 894 835 1285 548
0 0 0 0 0 0 0 0 0 0 18 26 10 1 11 114 5 1 0 0 30 555 599 544 906 1721 2284 2142 2359 2340 2638 2750 1979 1980 1916 1819 1808 1634 1549 1209 1109 1201 1429 1308
0 10 4 0 0 0 0 0 0 0 0 13 11 17 60 122 25 1 0 0 0 49 702 1006 1143 1975 2598 2024 2062 1666 1995 2231 1715 1705 1934 1437 744 881 1397 1149 1149 1209 1571 1565
0 1 17 0 0 0 0 1 8 4 45 22 34 7 8 0 0 0 0 0 0 75 443 1436 1346 2185 2564 2143 1758 1252 1065 1363 1297 1403 1830 1563 1326 957 902 1139 1025 1078 1266 1477
0 14 10 5 8 1 0 7 0 1 6 132 67 44 79 0 0 7 3 10 487 786 1893 2006 1601 1794 2459 2298 1887 1064 775 736 833 1238 918 1385 1448 1358 1446 1356 1332 1306 1303 1333
41 2 18 1 18 10 2 0 0 5 108 67 57 146 24 30 66 187 32 116 202 1123 1283 2336 1974 1922 2236 2301 1778 1308 648 451 597 631 898 1492 1605 1585 1392 1691 1835 1451 1714 1788
15 173 8 1 0 4 13 3 0 0 14 37 98 117 132 78 67 2 0 12 66 543 1361 2447 2094 2216 2396 2303 1699 1427 784 1131 661 1038 1205 1610 1861 1736 1802 1894 1714 1667 1784 1671
1 127 1 0 5 0 0 0 45 4 0 0 2 133 109 194 144 7 0 0 92 164 311 1384 2283 2105 2660 2360 1765 1126 1007 1239 1451 1008 1288 1769 1842 1724 1696 2034 2206 2072 2126 1968
224 23 133 25 0 0 47 14 13 65 68 25 112 310 321 122 0 0 0 6 132 246 332 489 2109 2009 3000 2241 1734 1206 1321 1373 1519 1719 1590 1674 1816 1852 2096 2058 2089 2068 1969 2010
450 702 243 95 289 220 10 92 55 67 53 16 127 145 212 43 0 0 0 70 42 256 322 612 976 2324 2828 2065 1560 1738 1411 1451 1915 1842 1813 1816 1966 2006 2283 2254 2220 2278 2266 2257
98 610 235 330 116 94 127 179 181 84 200 158 171 176 171 4 3 245 314 17 22 317 895 1219 519 1450 2527 2087 1920 2062 1331 1567 1790 1813 1941 1975 2008 2148 2296 2328 2136 2308 2255 1939
17 192 309 117 225 154 316 242 128 110 30 174 123 174 102 29 5 552 611 179 143 207 585 1255 1416 2012 2710 2427 2253 1963 1526 1857 1703 1723 2018 2176 2239 2470 2504 2312 2140 1785 2088 1627
166 292 148 210 173 31 123 150 62 28 2 246 270 143 61 222 371 649 445 242 213 541 788 1496 2048 2505 3046 2739 2180 1609 1591 2004 1969 1897 2125 2351 2582 2985 3003 2797 2174 1906 1175 934
567 367 183 390 349 297 330 344 208 1113 292 188 290 424 304 125 79 199 303 800 656 870 1033 1641 2622 2943 3012 3028 2733 1894 2172 2594 3456 2930 2684 2998 3211 2101 1793 2567 2244 1942 1998 1740
319 451 771 631 497 403 433 690 400 190 547 65 109 90 62 59 57 87 359 577 1036 1115 1469 1667 2441 3329 3040 2841 3413 3509 3195 2568 2631 2782 3281 3040 2480 2410 2378 2162 1876 2097 1644 1320
603 262 355 115 88 13 35 69 102 109 70 33 2 2 36 110 159 474 573 911 1666 1657 1899 1913 2656 2775 2798 3880 3706 3812 3245 3026 2488 3187 3313 3167 2672 2588 1957 1996 1642 941 1240 834
308 183 59 444 76 99 55 8 22 23 15 6 20 8 53 214 423 884 972 1804 2364 2399 1783 1855 1935 1256 1148 980 1019 702 1450 2322 3280 3182 2608 2696 2258 2130 1585 734 241 391 157 119
114 364 263 144 2 163 115 56 43 1 0 2 55 56 55 170 654 1198 2089 2281 2292 2153 2037 1150 987 799 511 364 1171 1597 1425 2241 2131 2211 1824 1586 1377 444 867 223 91 66 108 68

GFSCGP_con_mucape_003.txt.gz
CAPE
0 0 0 0 0 0 0 0 10 0 4 1 10 314 401 392 446 415 736 823 856 953 1035 982 1021 951 1097 1375 1331 1632 1403 2101 1979 2042 2051 2226 1866 1726 1846 2002 1851 1640 1468 1558
0 0 0 0 0 0 1 17 6 45 3 20 2 103 145 152 257 354 544 521 783 752 1221 1213 1134 935 1199 1276 1866 2026 2180 2366 2454 2440 2333 2332 2129 2188 2033 2295 2084 1305 1009 1263
0 0 0 0 0 0 0 0 44 72 56 50 22 15 39 37 62 226 494 446 537 522 1094 1344 1360 1202 1334 1761 2091 2375 2600 2797 2543 1945 2510 2098 1608 1726 1055 1426 1396 1051 618 313
0 0 0 0 0 0 0 0 0 52 58 34 92 68 20 12 7 75 373 394 354 594 592 620 823 801 1845 1987 2245 2765 2761 2437 2706 2041 2362 1356 690 15 503 505 287 122 253 221
0 0 0 0 0 0 0 0 0 0 21 27 70 28 53 47 2 52 164 351 316 383 328 549 518 704 1189 1894 1993 1988 2466 2522 2259 2010 318 0 0 1 145 166 24 0 0 161
0 0 0 0 0 0 0 0 0 0 0 0 0 9 57 9 52 57 71 96 203 247 379 461 604 850 1309 1576 2118 2652 2666 2182 1866 925 0 0 0 0 0 55 0 22 16 89
0 0 0 0 0 0 0 0 0 0 0 0 0 0 66 47 54 19 5 30 62 113 339 400 533 831 1398 1448 2138 2819 2336 1954 772 75 63 7 4 0 0 0 130 44 0 156
0 0 0 0 0 0 0 0 0 0 0 0 0 0 2 106 93 29 35 26 59 87 89 255 340 549 1145 1395 2071 2454 2357 1923 517 436 156 0 0 0 102 496 107 0 0 32
0 0 0 0 0 0 0 0 0 0 0 5 4 2 30 62 69 33 112 72 75 64 97 68 142 352 1006 1145 2112 2294 2091 1361 772 603 194 97 158 71 206 48 0 3 179 0
0 0 0 0 0 0 0 0 0 0 0 0 3 34 15 13 53 100 121 75 85 34 119 122 166 351 1031 1067 1892 1930 1730 1321 1118 948 590 539 466 229 131 108 29 93 0 109
0 0 0 0 0 0 0 0 0 0 0 0 0 0 97 24 0 0 0 3 57 121 91 364 284 508 1168 1241 1792 1740 1694 1470 1258 1125 706 625 711 301 276 159 80 145 303 412
0 0 0 0 0 0 0 0 0 0 0 4 17 18 0 0 0 0 0 0 0 43 181 341 551 925 1237 1371 1722 1690 1714 1463 916 1164 748 391 42 31 191 89 74 84 44 50
0 0 0 7 0 0 0 0 0 0 0 0 20 3 3 0 0 2 0 5 21 41 132 298 705 1147 1532 1471 1579 1454 1526 1349 1070 708 729 319 199 59 82 174 147 121 90 46
0 0 0 0 1 0 0 0 0 0 0 0 6 38 2 30 44 7 13 2 135 107 1195 592 1333 1614 1811 1581 1682 1710 1674 1292 1063 655 512 334 393 269 275 247 269 324 272 173
0 0 0 0 0 0 1 0 0 0 0 0 5 124 7 15 40 34 6 7 18 466 1111 1109 920 2044 2060 1851 1897 1890 1672 1401 1055 667 473 368 486 455 512 488 495 593 261 483
0 36 0 1 0 15 6 0 0 1 0 0 0 10 17 23 33 14 0 1 0 29 89 1522 1407 1374 2120 2080 1991 1869 1561 1259 862 541 337 729 751 644 576 469 498 489 351 473
36 40 2 0 0 0 0 0 2 1 8 4 6 26 114 75 56 0 0 0 0 0 64 91 1345 1530 1634 1931 1914 1730 1372 1091 724 358 475 596 612 571 590 637 744 1001 866 846
247 230 10 5 68 3 11 14 30 102 114 87 75 84 78 24 16 2 0 0 0 0 53 69 94 1720 1770 1706 1706 1515 1075 664 571 409 673 714 747 768 698 825 947 974 931 555
271 231 282 46 11 15 79 50 198 210 152 93 170 147 8 1 114 156 67 0 0 159 289 374 387 2183 1995 1758 1592 1401 1083 866 646 506 555 894 757 694 844 1182 1254 1211 1053 783
158 230 160 138 99 113 13 212 214 132 237 172 154 123 252 33 213 171 29 146 167 216 431 618 743 2272 2011 1900 1744 1659 1177 937 889 741 1021 1116 1063 1090 1296 1481 1534 1253 1046 861
130 142 80 80 75 9 188 206 63 49 9 155 49 87 129 23 7 132 106 128 141 173 450 788 1030 2320 2049 1804 1692 1541 1276 1036 1032 1163 1322 1392 1384 1465 1593 1680 1571 1208 971 664
215 321 91 91 86 49 217 559 698 508 276 264 280 216 55 40 12 0 0 1 156 163 558 686 1874 2625 2397 1856 1706 1326 1164 1062 1025 1329 1387 1673 1697 1771 1970 1668 1138 822 658 421
246 363 691 721 389 157 26 277 282 265 189 150 158 70 35 44 19 18 72 0 17 549 673 1276 2344 2730 2629 2230 1801 1325 1089 1187 1087 1334 1787 2065 2191 1974 1357 1022 696 629 401 296
300 78 461 315 284 108 38 123 232 194 149 118 131 158 76 98 209 228 303 362 453 1006 1057 2200 2276 2289 2145 1966 1515 1218 906 498 213 35 391 460 1162 1112 910 752 520 451 286 58
115 310 153 541 416 115 35 19 30 42 2 22 19 51 50 89 221 815 1073 1466 1285 1445 1672 2037 2177 2081 1963 1575 1234 832 175 10 41 1 997 634 1156 943 735 538 448 315 146 10
187 70 150 30 92 152 4 31 18 1 0 3 0 0 17 62 771 1400 1703 1465 1191 1160 1460 1685 1695 1756 1528 1329 702 219 62 89 477 876 482 942 778 536 256 280 112 78 41 64

GFSCGP_con_mucape_006.txt.gz
CAPE
0 0 0 0 0 0 0 0 0 0 0 133 118 327 344 354 343 423 523 534 535 547 548 533 730 503 526 597 715 696 829 1473 1957 1794 1823 1991 2117 1829 1454 1299 1347 1490 1179 1173
0 0 0 0 0 0 0 0 0 7 15 7 238 272 257 372 483 564 703 647 694 806 729 803 822 655 694 642 700 988 977 1695 1762 1721 1770 1702 1630 1414 1430 1599 1760 1310 878 1002
0 0 0 0 0 0 0 0 4 16 31 32 167 230 295 356 464 602 655 750 886 951 890 926 830 699 895 849 1088 1181 1399 1724 1646 1761 1790 1957 1906 1545 1417 1479 1534 1003 711 305
0 0 0 0 0 0 0 0 3 28 42 19 81 74 232 269 277 309 331 697 782 731 924 861 890 699 841 1129 1483 1509 1832 1942 2094 2089 1989 1855 744 501 293 1102 1187 148 0 0
0 0 0 0 0 0 0 0 0 58 62 52 29 32 55 77 150 178 224 474 526 659 932 978 918 688 1009 1298 1764 1719 1897 2188 2243 1902 1694 1922 489 23 284 468 0 0 0 0
0 0 0 0 0 0 0 0 0 61 67 52 37 33 30 36 81 56 131 322 498 464 890 1040 1074 866 1265 1398 1722 1993 2114 2005 2151 2014 1639 699 0 0 7 0 0 0 0 73
0 0 0 0 0 0 0 0 0 0 6 0 8 54 3 13 47 57 19 201 446 354 508 854 951 1015 1428 1570 1586 1941 2100 1661 1752 1827 881 0 0 0 0 0 0 0 38 30
0 0 0 0 0 0 0 0 0 0 0 0 0 0 0 3 25 47 22 127 301 357 417 563 472 323 1043 1461 1564 1739 2033 1840 2139 1851 1349 0 0 0 0 0 0 0 0 0
0 0 0 0 0 0 0 0 0 0 0 0 0 0 0 8 16 28 18 41 184 355 335 422 324 403 870 1194 1519 1786 1708 1962 1717 1164 0 0 0 1 83 145 144 0 0 0
0 0 0 0 0 0 0 0 0 0 0 0 0 0 2 43 40 56 33 19 31 139 262 319 318 439 979 1071 1572 1848 1562 1816 1697 1163 55 0 3 19 70 46 7 4 4 0
0 0 0 0 0 0 0 0 0 0 0 0 0 0 0 61 61 69 73 52 35 55 111 263 320 393 909 1078 1486 1833 1724 1878 1906 1348 232 184 206 140 31 32 6 0 0 34
0 0 0 0 0 0 0 0 0 0 0 0 0 0 0 33 38 47 82 75 73 70 83 153 214 332 622 980 1492 1730 1760 1883 1935 1089 452 372 386 369 178 113 89 9 48 43
0 0 0 0 0 0 0 0 0 0 0 0 0 0 0 0 1 44 56 71 54 23 28 77 185 237 411 826 1375 1590 1695 1862 1855 1186 788 524 481 477 166 127 87 28 35 12
0 0 0 0 0 0 0 0 0 0 0 0 0 0 0 0 0 0 0 0 0 7 26 117 248 270 431 810 1337 1524 1617 1769 1661 1130 969 816 447 138 54 110 67 54 52 32
0 0 0 0 0 0 0 0 0 0 0 0 0 0 0 0 0 0 0 4 0 36 78 90 357 458 625 832 1253 1473 1538 1640 1477 1151 1139 977 487 289 40 70 81 71 111 134
0 0 0 10 0 0 2 0 2 0 0 3 0 0 0 5 2 14 16 23 1 45 176 477 256 741 919 1072 1300 1412 1497 1580 1383 1261 1278 916 383 295 102 134 179 212 217 364
0 0 1 21 3 0 21 0 1 5 0 1 0 0 19 29 56 27 14 2 3 13 0 159 991 1090 1313 1418 1390 1381 1421 1535 1549 1555 1200 640 314 211 222 268 364 383 370 391
24 1 5 17 15 22 1 0 20 32 29 20 0 0 0 45 102 74 21 9 5 0 1 0 42 982 1502 1819 1653 1505 1542 1614 1738 1430 967 442 357 293 332 388 433 431 445 538
129 2 13 10 13 6 26 47 46 42 29 109 58 58 78 65 77 71 32 20 0 0 0 10 125 268 992 1722 1945 1869 1793 1866 1804 1317 701 536 500 445 441 471 487 546 639 785
136 137 66 21 13 4 104 149 131 137 98 118 148 96 72 86 60 63 33 27 5 128 164 251 382 1117 1530 1637 1895 1981 1925 2010 1749 1371 943 532 527 504 454 486 567 699 830 893
154 168 98 110 35 18 197 210 154 157 119 77 95 105 120 151 174 128 163 195 219 243 330 433 943 1592 1711 1652 1725 1840 1901 2000 1577 1187 631 313 608 567 525 641 915 1025 962 770
157 210 119 109 137 96 148 238 346 190 171 100 85 62 75 64 170 138 110 31 13 122 243 515 829 1589 1662 1751 1673 1767 1772 1513 1158 668 315 279 309 485 836 1109 1306 845 725 620
130 6 90 166 86 88 184 231 124 167 203 167 59 73 77 34 55 56 20 15 2 0 15 284 468 1545 1729 1814 1808 1849 1729 1373 972 651 398 348 163 38 41 698 1045 808 605 496
45 78 84 7 33 84 96 190 223 211 239 190 86 43 89 56 44 238 401 634 989 1008 1130 1273 1519 1847 1912 1821 1852 1766 1424 1161 891 703 291 30 18 0 105 580 696 508 432 305
138 207 184 195 158 9 13 95 113 105 229 212 130 56 46 16 1193 1453 1149 1149 1071 1192 1437 1670 1909 2029 1963 1834 1593 1361 994 777 631 216 70 0 0 22 308 349 526 456 397 117
79 338 201 196 88 0 20 79 155 89 152 76 43 3 0 0 221 1452 1244 1241 1203 1170 1589 1917 2042 2069 1968 1431 1008 646 409 245 134 107 77 16 14 192 357 518 349 281 182 76

GFSCGP_con_mucape_009.txt.gz
CAPE
0 0 0 0 0 0 0 0 26 30 29 86 128 210 205 313 229 190 220 226 214 239 334 329 545 620 652 463 1109 1174 1251 1333 1321 1511 1729 1765 1852 1959 1867 1589 1375 1404 1387 1138
0 0 0 0 0 0 0 0 1 6 4 58 141 182 122 178 186 158 180 232 262 279 317 359 391 569 553 463 721 1033 1086 1180 1536 1649 1679 1653 1673 1723 1472 1218 1409 1490 1140 882
0 0 0 0 0 0 0 0 0 0 6 83 132 177 178 132 144 148 193 275 290 292 350 467 426 501 591 355 379 512 716 882 1359 1778 1659 1614 1646 1670 1506 1594 1654 1201 788 632
0 0 0 0 0 0 0 0 0 5 6 7 88 48 195 219 234 272 322 459 517 379 414 582 528 654 663 345 412 558 634 1008 1398 1651 1532 1564 1739 1275 696 791 1468 1041 508 4
0 0 0 0 0 0 0 0 0 1 2 20 60 17 103 180 219 313 392 488 584 534 499 709 589 724 679 459 676 728 950 1237 1567 1599 1731 1788 1676 718 235 545 1114 484 0 0
0 0 0 0 0 0 0 0 0 0 0 7 24 16 0 103 174 213 341 461 508 650 644 770 689 744 717 654 931 1162 1184 1399 1617 1782 2000 1691 1621 894 99 654 453 0 0 0
0 0 0 0 0 0 0 0 0 0 0 1 5 21 0 27 85 109 137 278 369 556 749 790 774 743 776 766 1080 1337 1389 1509 1751 1974 1857 1501 1672 162 128 189 0 0 0 21
0 0 0 0 0 0 0 0 0 0 0 0 0 1 0 17 32 55 70 92 217 345 637 740 774 830 841 922 1141 1429 1527 1503 1641 1944 1796 1560 146 0 0 0 0 0 0 13
0 0 0 0 0 0 0 0 0 0 0 0 0 0 0 4 0 15 35 46 97 202 372 757 857 879 902 972 1176 1399 1623 1570 1667 1634 1622 1207 78 0 0 0 1 0 0 0
0 0 0 0 0 0 0 0 0 0 0 0 0 0 0 0 0 2 23 37 39 135 277 566 835 871 950 1105 1246 1335 1567 1626 1602 1582 1554 1286 750 0 0 2 14 78 17 0
0 0 0 0 0 0 0 0 0 0 0 0 0 0 0 0 0 0 10 18 21 159 223 372 580 755 823 1049 1282 1376 1503 1628 1574 1593 1738 1265 785 10 14 61 90 60 11 0
0 0 0 0 0 0 0 0 0 0 0 0 0 0 0 0 0 3 14 44 31 69 192 277 410 554 729 747 997 1334 1512 1458 1399 1586 1746 1323 283 173 173 63 26 2 0 0
0 0 0 0 0 0 0 0 0 0 0 0 0 0 0 0 0 24 12 26 27 47 72 196 349 470 554 648 853 1166 1586 1456 1379 1447 1708 1430 617 166 192 202 12 8 0 2
0 0 0 0 0 0 0 0 0 0 0 0 0 0 0 0 0 13 43 58 51 45 40 36 203 388 486 538 829 1120 1604 1541 1451 1451 1683 1666 1225 295 281 322 169 101 50 52
0 0 0 0 0 0 0 0 0 0 0 0 0 0 0 0 4 10 26 41 32 30 83 64 43 164 273 409 673 1098 1498 1597 1535 1442 1640 1835 1456 746 358 381 215 123 106 78
16 0 0 0 0 0 0 0 0 0 0 0 0 0 0 0 0 0 0 8 0 0 0 1 12 83 225 296 573 964 1395 1597 1544 1440 1567 1715 876 561 450 331 64 70 135 143
43 12 0 0 0 0 3 0 0 0 0 0 0 0 0 0 0 0 0 0 0 0 5 12 31 166 295 341 599 916 1302 1453 1504 1419 1478 1480 1192 460 388 112 54 98 155 197
58 21 0 0 0 14 1 0 0 4 12 3 0 0 0 0 0 0 0 0 0 0 43 301 344 335 503 669 790 901 1252 1407 1456 1391 1406 1488 758 593 426 160 252 166 235 271
103 31 13 0 0 0 28 33 38 33 30 54 21 0 19 0 1 1 2 13 54 68 46 28 78 384 666 1029 1201 1189 1198 1314 1374 1373 1359 1295 792 731 307 303 323 308 358 455
131 88 26 14 0 5 31 74 51 25 38 12 26 2 3 16 42 80 83 81 78 85 69 19 4 60 389 493 1386 1542 1497 1496 1516 1522 1434 1492 1190 815 321 392 362 448 480 534
146 164 70 23 40 170 84 87 82 86 31 30 14 12 60 65 82 135 178 169 137 109 96 82 94 382 667 878 1277 1549 1551 1550 1611 1663 1520 1541 1124 552 509 504 490 424 430 522
49 214 154 164 112 131 192 166 125 93 108 46 67 97 129 110 152 189 159 174 148 131 86 63 164 325 899 1132 1272 1279 1304 1435 1607 1584 1407 1334 880 548 489 528 467 19 24 216
34 104 138 154 127 109 208 149 141 103 89 97 128 132 137 235 238 226 294 408 430 437 394 453 449 354 790 1162 1289 1297 1260 1422 1504 1452 1306 1017 556 426 314 274 52 5 5 167
9 42 61 93 158 185 190 136 114 134 106 130 134 165 167 176 347 157 53 464 670 471 532 732 854 856 963 1148 1344 1301 1436 1441 1121 997 887 648 283 43 57 7 0 23 57 318
21 135 118 110 102 101 105 122 93 100 114 168 164 125 114 73 94 113 266 455 552 590 577 903 986 1108 1166 1195 1273 1175 978 718 564 445 418 167 40 8 1 0 0 146 279 260
155 319 206 88 122 82 7 47 12 3 7 20 0 1 27 37 7 2 275 948 930 907 942 1158 1294 1425 1558 1378 1114 679 318 167 279 147 35 5 11 0 0 1 72 248 316 216

GFSCGP_con_mucape_012.txt.gz
CAPE
0 0 0 0 0 0 0 18 29 33 57 77 122 121 255 233 235 218 255 329 484 608 641 749 769 852 810 826 943 1054 1124 1330 1456 1273 1450 1428 1547 1601 1669 1609 1527 1433 1152 1027
0 0 0 0 0 0 0 13 12 25 14 80 84 131 165 223 193 166 163 193 225 335 416 484 545 679 568 719 907 965 1242 1372 1302 1328 1255 1479 1577 1626 1720 1558 1308 1144 1288 1171
0 0 0 0 0 0 0 0 0 1 11 40 84 139 89 196 245 191 131 92 91 114 164 169 205 365 533 666 647 927 1185 1099 1159 1145 1245 1490 1455 1232 1209 1114 1295 1416 1061 715
0 0 0 0 0 0 0 0 2 0 17 3 83 0 105 111 186 190 167 122 100 134 139 150 191 250 455 501 574 443 737 887 976 1103 1368 1544 1458 1301 1169 1124 1281 1295 855 525
0 0 0 0 0 0 0 0 2 0 0 9 60 6 0 108 84 128 146 138 128 118 153 197 223 278 275 415 551 372 465 601 713 924 1301 1611 1437 1243 863 340 736 1138 753 41
0 0 0 0 0 0 0 0 1 0 0 0 0 0 0 39 143 140 155 162 167 171 277 340 289 399 367 421 558 312 326 436 675 966 1253 1488 1475 1278 906 326 556 1060 564 0
0 0 0 0 0 0 0 0 0 0 0 0 0 0 0 2 88 123 144 180 216 241 322 501 481 454 582 471 603 396 416 543 835 1093 1392 1481 1662 1353 1002 231 588 820 8 0
0 0 0 0 0 0 0 0 0 0 0 0 0 0 0 13 18 76 98 121 159 225 355 467 625 559 702 599 660 525 635 687 948 1198 1427 1564 1809 1377 1182 37 364 140 0 0
0 0 0 0 0 0 0 0 0 0 0 0 0 0 0 0 2 16 17 87 119 128 296 449 537 690 734 752 737 641 849 885 988 1197 1440 1581 1673 1363 797 14 97 0 0 0
0 0 0 0 0 0 0 0 0 3 0 0 0 0 0 0 0 0 1 16 69 90 207 429 538 605 837 858 781 711 937 1044 1041 1143 1397 1500 1532 1326 3 0 0 0 0 0
0 0 0 0 0 0 0 0 0 0 0 0 0 0 0 0 0 0 0 0 2 47 100 308 621 718 877 947 830 874 992 1191 1224 1144 1277 1372 1523 862 26 0 0 0 0 0
0 0 0 0 0 0 0 0 0 0 0 0 0 0 0 0 0 0 0 2 0 10 67 151 575 748 845 867 869 917 1021 1233 1320 1252 1316 1264 1393 987 345 0 0 40 24 17
0 0 0 0 0 0 0 0 0 0 0 0 0 0 0 0 0 0 1 7 0 1 43 118 338 644 867 904 946 1070 1150 1215 1362 1315 1287 1422 1256 1122 610 29 75 65 61 0
0 0 0 0 0 0 0 0 0 0 0 0 0 0 0 0 0 0 0 4 8 39 37 105 225 379 572 759 853 1055 1257 1284 1291 1286 1330 1430 1333 1292 932 124 50 85 24 0
3 0 0 0 0 0 0 0 0 0 0 0 0 0 0 0 0 0 0 16 20 19 41 47 184 293 406 515 625 682 947 1239 1329 1287 1222 1327 1385 1386 1205 277 4 49 29 28
80 0 0 0 0 0 0 0 0 0 0 0 0 0 0 0 0 0 0 0 10 33 80 106 136 164 280 395 499 549 793 1085 1359 1295 1238 1179 1182 1328 1120 306 10 113 199 148
85 21 0 0 0 0 0 0 0 0 0 0 0 0 0 0 0 0 0 1 67 100 142 142 157 139 120 159 266 408 703 1020 1335 1342 1284 1226 1230 1131 1021 594 86 158 340 25
39 46 42 0 0 0 0 0 0 0 0 0 0 0 0 0 0 0 0 0 0 62 100 141 83 30 27 127 205 303 617 1036 1281 1352 1345 1341 1332 1292 985 680 131 35 131 8
33 33 45 2 0 0 0 0 0 8 4 10 3 0 0 0 0 0 0 0 0 5 24 66 110 83 67 166 327 436 719 1040 1207 1269 1294 1350 1395 1339 1063 577 250 110 257 56
40 55 30 36 41 1 0 1 1 13 37 21 17 11 0 0 0 0 0 0 8 40 79 108 112 52 35 155 598 759 842 1059 1127 1190 1222 1296 1434 1455 1216 692 390 210 281 187
5 36 25 23 86 75 53 44 31 61 10 13 3 10 12 13 7 4 4 15 49 69 92 109 72 26 199 422 565 899 1002 1110 1117 1159 1274 1412 1252 1231 1128 646 394 318 245 382
11 15 15 138 155 205 159 144 111 68 21 21 31 29 21 32 65 89 110 151 116 115 154 212 139 185 308 501 728 865 1020 981 1004 1127 1316 1261 1034 838 742 469 407 306 263 146
21 44 62 83 103 168 235 192 170 82 106 82 45 65 93 71 56 59 125 136 131 162 209 346 389 434 495 502 699 870 856 930 1062 1172 1144 1055 850 685 515 303 276 204 96 22
117 99 58 59 80 222 240 191 185 150 109 69 73 76 95 112 124 125 154 182 201 94 125 204 252 281 405 612 737 859 1060 1150 1015 826 760 692 612 346 79 44 20 10 3 13
170 153 85 44 31 86 140 131 98 100 120 125 101 128 125 96 83 99 72 329 588 560 512 464 490 622 818 904 959 1075 1128 885 559 470 441 369 284 99 68 20 11 0 0 0
187 288 65 9 31 77 27 44 56 68 71 53 31 32 36 52 22 7 3 187 531 492 570 593 717 788 927 989 1041 922 789 592 303 120 283 344 181 5 0 0 0 0 11 110

GFSCGP_con_mucape_015.txt.gz
CAPE
0 0 0 0 0 0 3 32 88 109 67 100 123 117 375 484 474 565 815 993 915 951 1044 1208 1354 1397 1446 1568 1692 1942 2136 2369 2343 2225 2231 2191 2124 2505 2528 3023 2155 2236 2200 2065
0 0 0 0 0 0 3 26 61 37 77 90 73 112 212 469 467 449 567 798 909 949 1061 1194 1218 1112 1228 1464 1556 1927 2158 2470 2450 2243 2219 2141 2320 2340 2284 2316 2531 2368 2187 2212
0 0 0 0 0 0 0 26 36 36 35 84 125 53 123 363 453 386 373 437 517 625 771 803 895 994 1072 1207 1479 1855 2352 2496 2355 2319 2246 2213 2093 1995 2047 2142 2051 2139 2190 2098
0 0 0 0 0 0 0 0 49 57 61 27 65 33 99 263 507 477 433 378 368 404 489 501 559 825 1042 1050 1237 1930 2090 2373 2201 2315 2123 2226 2031 2048 1997 1715 1850 2166 1969 1755
0 0 0 0 0 0 0 0 1 42 86 27 67 11 21 169 328 526 526 476 401 343 374 418 437 617 875 988 1010 1290 1956 2266 2125 2231 2494 2233 2289 2205 1978 1343 1741 2161 1491 1272
0 0 0 0 0 0 0 0 0 3 27 9 4 6 0 129 283 331 337 426 430 364 366 391 427 460 687 861 956 1079 1775 2272 1972 1986 2208 2383 2460 2394 1770 1226 917 1431 980 646
0 0 0 0 0 0 0 0 0 0 2 0 0 4 28 31 143 186 224 287 333 347 325 376 498 533 844 978 1106 1289 1901 2078 1724 1808 2119 2245 2455 2598 2089 1713 1042 980 809 788
0 0 0 0 0 0 0 0 0 0 0 0 0 0 0 65 64 76 182 198 282 313 480 472 865 826 870 856 1482 1580 1893 2043 1843 1745 2342 2624 2586 2301 1931 1566 945 839 779 375
0 0 0 0 0 0 0 0 0 0 0 0 0 0 0 1 2 3 52 129 258 414 476 586 646 669 1003 1233 1504 1687 1960 2119 2131 1937 2549 2539 2658 2339 1886 1279 876 784 596 218
0 0 0 0 0 0 0 0 0 0 0 0 0 0 0 0 26 60 30 83 204 438 564 650 987 1080 1203 1239 1576 1769 1965 2128 2101 1735 2295 2292 2138 1525 1772 1102 717 547 449 299
0 0 0 0 0 0 0 0 0 0 0 0 0 0 0 0 23 46 67 40 117 376 478 840 1182 1147 1346 1272 1248 1506 1758 2155 2181 2148 2529 2604 1803 1413 1361 856 472 105 427 354
0 0 0 0 0 0 0 0 0 0 0 0 0 0 0 0 0 1 17 14 13 242 398 794 989 1127 1133 1399 1201 1352 1712 1746 2154 2247 2482 2167 1353 1130 1063 1100 126 256 172 253
0 0 0 0 0 0 0 0 0 0 0 0 0 0 0 0 0 0 0 8 34 198 372 716 921 1421 1637 1614 1876 1781 1740 1674 1835 2124 1876 1667 1088 953 1066 1135 117 174 201 130
0 0 0 0 0 0 0 0 0 0 0 0 0 0 0 0 0 14 11 41 77 96 315 723 939 1362 1812 2066 2137 2074 1843 1713 1776 1868 2014 1954 1376 839 1109 1079 381 0 27 23
8 0 0 0 0 0 0 0 0 0 0 0 0 0 0 0 24 121 260 186 138 135 292 819 854 1438 1873 2011 2267 2070 1847 2277 2222 2281 2131 1729 1138 743 918 1217 665 13 5 0
35 19 0 0 0 0 0 0 0 0 0 0 0 0 0 0 0 29 131 138 205 221 283 636 941 1039 1354 1593 1551 1544 1826 2155 2336 2491 2137 1723 1174 1117 964 1150 883 366 155 125
121 53 44 0 1 0 0 0 0 0 0 0 0 0 0 0 0 48 319 172 351 513 437 461 832 1341 1283 1162 1356 1360 1523 1742 2209 2265 2058 1653 1140 1097 1161 1136 999 569 372 163
109 35 35 17 25 9 0 0 0 0 0 0 0 0 0 0 14 54 115 206 316 498 596 514 337 460 763 767 898 1236 1413 1817 2101 2246 2044 1586 1018 1093 1083 1121 1161 853 398 262
85 37 47 30 65 9 0 0 0 0 0 0 0 0 0 0 0 28 0 0 107 106 213 313 309 338 525 581 800 1167 1478 1780 2043 2203 2051 1448 994 1144 1183 1223 1197 1055 588 244
27 103 36 63 26 3 54 24 15 10 0 0 0 1 0 0 4 111 0 0 23 107 348 524 390 541 788 971 1083 1461 1718 1874 2027 2097 1975 1483 1192 1321 1348 1423 1598 895 587 375
231 640 334 386 121 92 4 44 64 64 16 0 2 34 0 22 30 8 25 122 232 270 300 485 683 943 1193 1210 1576 1854 1834 1970 2036 1854 1765 1322 1378 1321 1424 1361 1137 756 612 387
442 381 742 491 219 294 0 97 193 108 0 0 19 25 100 182 297 312 386 479 618 696 677 786 1133 1072 1120 1388 1795 1724 1634 1223 1285 1265 1217 1285 1325 1129 1026 972 973 806 688 732
396 435 493 452 244 36 22 157 125 117 130 126 141 98 210 118 150 252 361 403 499 635 675 791 833 978 922 1087 1484 1260 608 877 1036 1012 1151 1102 927 993 910 932 883 807 695 302
485 335 239 385 150 12 116 110 108 97 96 88 65 62 67 139 373 694 755 750 715 585 535 542 435 323 420 579 807 620 615 779 922 969 902 853 987 817 714 548 443 419 301 203
195 300 208 182 51 26 68 78 62 105 123 87 74 82 102 88 18 142 550 636 695 659 567 611 646 574 551 643 692 770 875 928 827 779 703 835 864 664 277 279 93 10 13 10
151 196 306 107 132 209 43 31 16 55 50 66 74 74 56 76 33 46 91 182 427 569 427 510 522 507 636 687 636 712 775 643 610 564 480 289 264 124 75 63 1 0 0 0

GFSCGP_con_mucape_018.txt.gz
CAPE
0 0 0 0 0 0 3 17 22 39 227 301 242 142 526 742 719 670 741 792 565 463 551 977 1266 1286 1338 1760 2024 2198 2269 2436 2607 2598 2267 2041 1792 1971 2236 2294 1975 2075 2271 2123
0 0 0 0 0 0 0 4 40 101 235 255 224 239 226 443 782 666 650 802 863 583 616 1020 1326 1415 1465 1769 2085 2427 2618 2751 2968 2634 2799 2105 1874 1702 1897 2178 2035 2396 2183 2175
0 0 0 0 0 0 0 1 15 87 206 244 167 273 284 211 474 664 624 543 888 791 707 814 1011 1300 1438 1686 2106 2360 2798 2920 3105 2901 2655 2708 2654 2506 2228 1871 1885 1934 2329 2280
0 0 0 0 0 0 0 0 3 82 171 165 189 112 79 135 246 548 792 603 535 854 911 840 913 1106 1380 1522 1845 2398 2742 3095 3160 3273 3101 3060 2172 1517 1069 1109 760 912 1852 1607
0 0 0 0 0 0 0 0 0 58 126 156 169 157 87 139 267 427 776 743 407 366 559 784 786 816 1129 1357 1589 2003 2744 3199 3269 3206 3668 2847 2734 1673 1442 1343 1246 1588 1784 1660
0 0 0 0 0 0 0 0 2 27 115 149 122 129 60 76 274 208 382 698 568 221 198 274 414 589 879 1145 1414 1653 2684 3862 3629 3198 3303 3387 2813 2425 1576 1750 1268 1064 1217 1650
0 0 0 0 0 0 0 0 34 52 61 72 89 65 2 5 34 86 58 461 653 285 199 220 313 428 779 1084 1300 1503 3047 3939 3434 3119 2957 3134 3150 2996 2786 2587 1403 724 755 604
0 0 0 0 0 0 0 0 15 50 38 40 38 10 1 52 33 14 38 90 499 609 265 283 408 556 758 1080 1553 2014 3076 3550 3279 2905 3038 3743 3564 2925 2692 2748 1124 665 246 395
0 0 0 0 0 0 0 0 0 43 47 44 9 4 0 19 28 9 34 96 278 695 581 336 487 678 927 1264 2161 2782 3426 3825 3512 2719 3599 3435 3749 3484 2806 2849 2508 1109 810 321
0 0 0 0 0 0 0 0 0 10 85 0 11 26 1 24 15 0 17 77 179 473 705 586 463 781 1052 1309 1727 2094 2975 3696 3068 2661 2760 2661 2776 3142 2936 3069 2583 1719 1267 807
0 0 0 0 0 0 0 0 0 5 9 29 36 1 0 0 0 0 0 49 124 212 631 821 758 750 1268 1386 1644 2032 2300 2605 2744 2932 3309 3316 2821 2666 3018 2917 2577 2149 1480 1280
0 3 0 0 0 0 0 0 0 1 2 14 29 5 4 0 0 0 0 0 2 76 268 776 986 1075 1145 1516 1633 1948 2133 2314 2532 3152 3247 3252 3033 3206 2653 3137 2377 1707 1239 1071
1 1 14 0 0 0 0 0 0 0 0 97 22 2 2 0 0 0 12 13 27 340 378 752 984 1329 1510 1616 2397 1947 2156 2196 2290 2827 2650 2941 3050 2925 2898 2755 2009 1471 817 999
0 0 0 0 0 0 0 0 0 0 0 0 3 35 19 4 0 0 3 47 71 299 592 837 1086 1420 1778 2116 2936 2853 2115 2109 2248 2375 2602 3435 3273 2903 2293 2470 1429 948 399 425
0 0 12 0 0 5 2 0 0 0 0 0 0 1 9 0 0 0 0 0 30 506 740 1003 1252 1555 2154 2403 2844 2492 2392 2523 2416 2489 2619 2942 3105 2816 2283 2046 1377 733 490 277
0 25 39 13 5 4 9 4 0 0 0 0 0 0 0 0 0 0 0 0 17 490 931 1114 1448 1699 2190 2409 2647 2599 2537 2471 2573 2642 2750 3081 3197 2781 2351 1973 1454 875 742 532
12 19 127 37 93 49 32 0 0 0 0 0 0 0 0 0 0 0 69 68 80 329 1039 1202 1433 2118 2198 2415 2636 2690 2675 2604 2751 2871 2924 3084 3203 3016 2445 1885 1291 1114 872 902
186 229 179 196 245 167 1 1 0 0 0 0 0 0 0 0 0 0 55 114 142 372 703 1203 1275 1568 2083 2031 2185 2359 2433 2695 2865 3068 3074 3110 3037 2452 2009 1603 1302 1236 1137 1215
29 397 230 251 257 160 59 252 123 12 0 0 0 0 0 0 0 0 71 177 397 510 857 1384 1264 1453 1846 1733 1997 2266 2222 2416 2600 2893 3068 3040 2795 2381 1914 1699 1097 1136 1133 1181
53 209 268 277 166 178 661 214 224 281 89 0 0 0 0 0 0 0 429 204 154 338 898 987 1036 1162 1405 1517 1707 2122 2154 2432 2648 2862 3030 2975 2693 2435 2036 1839 1463 1262 1217 1131
233 410 137 482 423 294 354 176 356 323 115 277 243 0 0 0 18 399 330 427 473 710 1085 1178 1276 1463 1646 1536 1850 2159 2319 2478 2560 2709 2891 2940 2537 2430 2010 1996 1495 1297 1268 931
448 424 247 458 430 326 269 357 568 624 617 366 230 287 144 352 317 609 720 817 881 998 1108 1256 1485 1740 1879 2192 2533 2628 2645 2841 2935 2896 2883 2544 1994 1884 1846 1566 1261 1141 841 868
505 390 419 418 430 413 216 222 227 542 550 652 534 354 464 509 676 820 954 987 900 861 880 1113 1498 1833 2009 2309 2730 2869 3145 2933 2813 2669 2435 1775 1514 1489 1467 1287 1078 1301 1184 1092
869 910 746 627 379 372 283 7 71 100 230 298 516 584 558 562 580 716 815 877 914 944 1027 1264 1473 1608 1950 2203 2268 2419 2345 2221 2317 1741 1499 1712 1862 1209 1167 1197 1437 1408 1372 1357
361 852 821 588 408 390 131 29 49 58 85 95 96 122 361 777 962 1143 1229 1229 1145 1138 1069 1113 1314 1516 1710 1860 1851 1832 1859 1935 2015 1764 1554 1485 1403 1204 997 925 779 750 641 612
146 486 689 538 331 567 27 16 10 19 13 12 44 53 58 67 93 115 329 583 1016 1297 1400 1441 1576 1769 1819 1969 1963 1847 1861 1962 1672 1598 1607 1382 861 654 997 450 296 110 16 8

GFSCGP_con_mucape_021.txt.gz
CAPE
0 0 0 0 0 0 28 84 41 59 35 71 160 193 320 541 516 193 48 150 178 239 508 636 839 738 823 1019 1500 1770 2284 3668 2501 2053 2243 2265 2023 1943 1570 1762 1830 2772 2374 2226
0 0 0 0 0 0 0 48 77 44 76 45 113 185 374 549 582 509 292 110 147 149 240 528 856 782 979 1229 1747 2810 3057 3907 3344 2684 2793 2422 2072 1017 1406 2259 2963 2310 2076 2315
0 0 0 0 0 0 0 20 74 77 149 141 174 129 210 269 591 543 441 266 192 102 132 347 741 953 1095 1239 1833 3201 3975 4270 3990 3808 3195 2664 2426 1737 1658 911 1493 2240 1901 1991
0 0 0 0 0 0 0 1 26 75 108 216 71 245 222 178 205 482 631 570 297 274 177 205 635 1008 1103 1309 1759 3266 3921 4376 4072 4401 3113 3598 2359 1622 925 1008 895 897 927 1081
0 0 0 0 0 0 0 2 24 58 113 176 106 131 116 104 130 154 451 600 531 286 289 198 398 735 975 1226 1562 2251 4162 4525 4472 4391 4015 2829 2990 1282 1092 902 2193 1265 2352 1114
0 0 0 0 0 0 0 0 43 60 89 112 193 110 190 35 156 185 199 471 711 487 374 476 382 536 774 996 1316 1762 3995 4635 4723 4575 4493 4601 4497 2756 1798 1880 1401 901 1076 1023
0 0 0 0 0 0 0 0 53 79 92 63 146 133 307 151 163 138 123 141 488 793 328 353 540 549 883 1262 1645 1934 3732 4676 4831 4468 4379 4286 4542 4287 3615 2703 1608 1593 817 912
0 0 0 0 0 0 0 0 8 45 63 66 83 98 146 188 52 108 88 72 135 681 675 269 336 432 696 1178 2192 2490 3449 4502 4653 4525 4686 4734 4757 2903 2619 2952 1838 759 568 834
0 0 0 0 0 0 0 0 0 38 85 105 82 71 46 47 74 105 48 17 41 471 718 424 317 259 397 1163 2140 2686 3311 4281 4518 4413 4835 4754 4677 4472 2748 3429 3663 1831 1888 608
0 0 0 0 0 0 0 0 0 26 145 143 95 86 75 108 41 38 46 16 28 59 476 593 392 413 712 697 1591 2441 3157 4248 4404 4355 4590 4355 4501 4585 4465 4425 4256 3282 2661 1671
0 0 0 0 0 0 0 0 2 5 46 90 110 101 70 98 61 40 8 8 38 50 274 660 586 510 800 641 925 1820 2875 3817 4237 4225 4337 4321 4302 3924 4464 3965 4025 3677 3128 2669
0 0 0 0 0 0 0 0 0 150 24 38 96 88 48 23 40 26 43 60 61 39 80 291 632 644 750 1338 983 1305 1909 2382 3515 3786 4414 4384 4436 4034 3945 4150 3978 3938 3227 2895
0 0 0 0 0 0 0 0 0 0 18 166 89 20 59 24 39 34 35 9 3 20 35 69 413 829 1450 1818 1939 1843 2133 1877 2338 3576 3657 4329 4435 4240 3982 4274 4142 3920 3479 2168
3 0 0 0 0 0 0 0 0 0 11 13 16 62 104 75 46 13 8 13 21 13 150 319 180 616 1673 2102 2610 2783 2483 2058 2262 2789 3144 4034 4492 4452 4106 4248 4298 4209 3281 2541
0 1 0 0 4 14 3 0 0 0 0 1 2 63 50 81 86 55 2 19 3 36 40 588 717 642 2496 2716 3233 3124 3221 3239 2810 3519 3703 4190 4582 4558 4554 4096 4225 4024 3021 2582
0 0 3 3 0 2 11 14 0 0 0 0 0 0 29 49 73 63 6 0 5 4 0 389 1027 1167 2445 2920 3510 3723 3587 3502 3505 4062 4065 4430 4779 4604 4578 4327 4065 3767 3050 2130
0 10 14 1 21 49 56 0 0 4 4 0 0 0 0 3 29 93 400 61 5 8 188 8 1021 1853 2768 2558 3528 3642 3965 3835 3998 4324 4349 4651 4827 4761 4602 4172 3952 3547 2756 1938
12 61 41 67 126 153 0 32 18 24 28 28 26 2 0 0 0 28 46 240 198 137 145 158 780 1389 2093 2225 2538 3464 3118 4189 4410 4406 4580 4671 4886 4839 4398 3715 3567 2992 2224 2175
37 55 61 91 135 113 91 295 270 273 78 20 29 32 6 0 0 4 0 0 126 280 388 313 625 1242 2209 2665 3306 3997 3805 3707 4029 4161 4519 4612 4647 4808 4173 3492 3141 2516 2226 1984
35 152 237 217 171 267 307 600 444 416 62 48 141 121 29 0 17 0 0 0 0 28 242 342 499 1283 1843 2953 2657 3693 3913 4149 4292 4265 4171 4604 4647 4276 3477 3126 3074 2613 2127 1602
2 35 96 277 255 175 802 324 389 371 339 926 753 580 504 366 17 0 116 18 25 264 511 1104 1626 1662 3339 3235 3314 3924 3626 3560 3550 3339 3302 3810 3775 4018 3550 2743 2680 2011 1547 1428
0 23 38 242 296 336 652 492 531 1137 1103 994 1073 778 531 593 261 51 654 683 730 736 850 1255 1601 2124 2640 3365 3913 3948 3865 4015 4053 3947 3949 4085 3992 3070 2812 2624 2402 1568 1647 1212
83 39 89 159 359 1082 683 812 665 771 926 1016 1090 886 788 800 736 808 924 1104 1304 1470 1510 1712 2163 2876 2294 3443 3797 3893 4811 4621 4198 3936 3940 3633 3290 2861 2765 2409 1516 1589 1197 1081
138 120 595 941 875 550 492 265 438 473 567 1090 1114 1151 1045 1285 1354 1449 1411 1315 1392 1587 1762 1961 2166 2480 2697 3795 4061 3947 3804 3756 3905 3501 2840 2497 2170 2142 1718 1518 1501 1416 1718 1215
36 106 496 1039 691 415 280 244 227 217 272 675 1087 1401 1445 1443 1355 1398 1385 1138 1101 1213 1259 1478 1783 2099 2346 2621 2709 2828 3044 3121 2843 2331 1793 1657 1551 1569 1222 1188 1126 1465 921 1061
0 13 216 511 644 739 99 12 0 31 82 193 244 380 788 1208 1118 954 1111 1406 1091 882 946 1138 1678 2265 2412 2530 2566 2652 2732 2606 2345 2216 2009 1804 1438 1312 1030 755 691 597 358 359

GFSCGP_con_mucape_024.txt.gz
CAPE
0 0 0 0 0 0 0 0 0 7 1 6 161 202 29 127 115 0 62 73 82 222 394 610 652 768 901 1257 2043 2284 2897 3507 3561 3371 2591 2587 2500 2615 2446 2727 1778 2503 3229 3192
0 0 0 0 0 0 0 0 23 22 52 118 18 453 262 357 257 49 1 44 54 103 304 646 847 878 922 1395 1811 2629 2715 4054 3248 3049 3044 2543 2199 2330 1953 2124 3218 2769 3074 3204
0 0 0 0 0 0 0 0 0 28 23 18 26 29 66 261 277 230 117 37 26 59 82 626 870 888 978 1400 2172 2571 2838 3574 2972 3566 2908 2945 3158 3743 2610 2801 2389 2837 3101 3153
0 0 0 0 0 0 0 0 0 2 30 3 72 80 268 147 459 172 109 96 60 65 98 140 633 1089 1003 1407 2152 2846 3145 3180 3813 2900 3216 3099 2358 2466 2182 2655 2416 2904 2696 2720
0 0 0 0 0 0 0 0 0 0 0 120 137 29 115 236 406 403 146 106 69 122 59 51 364 788 967 1432 1880 2897 3383 3678 3518 3692 3424 3492 3413 1752 2706 2461 3098 3131 2817 2537
0 0 0 0 0 0 0 0 0 0 1 48 83 41 195 248 77 89 279 226 441 242 247 167 218 670 1036 1254 1708 2191 3622 3758 3698 3844 3633 3765 3317 2660 2766 3268 2385 2050 1925 2239
0 0 0 0 0 0 0 0 0 0 49 9 81 184 246 180 137 81 29 68 499 578 390 402 312 559 1153 1266 1569 2268 3552 3871 3931 4036 4009 3513 3941 3537 3520 4303 2245 1648 1280 1261
0 0 0 0 0 0 0 0 0 2 13 21 23 39 236 261 62 5 27 1 263 489 635 640 733 587 1198 1263 1689 2149 3452 3811 4102 3840 4248 4153 3723 3950 3285 3325 2922 1920 1678 1722
0 0 0 0 0 0 0 0 0 0 2 40 43 44 43 216 49 59 2 13 59 532 761 699 893 919 1019 1398 1670 2026 3427 3795 4089 4206 4108 4331 3943 3545 3243 3251 3054 2802 1943 2943
0 0 0 0 0 0 0 0 0 0 4 35 31 97 127 385 54 54 57 66 49 325 580 761 542 852 1089 1447 1749 2188 2810 3816 4144 4235 4199 4143 4198 3736 3288 3397 3504 2365 3355 2805
0 0 0 0 0 0 0 0 0 0 0 7 44 54 165 393 477 293 159 81 70 30 450 790 676 699 956 1177 1599 2061 2316 3661 4105 4140 4157 4249 4197 4110 3566 3343 3231 2965 2965 2804
0 0 0 0 0 0 0 0 0 0 0 0 31 51 60 136 341 437 143 100 60 49 63 391 855 806 838 903 1259 1816 2260 2563 3634 3972 4093 4250 4212 4153 4028 3338 3641 3454 3153 3256
0 0 0 0 0 0 0 0 0 0 0 13 13 0 36 219 0 9 138 69 157 212 498 506 569 898 999 957 1182 1463 1874 2175 3185 3708 3830 4181 4086 4009 3894 3867 3250 3472 3308 2791
12 0 0 0 0 0 0 0 0 0 0 0 9 38 70 273 188 254 173 136 192 644 857 515 794 892 1101 1140 1305 1366 1553 1967 2458 3409 3534 3774 3963 3937 3735 3752 3709 3579 3610 2927
1 7 0 0 0 4 0 0 0 0 0 0 0 23 34 149 315 244 317 309 281 558 973 1674 847 1221 1676 1704 1628 1566 1688 1932 2265 2957 3390 3760 4119 4082 4000 3670 3865 3526 3887 3256
18 5 0 1 0 0 11 4 0 0 0 0 0 0 12 97 265 350 25 100 304 483 498 1483 1936 1953 2455 2483 2284 1900 2000 2046 2339 2541 3225 3514 3930 4317 4203 3906 3801 3914 3809 3546
32 14 90 6 0 0 15 0 7 0 0 0 0 0 6 43 52 201 997 486 435 329 307 448 1745 2237 2316 3126 2906 2460 2323 2786 2670 3317 3235 3534 3961 4290 4278 4248 3808 3915 3723 3398
122 49 42 58 138 85 0 1 1 15 17 0 0 0 0 0 1 1 22 102 335 478 355 746 213 1550 2495 2233 2821 3522 2874 3200 3618 3484 3912 4046 4327 4474 4395 4255 4035 3647 3876 3570
54 98 46 97 47 0 0 1 21 33 46 13 1 40 5 1 0 26 5 0 22 162 725 753 204 127 1878 2056 3025 3521 3870 3426 3674 3809 4588 4328 4648 4691 4545 4456 4089 3992 3728 3169
5 231 153 74 72 49 71 54 275 275 131 262 397 143 61 164 135 100 31 14 20 21 130 639 272 131 806 2557 2851 3720 3717 4002 3741 4145 4048 4686 4921 4742 4709 4572 4335 4030 3313 2617
47 128 61 66 42 3 511 533 344 469 487 953 843 751 575 538 759 1105 762 748 49 291 44 322 1592 1939 2733 2808 3216 3867 3918 4088 4116 4429 4459 4796 4686 4856 4860 4385 3774 3428 2779 2360
58 20 83 207 205 216 543 325 192 975 1022 932 943 869 885 1022 975 834 868 1021 864 1512 631 1088 2232 3399 4100 3676 4510 4330 4308 4464 4638 4525 4537 4706 4845 4375 4025 3570 2876 2858 2423 2071
51 15 53 192 194 1066 855 1033 934 926 980 966 853 666 647 575 779 583 1333 1469 936 1285 2277 1491 2905 4757 4709 5174 4616 4422 4767 4515 4345 4207 4457 4581 4368 4004 3531 3004 2402 2151 2467 1544
156 173 22 223 910 1043 743 651 706 675 898 1549 1541 1393 1347 967 1413 1670 1724 1529 1816 2651 2917 3423 3413 3662 4071 4634 4631 4705 4288 4488 4378 4564 4236 3603 2959 2713 2554 2252 2272 2195 2248 1931
360 201 399 181 1289 606 439 410 410 868 1097 1117 974 1526 1400 1681 1694 1891 2026 2315 2572 2797 3012 3484 3655 3785 4546 4712 4554 4507 4388 4246 3881 3214 2964 2765 2366 2170 2120 2272 2172 1664 1463 994
46 145 328 870 555 487 656 372 387 248 361 518 568 759 790 664 914 830 1272 2049 1968 2102 2426 2305 2262 2592 3092 3236 3180 3315 3707 3140 2763 2656 2410 1819 1950 1863 1420 1209 1084 999 978 886

GFSCGP_con_mucape_027.txt.gz
CAPE
0 0 0 0 0 0 0 0 0 0 19 0 18 12 0 10 0 22 106 57 98 92 98 219 219 532 575 786 1256 835 1159 1693 1484 1678 1705 1891 1728 1712 1691 1697 1831 1494 1655 1679
0 0 0 0 0 0 0 0 0 0 7 28 83 11 13 0 0 0 10 45 62 101 67 183 228 332 542 770 1104 897 1075 2178 1572 1609 1610 1808 1341 1466 1475 1334 1641 1269 1871 1682
0 0 0 0 0 0 0 0 0 0 16 7 64 159 19 14 38 18 11 19 56 77 85 187 199 248 425 583 1110 1190 1414 2181 1886 1999 1728 1640 1518 1578 1860 1514 1472 1954 1891 1896
0 0 0 0 0 0 0 0 0 0 0 0 62 83 71 95 74 38 32 25 14 50 80 110 234 322 349 694 1109 1089 1514 2247 1761 1929 1625 1587 1577 1562 1458 1709 1291 1563 1805 1759
0 0 0 0 0 0 0 0 0 2 0 4 0 0 34 99 79 99 47 60 19 8 46 120 329 243 435 656 976 1555 1356 2231 1577 1755 1710 1438 1492 1154 1303 1343 1455 2059 1861 1364
0 0 0 0 0 0 0 0 0 0 1 2 0 3 1 72 106 137 160 82 32 23 16 56 170 369 398 719 1330 1693 1554 1548 2252 1381 1696 1852 1968 1581 824 1493 1812 1896 1452 1349
0 0 0 0 0 0 0 0 0 0 0 0 6 3 1 32 57 267 190 68 71 10 27 13 177 417 412 708 1153 1804 1776 1796 2039 2233 2064 2089 2238 1920 1489 1381 1189 1267 763 879
0 0 0 0 0 0 0 0 0 0 0 0 0 1 25 46 38 190 107 19 55 43 38 61 39 257 552 556 1094 2116 2036 1989 2328 2261 2186 2095 2028 2687 1583 1836 1488 764 730 740
0 0 0 0 0 0 0 0 0 0 0 0 0 0 0 3 43 54 32 33 17 16 132 116 85 92 448 556 1132 1387 2383 2238 2418 2637 2448 2403 2024 2034 2814 2017 1835 1484 846 980
0 0 0 0 0 0 0 0 0 0 0 0 0 0 0 13 52 36 48 65 39 8 3 231 110 79 427 611 955 1421 2617 2517 2693 2270 2835 2927 2622 2246 2264 2891 1851 2066 1432 1277
0 0 0 0 0 0 0 0 0 0 0 0 0 0 0 21 117 75 58 38 23 0 102 151 175 116 552 700 903 1365 2400 2629 2891 2799 2537 2875 3135 2775 2229 2582 2378 1668 1655 1352
0 0 0 0 0 0 0 0 0 0 0 0 0 0 0 0 240 149 69 48 11 0 4 51 325 360 539 788 893 1319 2609 2651 2902 3105 3000 2754 2971 3139 2670 2152 2281 2145 1688 1799
0 0 0 0 0 0 0 0 0 0 0 0 0 0 0 0 217 81 35 10 23 15 31 432 400 530 619 984 986 1310 2130 2791 3006 3131 3308 3203 3006 3119 3136 2561 2284 2355 2118 1650
46 0 0 0 0 0 0 0 0 0 0 0 0 0 0 19 103 135 77 85 11 20 8 271 499 417 688 863 1202 1287 1565 2633 3045 3310 3259 3297 3235 3237 3235 3189 2543 2846 2473 2287
0 0 0 0 0 0 0 0 0 0 0 0 0 0 0 0 85 63 108 81 1 105 217 143 509 482 480 693 970 1249 1598 1644 2833 3197 3244 3151 3295 3357 3310 3250 3228 2436 2867 2574
0 0 0 0 0 0 0 0 0 0 0 0 0 0 0 0 215 222 133 74 73 86 390 238 654 543 500 514 762 1005 1360 1700 1892 2826 3058 3082 3049 3404 3366 3297 3255 3270 2593 2920
0 0 0 0 0 0 0 0 0 0 0 0 0 0 0 0 7 208 302 104 33 7 408 455 320 1053 671 651 683 949 1118 1381 1713 2073 2777 2938 3037 3210 3358 3345 3293 3255 3267 3066
0 0 0 0 13 0 0 0 0 0 0 0 0 0 0 0 0 0 0 6 12 5 48 264 655 715 1431 1089 885 932 1096 1262 1576 1882 2216 2748 2924 3178 3486 3489 3437 3241 3292 3127
0 0 0 0 0 0 0 0 0 0 0 4 0 0 0 0 0 0 0 0 0 2 29 43 604 1099 1337 2264 1593 1173 1160 1549 1512 1943 2202 2730 2997 3263 3518 3671 3602 3443 3328 3338
0 0 0 9 0 0 0 0 0 221 96 479 290 244 142 3 0 32 358 293 326 69 0 0 32 70 1400 1373 2493 1980 1536 1906 1776 1800 2473 2604 2991 3285 3671 3743 3700 3595 3352 3321
0 11 1 2 0 0 7 43 41 299 189 792 646 610 564 388 553 468 338 224 410 904 306 0 1 88 640 1426 2775 2629 2115 1925 2743 2631 3017 3302 3462 3842 3917 3813 3740 3612 3448 3277
37 0 0 24 5 0 501 411 402 953 917 829 734 629 550 482 388 392 335 383 306 1167 1395 889 30 573 1221 1484 2707 2884 3028 2766 2733 3721 3677 4232 4273 4123 4001 3884 3852 3589 3567 3349
2 0 3 5 300 596 766 921 1149 1053 838 930 719 1569 442 772 1112 1845 1748 1543 1489 1914 3315 3747 3966 4387 4419 3525 2905 3211 3742 3881 3924 3989 4295 4373 4337 4249 4097 3963 3535 3321 3336 3139
102 101 160 244 481 120 109 507 772 1277 1428 1572 1521 1568 1579 1629 1565 1587 2133 2478 2817 2924 3094 3389 3543 3923 4213 4286 4313 4309 4105 4011 3940 4005 4079 3754 3795 4034 3960 3211 3188 2926 2121 1804
77 25 132 233 584 777 786 409 272 777 914 1111 1122 1364 1517 1536 1489 1494 1690 2102 2435 2793 3325 3969 3977 4028 4049 3970 3967 3937 3886 3823 3900 3858 3740 3377 3346 3451 3072 2807 2246 1985 1760 1542
1 0 170 349 212 394 382 561 736 645 653 746 891 994 1202 1252 1319 1287 1323 1635 1988 2365 2526 2896 3457 3667 3740 3697 3646 3545 3530 3564 3641 3204 2990 2678 2909 2702 2250 1871 1640 1515 1400 1417

GFSCGP_con_mucape_030.txt.gz
CAPE
0 0 0 0 0 0 0 0 0 0 0 11 21 1 22 368 372 462 446 406 323 242 225 168 577 504 593 530 852 918 831 821 542 955 1143 1211 1025 1046 1284 1177 948 1063 1331 1546
0 0 0 0 0 0 0 0 0 0 0 0 15 3 0 87 195 245 278 284 283 234 221 248 285 551 545 481 823 898 902 838 712 875 932 1148 1099 1385 1383 1344 1419 1495 1207 1423
0 0 0 0 0 0 0 0 0 0 0 0 16 23 0 0 15 53 101 150 187 115 112 188 212 386 538 386 744 717 784 1011 874 1050 1136 1242 1172 1318 1382 1248 1223 1267 1205 1369
0 0 0 0 0 0 0 0 0 0 0 0 7 2 0 2 13 0 26 77 120 84 54 59 138 247 335 374 473 552 656 1308 1117 1144 1188 1154 1290 1253 935 1202 1440 1139 1351 1459
0 0 0 0 0 0 0 0 0 0 0 0 1 0 0 47 0 0 0 78 92 76 68 33 76 112 298 319 487 605 575 1392 1387 1288 1173 1140 1018 982 1014 1095 1468 1197 1456 1421
0 0 0 0 0 0 0 0 0 0 0 0 0 0 0 0 9 0 20 64 88 85 46 21 52 70 120 314 527 668 742 1222 1431 1422 1286 1228 1121 1080 981 1126 1133 1215 1315 1328
0 0 0 0 0 0 0 0 0 0 0 0 0 0 0 0 1 17 39 60 65 66 50 15 20 50 79 243 489 762 839 1134 1299 1506 1433 1278 1212 982 910 855 990 1214 1298 1322
0 0 0 0 0 0 0 0 0 0 0 0 0 0 0 0 0 10 37 74 67 47 28 42 23 53 74 200 572 956 849 967 1208 1242 1445 1360 1203 1169 1236 1310 1002 1105 1196 1160
0 0 0 0 0 0 0 0 0 0 0 0 0 0 0 0 0 0 43 46 110 32 57 69 45 70 99 260 610 961 977 868 1370 1303 1085 1216 1497 1564 1639 1477 1253 1131 1238 958
0 0 0 0 0 0 0 0 0 0 0 0 0 0 0 0 0 14 52 55 122 92 57 79 28 39 173 187 541 1004 1134 1048 1179 1575 1504 1437 1244 1395 1742 2046 1585 1305 1194 881
0 0 0 0 0 0 0 0 0 0 0 0 0 0 0 0 0 0 28 123 190 80 48 60 25 98 148 296 595 1278 1334 1211 1416 1544 1629 1639 1645 1375 1336 1886 2231 1606 1288 1277
0 0 0 0 0 0 0 0 0 0 0 0 0 0 0 0 0 0 0 107 167 101 82 64 70 89 139 342 485 1036 1777 1540 1631 1867 1890 1796 1814 1801 1557 1404 1900 2329 1551 1290
0 0 0 0 0 0 0 0 0 0 0 0 0 0 0 0 0 2 34 55 72 63 45 24 45 69 205 281 482 994 1721 1929 1882 2006 2016 2215 2227 2215 2076 1754 1639 2050 2447 1615
0 0 0 0 0 0 0 0 0 0 0 0 0 0 0 0 0 7 66 120 121 83 66 14 19 112 307 364 539 846 1336 2144 2188 2319 2123 2124 2335 2601 2512 2229 1875 1801 2055 2199
0 0 0 0 0 0 0 0 0 0 0 0 0 0 0 0 0 0 38 197 98 97 54 8 0 36 201 443 626 826 1306 2024 2286 2525 2573 2391 2353 2447 2737 2673 2315 1986 1885 2082
0 0 0 0 0 0 0 0 0 0 0 0 0 0 0 0 0 0 0 32 45 107 73 0 0 60 273 506 727 897 1146 2075 2288 2583 2716 2741 2735 2617 2622 2844 2826 2438 2281 2013
0 0 0 0 0 0 0 0 0 0 0 0 0 0 0 0 0 0 0 4 122 146 30 32 21 207 361 540 817 909 1202 1751 2413 2583 2747 2815 2911 2920 2890 2892 2926 2934 2618 2511
0 0 0 0 0 0 0 0 0 0 0 0 0 0 0 0 0 0 0 4 68 94 3 155 227 333 478 634 821 1109 1268 1512 2348 2536 2733 2898 2884 2945 2976 3068 3012 2985 2923 2764
0 0 0 0 0 0 0 0 0 0 0 0 0 0 0 0 0 0 0 0 0 13 0 21 364 559 575 589 645 896 1184 1549 1725 2454 2535 2790 2860 2821 3067 3075 3053 2970 2993 2975
0 0 0 0 0 0 0 0 0 0 0 135 0 0 0 0 0 0 34 3 0 0 0 0 29 517 908 734 704 699 882 1267 1631 1808 2203 2612 2757 2802 2843 3092 3041 3018 3033 3059
0 0 0 0 0 0 6 2 1 2 18 160 5 0 0 1 0 16 121 2 28 146 316 58 2 96 780 1077 1011 785 802 950 1213 1637 1803 1951 2596 2759 2859 3118 3177 3107 3076 3137
0 0 0 0 0 0 16 226 1 114 661 383 311 159 108 86 512 781 661 418 188 353 870 542 59 3 22 909 1674 1295 1090 1020 1165 1284 1501 1890 2332 2714 2932 3260 3304 3240 3142 3263
11 0 0 0 1 60 306 1135 1119 1032 1230 1155 819 722 1322 1433 2011 2297 2569 2668 2648 2884 2906 2683 1575 2507 2926 453 2027 1813 1516 1367 1484 1541 1752 2180 2517 2794 3204 3293 3246 3287 3021 2958
145 82 30 7 15 204 342 920 1209 1394 1218 1103 1273 1253 1541 1886 2258 2611 2852 3018 3136 3247 3371 3598 3608 3369 3271 3074 1890 2103 2047 1795 2118 2235 3188 3457 3298 3327 3262 3222 3167 3077 2584 2352
53 92 37 0 40 253 343 469 654 952 1252 1387 1308 1250 1538 2013 2229 2479 2669 2923 3209 3453 3594 3688 3766 3761 3688 3700 3269 3296 3218 2955 3318 3405 3316 3422 3406 3281 3285 3279 3284 2647 1793 1614
17 3 16 182 45 333 495 721 497 376 719 1037 1240 1359 1430 1743 1961 2100 2231 2346 2417 2506 2787 2995 3346 3464 3579 3723 3524 3472 3445 3277 3104 3124 3344 3385 3258 3102 2986 3435 2386 1222 1009 567

GFSCGP_con_mucape_033.txt.gz
CAPE
0 0 0 0 0 0 0 0 0 0 0 0 0 0 375 359 371 337 375 382 536 633 671 659 643 571 485 521 426 484 561 645 612 579 720 984 1110 730 755 1136 980 1001 1006 1230
0 0 0 0 0 0 0 0 0 0 0 0 0 0 259 329 404 334 343 292 256 283 392 664 634 588 583 601 402 393 660 707 724 608 728 992 904 699 580 934 1075 861 987 1201
0 0 0 0 0 0 0 0 0 0 0 0 0 0 96 307 390 389 344 295 232 184 202 150 268 470 613 583 324 520 600 669 774 665 730 839 694 803 852 926 1109 1150 1196 1195
0 0 0 0 0 0 0 0 0 0 0 0 0 0 0 115 319 367 364 327 293 155 138 113 106 340 403 421 330 426 543 607 682 682 580 560 605 588 837 1123 1156 1187 1175 1235
0 0 0 0 0 0 0 0 0 0 0 0 0 0 0 0 59 204 239 232 227 183 143 116 53 182 311 295 326 413 469 588 616 683 594 625 732 684 741 972 1192 1141 1210 1096
0 0 0 0 0 0 0 0 0 0 0 0 0 0 0 0 0 5 61 105 106 104 119 98 85 95 208 302 275 425 458 625 679 626 712 788 798 793 713 743 811 869 1288 1201
0 0 0 0 0 0 0 0 0 0 0 0 0 0 0 0 0 0 0 4 12 26 49 55 54 59 106 267 297 398 442 631 815 792 810 848 879 852 788 726 720 1040 1155 1164
0 0 0 0 0 0 0 0 0 0 0 0 0 0 0 0 0 0 0 0 0 0 24 63 28 26 46 124 236 332 431 565 923 980 919 911 936 918 839 860 664 748 1036 1109
0 0 0 0 0 0 0 0 0 0 0 0 0 0 0 0 0 0 0 0 2 11 54 101 67 9 17 31 154 335 476 516 892 1011 1000 948 946 954 933 912 692 610 862 1005
0 0 0 0 0 0 0 0 0 0 0 0 0 0 0 0 0 0 0 0 0 15 54 115 76 32 2 29 79 246 490 569 753 1000 1045 1010 980 1001 1006 941 792 859 1126 993
0 0 0 0 0 0 0 0 0 0 0 0 0 0 0 0 0 0 0 0 0 0 44 107 127 65 28 29 38 260 549 600 735 921 971 1062 1118 1118 1076 1072 969 1037 1260 1078
0 0 0 0 0 0 0 0 0 0 0 0 0 0 0 0 0 0 0 0 0 0 1 75 117 100 57 38 51 330 589 678 657 990 979 897 928 998 1149 1337 1298 1227 1347 1371
0 0 0 0 0 0 0 0 0 0 0 0 0 0 0 0 0 0 0 0 0 0 9 43 104 125 81 45 63 340 668 812 745 845 1113 1127 1087 1146 1040 1080 1327 1499 1602 1700
0 0 0 0 0 0 0 0 0 0 0 0 0 0 0 0 0 0 0 0 0 0 10 25 23 153 99 85 138 307 828 939 892 963 1112 1228 1252 1287 1326 1183 1098 1350 1582 1837
0 0 0 0 0 0 0 0 0 0 0 0 0 0 0 0 0 0 0 0 0 0 0 17 60 51 106 117 140 282 706 1194 1125 1159 1322 1312 1419 1422 1520 1491 1372 1243 1353 1494
0 0 0 0 0 0 0 0 0 0 0 0 0 0 0 0 0 0 0 0 0 0 0 4 99 48 120 105 92 315 679 1367 1431 1409 1581 1601 1640 1752 1811 1843 1799 1662 1484 1442
0 0 0 0 0 0 0 0 0 0 0 0 0 0 0 0 0 0 0 0 0 0 0 19 36 73 56 65 185 337 578 1033 1719 1726 1772 1800 1773 1836 1952 2123 2171 2047 1870 1695
0 0 0 0 0 0 0 0 0 0 0 0 0 0 0 0 0 0 0 0 0 0 0 0 82 118 39 100 230 424 641 982 1703 1908 1990 2112 2020 1965 1991 2083 2272 2321 2142 1977
0 0 0 0 0 0 0 0 0 0 0 0 0 0 0 0 0 0 0 0 0 0 0 0 147 160 132 88 322 596 730 963 1660 1924 2127 2257 2356 2320 2268 2230 2272 2378 2389 2120
0 0 0 0 0 0 0 0 0 0 0 0 0 0 0 0 0 0 0 0 0 0 0 0 115 11 103 389 619 842 887 1061 1599 2002 2129 2312 2413 2468 2488 2456 2404 2411 2490 2423
0 0 0 0 0 0 0 0 6 0 0 0 0 0 0 0 0 0 0 0 0 0 0 0 5 187 429 537 708 888 1038 1065 1239 1688 2124 2263 2445 2506 2478 2544 2548 2564 2551 2523
29 25 1 0 0 0 2 33 74 61 0 0 0 0 0 0 0 0 0 0 0 4 399 18 0 0 385 685 706 729 840 1032 1247 1398 1554 2102 2208 2475 2496 2485 2651 2678 2653 2634
28 46 1 0 0 0 6 107 501 451 179 180 0 137 269 663 833 851 1132 1695 2170 2323 2450 2396 1610 1347 1700 13 774 722 692 763 889 1042 1301 1390 1812 2179 2409 2521 2698 2760 2645 2630
39 101 58 170 111 0 59 238 626 680 493 605 886 1152 1292 1641 1910 2159 2443 2738 3026 3109 3191 3248 2997 2901 2783 2964 2003 1238 1195 748 750 730 917 1180 1327 1756 2280 2575 2693 2755 2641 2925
7 100 42 133 68 0 103 325 566 688 967 1048 1231 1506 1724 2053 2309 2480 2795 3021 3263 3381 3470 3404 3464 3496 3407 3532 3223 3032 2755 2238 1604 1228 946 1230 1444 1800 2372 2787 2957 2880 2637 2686
10 138 47 46 21 0 2 419 492 826 1117 1484 1802 2055 2154 2330 2407 2433 2472 2473 2518 2486 2530 2511 2433 2572 2489 2722 2833 2908 3101 3025 2773 2647 2586 2477 2237 2192 2473 2402 2501 2969 2671 2630

GFSCGP_con_mucape_036.txt.gz
CAPE
0 0 0 0 0 0 0 0 0 0 0 0 0 0 134 247 325 363 434 393 352 354 320 413 493 518 556 577 558 522 523 443 371 424 504 520 541 712 892 561 672 743 822 1009
0 0 0 0 0 0 0 0 0 0 0 0 0 0 171 241 278 364 447 454 426 410 356 437 516 496 497 482 512 523 500 476 414 314 445 508 478 446 958 626 730 810 785 1048
0 0 0 0 0 0 0 0 0 0 0 0 0 0 31 264 234 260 306 427 455 439 460 470 477 495 516 490 403 418 449 353 401 343 321 500 608 608 893 768 743 939 775 1096
0 0 0 0 0 0 0 0 0 0 0 0 0 0 0 127 250 232 195 222 326 338 419 424 420 410 465 514 461 379 408 342 357 423 511 450 567 685 867 848 623 795 852 788
0 0 0 0 0 0 0 0 0 0 0 0 0 0 0 13 183 231 244 237 217 211 216 201 184 364 367 458 483 454 453 313 322 468 573 599 507 575 634 539 618 798 930 1074
0 0 0 0 0 0 0 0 0 0 0 0 0 0 0 0 79 165 185 247 250 211 188 130 60 61 211 323 355 376 443 362 348 381 528 619 570 478 432 456 611 777 902 1007
0 0 0 0 0 0 0 0 0 0 0 0 0 0 0 0 0 18 84 108 180 262 245 213 105 49 69 164 254 253 287 362 382 403 438 563 611 508 415 535 603 606 828 762
0 0 0 0 0 0 0 0 0 0 0 0 0 0 0 0 0 0 3 23 35 61 153 176 181 43 21 91 160 177 222 255 346 418 421 451 531 534 469 595 669 581 557 606
0 0 0 0 0 0 0 0 0 0 0 0 0 0 0 0 0 0 0 0 0 0 1 47 71 101 31 18 124 145 211 223 269 486 498 489 522 548 553 649 723 677 608 686
0 0 0 0 0 0 0 0 0 0 0 0 0 0 0 0 0 0 0 0 0 0 0 0 0 7 34 27 59 138 157 232 272 547 616 614 609 591 615 686 745 770 754 693
0 0 0 0 0 0 0 0 0 0 0 0 0 0 0 0 0 0 0 0 0 0 0 0 7 20 34 33 17 71 145 224 251 622 738 759 722 675 666 704 729 784 820 718
0 0 0 0 0 0 0 0 0 0 0 0 0 0 0 0 0 0 0 0 0 0 0 0 0 5 29 35 29 32 81 239 303 487 779 834 804 759 738 738 741 803 888 801
0 0 0 0 0 0 0 0 0 0 0 0 0 0 0 0 0 0 0 0 0 0 0 1 0 0 0 20 45 42 71 252 362 466 686 828 864 855 827 842 893 850 919 909
0 0 0 0 0 0 0 0 0 0 0 0 0 0 0 0 0 0 0 0 0 0 0 0 0 0 0 32 57 113 101 250 410 488 718 757 832 878 922 992 1078 1045 958 983
0 0 0 0 0 0 0 0 0 0 0 0 0 0 0 0 0 0 0 0 0 0 0 0 0 0 12 21 140 194 183 342 519 570 685 858 809 803 854 881 959 1126 1165 1088
0 0 0 0 0 0 0 0 0 0 0 0 0 0 0 0 0 0 0 0 0 0 0 0 0 7 44 94 170 190 234 525 658 705 725 860 1035 1056 1043 1080 960 901 1133 1260
0 0 0 0 0 0 0 0 0 0 0 0 0 0 0 0 0 0 0 0 0 0 0 0 0 0 114 199 290 305 279 637 832 862 894 970 1076 1192 1209 1260 1242 1111 973 1106
0 0 0 0 0 0 0 0 0 0 0 0 0 0 0 0 0 0 0 0 0 0 0 0 0 0 31 256 325 355 265 631 1072 1058 1041 1183 1266 1309 1374 1383 1479 1440 1300 1166
0 0 0 0 0 0 0 0 0 0 0 0 0 0 0 0 0 0 0 0 0 0 0 0 0 0 0 157 355 347 295 608 1212 1314 1313 1389 1567 1523 1500 1613 1758 1771 1705 1539
0 0 0 0 0 0 0 0 0 0 0 0 0 0 0 0 0 0 0 0 0 0 0 0 0 0 0 26 198 292 265 596 1054 1565 1629 1648 1707 1703 1624 1689 1816 1944 1994 1932
0 0 0 0 0 0 0 4 24 0 0 0 0 0 0 0 0 0 0 0 0 0 0 0 0 0 1 103 182 171 286 601 980 1374 1700 1804 1902 1960 1910 1869 1860 1907 2046 2193
0 0 0 0 0 0 9 9 7 0 0 0 0 0 0 0 0 0 0 0 0 0 0 0 0 0 15 36 129 250 410 697 839 1194 1649 1879 2052 2176 2191 2228 2166 2020 2137 2353
0 0 0 0 0 0 32 0 0 3 0 0 0 0 0 0 0 0 0 623 1288 1784 1776 1020 1384 1755 1777 388 193 498 741 775 858 988 1293 1812 2010 2215 2414 2487 2500 2469 2506 2460
17 3 73 28 0 0 98 41 5 40 77 139 114 295 150 118 463 1139 1846 2260 2764 2992 3024 2567 2205 2460 2843 2801 2086 1780 1694 1383 690 615 982 1257 1531 2113 2300 2420 2461 2597 2656 2604
0 2 0 26 0 44 176 2 34 158 193 503 705 901 945 1228 1892 2163 2536 2709 2683 2716 2979 3061 3223 3618 2564 2365 2471 2871 3086 2631 1690 1407 1268 1140 1242 1533 1955 2260 2435 2492 2614 2641
0 0 0 0 0 43 64 0 124 328 539 943 1330 1453 1621 2064 2243 2221 2135 2061 1991 1933 1753 2006 2173 2210 1610 1954 2025 2435 2764 2794 2591 2269 1943 1703 1588 1502 1734 1872 1485 2110 2388 2432

GFSCGP_con_mucape_039.txt.gz
CAPE
0 0 0 0 0 0 0 0 0 0 0 0 0 9 0 165 654 833 643 447 369 386 399 526 657 735 882 1063 1183 1170 1135 1495 1190 1001 819 697 430 521 898 1373 1649 1807 2027 2138
0 0 0 0 0 0 0 0 0 0 0 0 0 0 0 88 390 691 789 648 524 419 460 580 687 801 938 1089 1200 1358 1496 1664 1341 1102 1256 864 1010 825 1223 1594 1699 1813 1953 2207
0 0 0 0 0 0 0 0 0 0 0 0 0 0 0 180 323 499 734 759 671 664 596 646 704 853 934 1094 1389 1644 1901 1831 1480 1470 1100 1119 1133 1321 1317 1389 1694 1739 1882 2111
0 0 0 0 0 0 0 0 0 0 0 0 0 0 0 29 405 462 586 755 779 808 728 688 712 898 957 1265 1231 1550 1588 1787 1512 1709 1357 1637 954 1089 1128 1312 1614 1637 1952 2025
0 0 0 0 0 0 0 0 0 0 0 0 0 0 0 4 258 461 537 604 708 775 754 744 786 1065 985 1063 1030 1230 1642 1874 1826 1846 1753 1432 1501 1179 1305 1415 2109 2583 2302 2127
0 0 0 0 0 0 0 0 0 0 0 0 0 0 0 0 77 351 490 533 499 662 686 769 852 897 889 857 897 902 1477 1742 1848 1862 1818 1998 1978 1833 1412 1519 1491 1544 1533 1557
0 0 0 0 0 0 0 0 0 0 0 0 0 0 0 0 0 1 323 509 502 423 461 599 754 731 1205 1107 1198 1206 1497 1652 1862 1819 1834 1901 2002 2210 2241 2042 1463 1638 1247 1453
0 0 0 0 0 0 0 0 0 0 0 0 0 0 0 0 0 0 7 208 445 534 479 432 813 678 637 1229 1394 1485 1461 1541 1662 1733 1827 1935 2062 1681 1755 1840 1371 1280 1252 1366
0 0 0 0 0 0 0 0 0 0 0 0 0 0 0 0 0 0 0 33 254 473 589 571 530 732 669 818 1246 1524 1517 1562 1660 1670 1770 1836 1961 1940 1792 2181 2228 1413 2092 1503
0 0 0 0 0 0 0 0 0 0 0 0 0 0 0 0 0 0 0 0 13 223 377 525 707 888 841 673 1038 1331 1459 1606 1646 1673 1691 1681 1780 1895 1980 2161 2142 2082 2214 1922
0 0 0 0 0 0 0 0 0 0 0 0 0 0 0 0 0 0 0 0 0 0 57 177 633 933 1005 869 623 1108 1352 1538 1623 1649 1739 1790 1795 1883 1997 2035 2144 2266 2330 2376
0 0 0 0 0 0 0 0 0 0 0 0 0 0 0 0 0 0 0 0 0 0 1 33 110 466 517 953 826 915 1177 1223 1518 1562 1763 1851 1915 1959 1998 2070 2133 2275 2301 2493
0 0 0 0 0 0 0 0 0 0 0 0 0 0 0 0 0 0 0 0 0 0 4 26 11 223 711 801 865 735 972 1032 1160 1554 1703 1938 2004 2081 2115 2151 2231 2312 2272 2360
0 0 0 0 0 0 0 0 0 0 0 0 0 0 0 0 0 0 0 0 0 0 4 80 60 218 596 813 906 873 996 1030 1153 1415 1598 1979 2135 2139 2138 2191 2289 2332 2348 2312
0 0 0 0 0 0 0 0 0 0 0 0 0 0 0 0 0 0 0 0 0 0 0 22 182 514 807 956 1101 952 947 1243 1282 1564 1582 1836 2121 2268 2276 2299 2316 2321 2411 2262
0 0 0 0 0 0 0 0 0 0 0 0 0 0 0 0 0 0 0 0 0 0 0 2 133 330 810 959 1019 1006 1104 1214 1418 1641 1727 1892 2187 2322 2297 2322 2382 2443 2474 2415
0 0 0 0 0 0 0 0 0 0 0 0 0 0 0 0 0 0 0 0 0 0 0 0 145 482 923 805 1034 1040 1200 1298 1562 1759 1872 2075 2268 2307 2340 2352 2412 2468 2536 2601
0 0 0 0 0 0 0 0 0 0 0 0 0 0 0 0 0 0 0 0 0 0 0 0 0 12 490 433 374 1067 1100 1499 1745 1884 2062 2212 2329 2330 2341 2374 2370 2425 2445 2596
0 0 0 0 0 0 0 0 0 0 0 0 0 0 0 0 0 0 0 0 0 0 0 0 0 0 268 573 720 1092 1389 1573 1854 2017 2168 2205 2285 2371 2469 2452 2449 2486 2427 2409
0 0 0 0 0 0 0 0 0 0 0 0 0 0 0 0 0 0 0 0 0 0 0 0 0 0 0 692 256 1075 1450 1733 1970 2182 2249 2354 2405 2276 2423 2550 2565 2611 2682 2556
0 0 0 0 0 0 0 0 31 0 0 0 0 0 0 0 0 0 0 0 0 0 0 0 0 0 59 38 1000 1280 1530 1864 1978 2022 2151 2736 2684 2721 2637 2526 2529 2251 2544 2852
0 0 0 0 0 0 0 0 0 24 2 0 0 0 0 0 9 52 0 0 0 0 0 0 0 21 191 390 1295 1865 2043 1983 1765 2025 2366 3030 3068 2518 2199 2798 2367 2168 2304 2726
0 0 0 0 0 0 0 0 0 0 0 0 6 0 0 0 2 135 39 0 311 948 921 0 788 1603 1461 758 1107 1446 1804 1857 2003 2058 2441 2753 2976 2880 3092 2888 1949 2612 2348 2519
9 52 18 0 0 0 0 0 0 0 0 36 48 26 3 4 168 585 0 736 2366 2100 1608 2074 2520 2245 2294 1981 2003 1836 1818 1778 2339 2460 2644 2854 2970 2976 3014 2921 2954 2792 2964 2859
9 29 7 0 0 0 0 0 0 0 0 1 74 90 125 448 1205 444 835 1797 2142 2103 2061 2205 2608 2494 2783 2736 2637 2914 2795 2259 1833 1997 2202 2450 2035 2214 2203 2428 2612 2863 2743 2998
0 0 4 0 0 8 1 29 29 27 24 18 88 55 897 1184 1004 1388 1675 2519 2813 2549 2315 1601 1288 1175 1237 1400 1894 2135 2043 1858 1571 1383 1311 1270 1301 1636 1776 1961 2191 2302 2292 2475

GFSCGP_con_mucape_042.txt.gz
CAPE
0 0 0 0 0 0 0 0 0 0 0 3 29 72 93 107 580 665 1056 1033 954 795 580 537 607 538 604 804 974 1184 1231 1964 1414 1255 1082 770 452 336 218 512 1079 1988 2608 2621
0 0 0 0 0 0 0 0 0 0 0 0 0 0 6 7 203 490 846 1053 1038 885 670 621 666 610 659 908 1191 1544 1544 2065 1971 1416 1360 722 436 241 346 928 1831 2501 2545 2834
0 0 0 0 0 0 0 0 0 0 0 4 6 0 0 0 8 125 459 880 967 968 792 699 607 683 640 876 1322 1709 2155 2106 2192 2289 1324 1128 654 715 706 1327 1969 2372 2394 2490
0 0 0 0 0 0 0 0 0 0 0 0 0 9 26 13 33 171 273 726 960 1002 942 743 608 604 711 999 1368 1775 2173 2406 2304 2155 1807 2434 973 644 831 1507 1472 1779 2277 2255
0 0 0 0 0 0 0 0 0 0 0 0 0 0 0 0 1 133 367 489 913 1009 1053 906 743 602 642 889 1242 1633 2190 2806 2894 2624 2608 1869 1936 572 1085 1235 2626 3133 2879 2426
0 0 0 0 0 0 0 0 0 0 0 0 0 0 0 0 0 15 196 383 781 893 1003 1113 1031 613 757 831 1152 1557 2476 3520 3243 2657 2333 3381 2854 1806 1452 2131 1793 1759 1745 1762
0 0 0 0 0 0 0 0 0 0 0 0 0 0 0 0 0 0 17 257 593 977 969 1082 1192 1092 760 875 1189 1616 3110 3651 3271 2650 2740 2816 3209 3009 3297 2967 2065 2474 1381 1433
0 0 0 0 0 0 0 0 0 0 0 0 0 0 0 0 0 0 0 2 440 747 963 1007 1231 1333 1249 1044 1687 2143 3079 3358 2759 2747 3517 3672 3795 2061 2059 2794 2047 1784 1417 1278
0 0 0 0 0 0 0 0 0 0 0 0 0 0 0 0 0 0 0 0 0 435 820 959 1085 1260 1467 1597 2189 2624 3207 3596 3564 2892 3814 3824 3603 3405 2315 3209 3621 2197 2868 1468
0 0 0 0 0 0 0 0 0 0 0 0 0 0 0 0 0 0 0 0 0 81 646 883 899 1083 1270 1506 1845 2475 3242 3586 3469 2673 3112 2958 3422 3564 3555 3642 3678 3456 3225 2735
0 0 0 0 0 0 0 0 0 0 0 0 0 0 0 0 0 0 0 0 0 92 459 877 1015 1000 1155 1307 1379 1976 2583 3105 3012 3124 3324 3466 3429 3056 3299 2981 3608 3755 3582 3663
0 0 0 0 0 0 0 0 0 0 0 0 0 0 0 0 0 0 0 0 0 1 119 368 477 790 1005 1259 1339 1495 1830 2109 2401 2869 3427 3474 3571 3485 3125 3510 3509 3408 3792 3813
0 0 0 0 0 0 0 0 0 0 0 0 0 0 0 0 0 0 0 0 0 0 0 47 115 327 814 1166 2021 1353 1476 1640 1863 2568 2327 3012 3378 3283 3533 3676 3624 3636 3818 3939
0 0 0 0 0 0 0 0 0 0 0 0 0 0 0 0 0 0 0 0 0 0 0 0 43 210 383 1138 2201 2577 1606 1367 1583 1807 2170 2970 3436 3475 3473 3609 3768 3810 3870 4069
0 0 0 0 0 0 0 0 0 0 0 0 0 0 0 0 0 0 0 0 0 0 0 1 119 124 228 796 2142 2401 1916 2149 1853 2553 2556 2921 3361 3591 3715 3727 3794 3823 3908 3924
0 0 0 0 0 0 0 0 0 0 0 0 0 0 0 0 0 0 0 0 0 0 0 0 5 333 617 1031 1440 1615 2207 2080 2240 2837 2758 3103 3460 3790 3781 3845 3885 3988 3934 4046
0 0 0 0 0 0 0 0 0 0 0 0 0 0 0 0 0 0 0 0 0 0 0 0 0 137 494 539 1154 1735 2304 1898 2423 2727 3032 3295 3527 3756 3920 3764 3812 4081 4136 3977
0 0 0 0 0 0 0 0 0 0 0 0 0 0 0 0 0 0 0 0 0 0 0 0 0 0 208 492 161 1267 1423 2513 2713 3033 3112 3407 3589 3707 3797 4012 3943 4140 4123 4107
0 0 0 0 0 0 0 0 0 0 0 0 0 0 0 0 0 0 0 0 0 0 0 0 0 0 0 0 74 685 1519 1650 2189 3144 3257 3453 3576 3611 3891 4048 3985 3559 3609 3541
0 0 0 0 0 0 0 0 0 0 0 0 0 0 0 0 0 0 0 0 0 0 0 0 0 0 0 0 13 380 1516 2197 2996 3177 3279 3264 3635 3934 3977 3671 3766 3425 3279 3175
0 0 0 0 0 0 0 0 6 0 30 5 0 0 0 89 50 201 198 81 0 0 0 0 0 0 155 112 471 1042 1451 2220 2948 2324 2457 2983 3572 4111 3673 3937 3907 3874 3705 3596
0 0 0 0 0 0 0 0 0 0 0 0 0 0 0 0 0 1 22 195 355 180 0 0 0 0 130 973 1166 2711 2962 2753 2845 2719 2538 3131 3582 3138 2836 4053 3914 3948 4089 3926
0 0 0 0 0 0 0 0 0 0 0 0 0 0 0 0 0 0 14 321 651 669 13 80 338 121 1136 1514 1632 2210 3674 3507 2813 2781 3270 3445 3597 3399 3755 3898 3795 3332 3597 3146
18 22 9 0 0 0 0 0 0 0 0 0 0 0 0 0 0 0 59 519 1245 504 1174 1681 1267 1610 2165 2322 2403 2257 2700 2906 3002 2989 3279 3419 3612 3589 3379 3285 3355 3204 3076 3091
32 61 21 0 0 7 12 9 0 0 0 0 0 0 0 0 0 0 33 1317 1587 1009 2061 2155 2457 2583 3073 2896 2865 2706 2637 2901 3017 3300 3359 3499 3516 3541 3659 3388 3052 3191 3617 2426
4 2 3 0 7 30 13 15 15 0 6 1 0 0 0 0 0 0 594 1822 1966 2193 2345 2876 3022 2603 2644 2935 2876 3467 3382 2796 2924 3068 3058 3010 3123 3360 3280 2849 2610 2749 2927 2859

GFSCGP_con_mucape_045.txt.gz
CAPE
0 0 0 0 0 0 0 0 0 28 42 31 101 76 135 437 596 487 973 1130 981 661 505 522 508 405 470 653 904 1503 1953 2803 1943 1270 1163 927 507 590 251 222 991 1262 1729 2199
0 0 0 0 0 0 0 0 0 0 25 47 90 145 171 142 419 517 651 1065 1005 913 606 434 487 450 461 694 1512 2267 2582 3396 2788 1615 1806 940 1005 204 158 164 1745 1580 2031 2725
0 0 0 0 0 0 0 0 0 0 1 60 25 89 74 88 136 402 321 1000 945 1086 931 531 482 476 417 703 1668 2107 2941 3238 2901 2479 1969 1900 1265 1013 277 396 789 1870 2256 2529
0 0 0 0 0 0 0 0 0 0 7 33 0 65 54 38 73 76 182 646 973 1038 1130 832 503 479 446 663 998 2305 3216 3414 3257 3387 1941 2172 900 437 201 593 687 1762 2597 2479
0 0 0 0 0 0 0 0 0 0 0 8 6 34 67 44 31 54 117 145 692 890 1062 966 682 434 433 378 620 1576 3321 3636 3355 3369 2950 1949 1910 579 431 525 2232 2673 3707 3194
0 0 0 0 0 0 0 0 0 0 0 0 0 9 35 35 62 86 148 150 242 829 940 990 921 497 379 306 446 1163 3422 4112 3996 3974 3588 3755 2701 1988 564 1269 1389 1414 1448 2253
0 0 0 0 0 0 0 0 0 0 0 0 0 0 0 7 23 38 52 175 213 643 947 1044 976 743 712 621 974 1360 3350 4243 4300 4152 3709 3356 3806 3423 3184 3199 1652 2156 1199 1140
0 0 0 0 0 0 0 0 0 0 0 0 0 0 0 0 1 17 39 64 217 457 884 1061 1105 1022 864 1118 1550 1990 3266 4132 4308 4152 4199 4141 4063 2376 2083 2389 1857 1497 1345 1196
0 0 0 0 0 0 0 0 0 0 0 0 0 0 0 0 0 0 0 0 144 304 690 979 1186 1092 1009 1334 1969 2286 3245 4117 4341 4144 4372 4397 4221 3848 2572 2670 3418 2157 2931 1389
0 0 0 0 0 0 0 0 0 0 0 0 0 0 0 0 0 0 0 0 0 223 591 898 1099 1279 1449 1215 1789 2485 2986 4082 4138 4134 4244 4274 4362 4332 3903 3704 3900 3269 3218 3872
0 0 0 0 0 0 0 0 0 0 0 0 0 0 0 0 0 0 0 0 0 20 369 658 941 1174 1553 1395 1389 2072 2934 3503 4226 4177 4144 4285 4294 4274 4385 3970 4011 3960 4336 4555
0 0 0 0 0 0 0 0 0 0 0 0 0 0 0 0 0 0 0 0 0 3 127 412 744 1057 1227 1664 1520 1809 2279 2607 3774 3952 4069 4226 4316 4307 4225 4256 4062 4244 4293 4456
0 0 0 1 0 0 0 0 0 0 0 0 0 0 0 0 0 0 0 0 0 0 80 211 562 980 1107 1542 2297 2326 2449 2243 2445 3506 3496 4049 4206 4315 4226 4253 4354 4295 4398 4463
0 0 0 0 0 0 0 0 0 0 0 0 0 0 0 0 0 0 0 0 0 10 99 232 472 773 1109 1585 2475 2818 2153 1997 2396 2829 3200 3784 4271 4217 4196 4250 4425 4364 4484 4449
0 0 0 0 3 0 0 0 0 0 0 0 0 0 0 0 0 0 0 0 0 0 0 0 16 130 379 1453 2683 3113 2452 2657 2254 3186 3448 3719 4158 4409 4455 4364 4297 4417 4451 4439
0 0 0 0 1 0 0 0 0 0 0 0 0 0 0 0 0 0 0 0 0 0 0 0 0 82 214 881 2414 2794 3295 2728 3022 3305 3359 3840 4126 4389 4498 4489 4433 4559 4540 4576
0 0 0 5 0 0 0 0 0 0 0 0 0 0 0 0 0 0 0 0 0 0 0 0 0 5 240 485 1058 2046 3011 3318 3234 3223 3900 3857 4196 4272 4507 4591 4608 4526 4573 4620
0 0 0 0 0 0 0 0 0 0 0 0 0 0 0 0 0 0 0 0 0 0 0 0 0 0 16 160 371 1527 1324 3378 3596 3740 3354 4133 4140 4333 4524 4642 4645 4689 4702 4697
0 0 0 0 0 0 0 0 0 0 0 0 0 0 0 0 0 0 0 0 0 0 0 0 0 0 0 0 130 372 1249 2185 3479 3751 3886 3568 4290 4415 4612 4634 4729 4743 4697 4701
0 0 0 0 0 0 8 0 0 0 0 0 0 0 0 0 0 0 4 4 17 23 7 83 5 0 0 0 0 3 399 2771 3556 3789 3895 4145 4383 4540 4545 4699 4814 4788 4728 4649
0 0 0 0 0 0 0 2 2 0 132 32 10 0 1 4 221 273 151 85 92 183 332 260 153 41 222 149 432 1086 1039 1906 3175 3178 3763 4399 4471 4654 4707 4802 4847 4791 4676 4196
0 0 0 0 0 0 0 0 0 12 12 11 0 1 5 3 0 7 41 103 127 234 526 559 478 304 234 608 1693 2578 2881 2957 4107 3894 3959 4387 4634 4304 4183 4910 4886 4853 4793 4708
0 23 0 0 0 0 0 1 0 0 0 0 0 0 0 0 0 0 0 21 180 273 973 1128 636 1240 1076 1416 2008 3039 3816 4629 4447 4536 4505 4613 4755 4645 4560 4773 4979 4483 4734 3741
30 7 0 0 0 1 0 0 0 0 0 0 0 0 0 0 0 0 0 0 84 193 1127 1347 1033 1688 1751 1899 2243 3777 3780 4551 4741 4737 4793 4836 4868 4890 4630 4021 3914 3713 3524 3637
34 27 24 10 0 0 2 3 0 0 0 0 0 0 0 0 0 0 0 0 11 167 1419 1422 2141 2059 2011 2596 2972 2966 3224 3797 3896 3973 3648 4247 3820 4027 4165 3417 3278 3389 3453 3010
40 50 14 0 22 25 13 5 1 0 0 0 0 0 0 0 0 0 0 0 2 562 2006 2186 2626 3452 3558 3054 3578 4035 3238 3376 3531 3485 3378 3209 3295 3703 3709 2969 2850 2985 3031 2847

GFSCGP_con_mucape_051.txt.gz
CAPE
0 0 0 0 0 0 0 0 0 0 0 11 46 166 156 181 107 85 253 222 352 291 629 642 521 603 554 305 282 202 678 736 678 1051 898 1161 662 856 330 187 1316 1423 1612 1757
0 0 0 0 0 0 0 0 0 0 0 11 11 104 177 151 179 158 305 315 261 325 259 565 595 512 257 439 93 495 565 876 673 966 581 939 1103 702 388 187 317 1862 1601 1659
0 0 0 0 0 0 0 0 0 0 0 0 23 98 98 100 78 81 260 8 243 338 247 281 195 246 196 320 296 288 561 1080 792 951 866 832 947 504 391 263 104 1485 1215 1277
0 0 0 0 0 0 0 0 0 0 0 0 4 25 104 34 113 123 152 75 89 237 194 288 169 268 266 368 571 198 961 1458 961 1245 977 794 555 486 676 133 234 802 1282 1646
0 0 0 0 0 0 0 0 0 0 0 1 3 3 51 166 133 138 98 240 99 345 244 236 228 310 377 444 611 545 691 1355 1300 938 958 976 687 537 172 323 114 516 773 948
0 0 0 0 0 0 0 0 0 0 0 0 0 8 0 87 211 262 117 379 364 613 308 263 356 309 313 516 680 865 717 1209 1174 1230 1059 676 867 472 419 81 191 585 1495 1473
0 0 0 0 0 0 0 0 0 0 0 0 0 0 0 22 81 131 101 406 549 603 406 451 405 266 275 439 628 995 952 975 1586 1011 886 1429 674 684 245 271 155 764 1770 1804
0 0 0 0 0 0 0 0 0 0 0 0 0 0 0 0 9 81 152 228 580 578 521 553 520 418 269 237 655 981 1220 1120 1321 1590 1108 698 1589 888 631 912 1251 268 1324 1823
0 0 0 0 0 0 0 0 0 0 0 0 0 0 0 0 0 0 7 99 587 564 618 602 610 583 444 290 551 901 1337 1244 1291 1517 1572 1149 689 1711 1205 387 901 1485 613 1224
0 0 0 0 0 0 0 0 0 0 0 0 0 0 0 0 0 0 0 2 93 616 727 708 670 686 598 483 417 628 1316 1413 1491 1377 1642 1727 1312 789 1884 1510 634 752 1371 1283
0 0 0 0 6 0 0 0 0 0 0 0 0 0 0 0 0 6 0 0 1 545 763 819 754 735 677 569 510 548 1085 1631 1810 1879 1569 1891 1912 1510 971 1999 1607 855 1150 1442
0 0 0 0 0 0 0 0 0 0 0 0 0 0 0 0 0 0 4 0 10 212 829 899 890 767 743 653 610 569 904 1596 1874 2098 2095 1900 2186 2250 1732 1193 1854 1837 827 1649
0 0 0 0 0 0 0 0 0 0 0 0 0 0 0 0 0 0 0 0 0 109 886 947 1020 895 826 708 665 638 648 1481 1924 2339 2416 2487 2392 2530 2533 1875 1282 1699 1639 1031
0 0 0 0 0 0 0 0 0 0 0 0 0 0 0 0 0 0 0 0 0 34 784 953 1115 1015 953 812 742 721 681 1001 2090 2343 2608 2704 2720 2710 2751 2720 2244 1568 1906 1780
0 0 0 0 0 0 1 0 0 0 0 0 0 0 0 0 0 26 0 0 0 70 419 839 1045 1145 1117 980 857 813 763 892 1325 2432 2651 2770 2880 2928 2951 2910 3002 2724 2014 2353
0 0 0 0 0 1 18 0 0 0 0 0 0 0 0 0 10 0 0 35 325 205 432 661 930 1121 1215 1226 1043 948 887 933 1092 1343 2647 2861 2995 3064 3120 3205 3130 3223 3147 2584
0 0 0 0 1 14 0 0 0 0 0 0 0 0 0 2 4 0 0 0 17 30 40 201 502 993 1318 1381 1452 1282 1102 1153 1344 1519 1598 2543 3053 3143 3185 3305 3335 3322 3340 3322
0 0 0 1 26 1 0 7 11 0 0 0 0 5 0 17 32 0 0 0 0 19 31 102 292 675 797 1797 1734 1588 1689 1769 1457 1610 1909 1950 2684 3175 3168 3221 3390 3404 3404 3416
0 0 0 18 19 0 1 11 11 5 1 42 173 90 46 50 180 187 69 43 184 250 338 274 180 179 299 283 1037 2223 1963 2217 2349 2038 2449 2349 2810 3023 3208 3167 3292 3396 3393 3377
0 0 0 5 2 20 64 2 3 0 16 21 290 413 55 156 166 134 107 150 146 171 194 458 739 443 380 623 273 1669 2542 2338 2404 2591 2924 3028 3025 3192 3164 3363 3376 3605 3518 3467
0 0 9 0 7 23 18 0 1 6 5 17 272 205 254 16 4 4 32 42 83 149 213 420 711 1069 1501 793 599 356 1445 2693 2693 2429 2459 2967 3420 3439 3429 3386 3540 3619 3761 3725
0 1 23 13 31 44 3 0 3 0 0 5 141 281 103 4 0 0 1 11 0 25 51 308 620 787 1217 1412 1141 774 858 905 2078 2968 3031 3011 3099 3247 3602 3638 3658 3790 3827 3938
0 0 8 22 44 1 0 0 0 6 20 12 33 179 7 18 0 0 0 0 0 0 15 32 642 1654 1986 2824 2889 1784 1761 3233 3284 3550 3275 3354 3261 3421 2897 3788 3818 3825 3911 3953
0 0 0 0 0 0 0 0 0 8 2 1 0 0 0 0 0 0 0 0 0 0 0 149 1323 1618 1620 2306 4205 4178 3256 2912 3161 2843 3450 3887 3597 3831 3432 3778 3863 4081 4137 4125
0 0 0 0 0 0 0 0 0 0 0 0 0 0 0 0 0 0 0 0 0 0 0 354 1347 1542 1594 2260 2978 3555 3641 3935 4232 3160 3913 4543 4037 3971 3861 3458 4089 4013 4071 4199
0 0 0 0 0 0 0 0 0 0 0 0 0 0 0 0 0 0 0 0 0 0 0 0 235 721 1277 1792 2119 2999 2855 3255 3619 4379 3824 4510 4305 4048 4013 3741 3312 3847 3951 4015

GFSCGP_con_mucape_057.txt.gz
CAPE
0 0 0 0 0 0 0 0 0 3 0 61 35 72 669 507 509 382 224 158 88 173 228 214 297 399 318 261 239 132 0 8 232 425 496 464 440 515 495 597 906 630 843 1242
0 0 0 0 0 0 0 0 0 2 1 28 57 76 474 640 469 447 359 292 269 139 139 168 255 293 363 261 184 208 47 6 183 282 506 434 176 230 365 477 339 459 508 964
0 0 0 0 0 0 0 0 0 0 34 8 34 77 208 457 598 573 452 373 313 201 141 119 147 213 258 228 174 198 243 233 106 265 452 247 157 130 194 315 423 473 539 817
0 0 0 0 0 0 0 0 0 0 52 23 43 50 79 144 425 437 501 522 507 311 174 135 151 138 204 109 127 198 219 218 88 123 200 173 76 56 68 113 361 226 696 800
0 0 0 0 0 0 0 0 0 0 13 58 30 85 0 16 100 221 245 411 549 504 403 281 214 239 201 160 80 131 127 203 31 55 39 59 36 0 7 62 237 254 772 815
0 0 0 0 0 0 0 0 0 0 0 9 16 6 0 0 24 82 60 125 310 454 430 443 307 272 290 247 196 64 87 159 151 88 65 32 47 99 229 229 223 288 97 801
0 0 0 0 0 0 0 0 0 0 4 0 0 9 0 0 0 3 7 92 113 164 325 222 302 340 385 402 319 183 139 136 207 141 139 63 71 93 175 321 315 220 120 239
0 0 0 0 0 0 0 0 0 0 0 0 0 0 0 0 0 25 27 53 86 79 155 206 244 357 359 408 418 295 214 207 219 162 195 155 128 99 52 121 381 290 103 36
0 0 0 0 0 0 0 0 0 0 0 0 0 0 0 0 0 0 7 26 53 75 91 122 136 240 389 383 426 425 305 310 278 250 234 228 206 162 98 85 103 248 155 147
0 0 0 0 0 0 0 0 0 0 0 0 0 0 0 0 0 0 0 6 49 69 78 121 101 98 194 316 400 444 394 402 387 349 267 269 256 240 206 157 153 66 162 61
0 0 0 0 0 0 0 0 0 0 0 0 0 0 0 0 0 0 0 30 38 53 56 112 139 137 144 205 285 375 362 405 397 346 290 286 292 273 292 331 315 301 260 140
0 0 0 0 0 0 0 0 0 0 0 0 0 0 0 0 0 0 0 24 68 82 80 70 204 192 184 248 254 301 297 284 281 365 396 395 388 477 583 429 382 324 314 348
0 0 0 0 0 0 0 0 0 0 0 0 0 0 0 0 0 0 0 0 18 115 107 101 219 238 280 260 262 320 359 296 226 210 490 505 451 433 503 847 1042 695 532 378
0 0 0 0 0 0 0 0 0 0 0 0 0 0 0 0 0 0 0 0 0 34 75 103 186 295 300 446 392 335 430 463 395 339 427 640 772 736 589 444 464 1102 1228 1141
0 0 0 0 1 0 0 0 0 0 0 0 0 0 0 0 0 0 0 0 0 0 38 135 228 302 316 542 559 519 434 583 604 545 551 609 817 988 1012 924 726 599 635 1107
0 0 0 0 17 0 0 0 0 0 0 0 0 0 0 0 0 0 0 0 0 0 115 315 449 481 513 657 687 623 514 556 742 741 738 730 761 1011 1209 1296 1271 1097 880 713
0 3 0 0 25 18 8 11 0 0 0 0 0 0 0 21 47 34 17 0 0 111 279 487 581 644 711 761 761 687 549 460 831 868 925 1028 1085 1050 1221 1501 1644 1657 1467 1278
0 0 0 0 0 15 3 0 0 1 0 0 0 0 58 74 102 86 51 9 25 123 375 534 652 704 743 801 799 724 690 659 793 1028 1167 1307 1447 1578 1486 1603 1842 1970 2007 1825
0 0 1 2 24 2 7 0 2 1 0 0 10 47 104 259 241 296 218 197 185 372 552 638 730 777 765 785 766 798 761 762 756 1053 1286 1493 1623 1721 2026 2012 1995 2135 2232 2429
0 0 24 60 46 22 8 3 0 0 0 0 83 95 96 15 64 184 452 611 710 649 852 978 867 913 903 868 862 858 854 866 868 1106 1386 1515 1805 1968 2057 2271 2345 2322 2471 2509
0 9 80 80 72 57 18 4 0 14 0 0 24 13 6 20 4 90 330 841 1274 1802 1862 1859 1904 2090 1604 1139 1094 1088 1039 1007 975 919 966 1545 1920 2094 2308 2382 2463 2666 2722 2800
1 55 95 56 23 47 4 3 10 7 4 0 32 0 0 0 24 24 113 731 1057 1429 1887 2104 2323 2469 2514 2124 1350 1418 1498 1462 1411 1378 1426 1474 1394 1883 2295 2506 2647 2714 2848 2956
19 57 88 41 6 6 35 8 18 0 4 4 15 0 0 0 5 14 10 127 479 842 1207 1480 1612 1918 2412 2664 2497 2472 2611 2396 2123 2046 2070 2086 2076 2106 2054 2133 2496 2771 2840 2808
0 0 37 46 35 26 24 22 13 0 1 0 0 0 0 0 3 8 0 0 33 259 588 943 1157 1216 1607 2341 2566 2407 2217 2239 2222 2390 2769 2433 2576 2590 2561 2521 2434 2451 2647 2759
0 0 18 19 27 21 4 34 32 3 0 0 0 0 0 0 15 24 0 0 0 0 87 335 455 675 814 1231 1923 2191 2199 2076 1930 1782 1792 1850 2789 2996 2545 2732 2944 2916 2977 2961
0 0 0 2 0 0 4 1 25 1 0 0 0 0 0 0 5 21 1 0 0 0 0 6 140 302 534 762 753 850 1012 1152 1484 1484 1450 1870 2352 2894 3343 3075 2844 2788 3212 3206

GFSCGP_con_mucape_060.txt.gz
CAPE
0 0 0 0 0 0 0 0 0 76 65 37 4 35 434 276 237 249 161 43 21 3 31 78 119 212 303 379 275 136 103 0 18 183 241 230 263 443 171 387 383 488 725 912
0 0 0 0 0 0 0 0 0 0 1 16 5 15 370 357 270 302 213 120 46 13 22 52 105 165 198 275 337 230 112 0 0 93 244 273 271 398 255 183 429 711 707 879
0 0 0 0 0 0 0 0 0 0 0 31 35 0 234 479 328 273 220 172 44 12 56 82 70 118 138 170 267 210 150 10 0 24 147 264 300 314 293 353 276 650 485 631
0 0 0 0 0 0 0 0 0 0 0 4 26 0 0 315 420 329 317 278 116 49 61 103 74 55 122 155 157 144 128 75 0 8 68 176 331 327 122 177 277 156 330 508
0 0 0 0 0 0 0 0 0 0 0 0 30 5 0 85 305 419 373 325 220 185 128 80 85 89 90 93 194 196 116 90 24 2 31 112 310 261 95 0 52 209 355 480
0 0 0 0 0 0 0 0 0 0 0 0 2 17 0 0 53 221 361 378 369 294 232 131 71 12 27 45 44 173 163 129 144 155 173 107 111 224 60 0 0 32 143 453
0 0 0 0 0 0 0 0 0 0 0 0 0 14 0 0 10 70 117 248 269 440 403 258 111 71 52 57 69 106 63 118 149 212 182 156 16 24 7 0 0 0 35 105
0 0 0 0 0 0 0 0 0 0 0 0 0 0 0 0 0 1 48 82 98 151 366 370 380 199 73 100 63 84 78 68 113 191 173 186 10 0 0 0 0 0 0 83
0 0 0 0 0 0 0 0 0 0 0 0 0 0 0 0 0 0 5 18 6 51 102 172 284 371 350 179 134 72 81 91 90 106 72 164 158 0 0 0 0 0 0 29
0 0 0 0 0 0 0 0 0 0 0 0 0 0 0 0 0 0 0 7 14 44 49 71 102 145 214 255 218 175 123 66 184 119 121 133 216 72 0 14 30 0 0 85
0 0 0 0 0 0 0 0 0 0 0 0 0 0 0 0 0 0 0 1 25 55 49 41 60 64 93 193 190 199 217 235 192 205 187 204 211 223 76 54 64 55 20 19
0 0 0 0 0 0 0 0 0 0 0 0 0 0 0 0 0 0 0 0 44 87 85 61 76 66 42 184 213 230 232 274 312 365 268 262 290 312 178 134 133 106 55 58
0 0 0 0 0 0 0 0 0 0 1 0 0 0 0 0 0 0 0 0 17 78 94 80 70 43 65 60 204 247 252 276 305 381 413 368 337 356 298 165 158 138 127 144
0 0 0 0 0 0 0 0 0 0 0 0 0 0 0 0 0 0 0 0 0 42 74 60 61 58 114 109 108 176 240 271 272 312 399 438 426 403 357 363 319 165 202 254
0 0 0 0 0 0 0 0 0 0 0 0 0 0 0 0 0 0 0 0 0 0 33 45 47 61 76 180 178 160 180 225 257 274 331 424 394 349 304 397 623 827 498 362
4 0 0 0 0 0 0 0 0 0 0 0 0 0 0 0 0 0 0 0 0 0 0 9 28 48 71 151 236 262 295 305 284 329 330 434 522 550 517 386 349 367 652 997
0 0 0 0 0 0 0 0 0 0 0 0 0 0 0 4 0 0 0 0 0 0 0 0 11 40 92 164 231 324 423 454 473 429 400 447 545 780 829 821 802 623 522 456
0 3 0 0 6 0 0 0 0 0 0 0 0 0 0 0 0 0 0 0 0 47 2 0 38 78 156 228 266 286 445 531 634 603 620 650 675 725 892 1042 1131 1138 1064 832
1 0 1 3 4 0 10 0 0 0 0 0 0 96 125 59 171 304 145 60 58 200 313 81 146 227 266 276 314 336 501 579 711 769 845 920 966 947 958 1100 1274 1399 1525 1450
0 0 0 22 16 83 31 0 2 0 0 0 0 153 162 16 152 259 631 406 558 704 795 282 354 406 369 381 400 453 664 716 794 947 1036 1168 1260 1369 1421 1305 1323 1571 1735 1882
2 1 20 83 75 68 31 17 0 8 0 0 1 45 75 40 146 572 1191 1001 710 690 752 960 1249 1095 643 609 638 720 807 865 821 841 1139 1276 1457 1542 1629 1817 1874 1863 2010 2120
0 0 21 20 55 55 72 41 21 2 0 0 1 8 27 193 444 984 1363 1334 1124 991 951 1010 979 961 1236 883 847 814 865 852 871 871 1150 1371 1513 1785 1847 1910 2084 2292 2320 2427
0 0 0 5 39 62 54 49 3 0 0 0 5 32 67 154 431 666 924 1265 1221 1363 1721 1972 1777 1599 1481 1485 1598 1672 1564 1075 1057 1060 1107 1171 1521 1843 2031 2211 2279 2383 2594 2700
0 0 0 9 50 85 38 45 0 0 9 0 1 21 86 117 287 516 697 960 1111 1195 1484 2086 2172 1962 1785 1648 1588 1785 1983 2223 1823 1742 1588 1642 1767 1815 1850 2192 2408 2581 2680 2721
0 0 0 4 105 63 11 0 0 0 4 0 1 4 28 75 187 244 437 564 851 893 1041 1392 1810 2075 2103 1989 1905 1875 1868 1868 1872 2015 2327 2716 2456 2307 2320 2417 2447 2384 2525 2641
0 0 3 0 3 0 10 0 0 7 14 0 0 6 0 23 64 88 166 265 380 553 772 770 843 1128 1513 1704 1743 1675 1584 1568 1323 1274 1490 2113 2381 2658 2908 2480 2535 2611 2727 2728

GFSCGP_con_mucape_063.txt.gz
CAPE
0 0 0 0 0 0 0 0 0 0 0 72 106 58 371 302 289 205 174 153 109 88 169 215 319 521 612 524 599 600 603 667 490 478 498 640 756 1000 1080 938 1200 1549 1635 1776
0 0 0 0 0 0 0 0 0 0 16 11 84 70 85 366 319 344 187 170 93 108 182 239 284 428 584 735 677 596 641 710 653 429 685 815 1049 1078 1231 1029 1395 1577 1702 2040
0 0 0 0 0 0 0 0 0 0 0 26 72 35 88 474 393 235 211 136 133 127 168 249 296 385 499 668 798 639 811 838 858 783 759 914 1014 993 1078 1050 1155 1601 1799 1899
0 0 0 0 0 0 0 0 0 0 0 10 62 5 27 253 541 485 272 119 156 89 108 199 245 305 392 587 687 816 785 889 645 901 1005 1493 995 893 968 1220 1137 1533 1706 1643
0 0 0 0 0 0 0 0 0 0 0 0 12 0 0 46 390 637 623 460 201 174 126 170 245 302 368 507 561 609 738 1077 1080 1057 1117 1018 1338 1063 1034 965 1353 1436 1661 1679
0 0 0 0 0 0 0 0 0 0 0 0 0 0 0 0 121 508 665 706 582 347 177 236 302 324 311 385 456 506 786 1076 1135 955 1005 1538 1673 1190 840 960 928 965 1154 1494
0 0 0 0 0 0 0 0 0 0 0 0 0 0 0 0 11 95 436 721 739 646 482 307 355 407 420 455 494 621 1184 1115 1071 980 1110 1312 1647 1683 1317 1224 866 1114 745 1006
0 0 0 0 0 0 0 0 0 0 0 0 0 0 0 0 0 6 145 408 699 768 737 628 533 640 678 759 830 800 1041 1184 1081 1026 1261 1445 1601 812 860 1318 800 662 487 591
0 0 0 0 0 0 0 0 0 0 0 0 0 0 0 0 0 0 0 124 461 766 839 797 656 639 727 868 981 804 1038 1113 1075 970 1286 1387 1411 1351 1084 1537 1386 687 1100 457
0 0 0 0 0 0 0 0 0 0 0 0 0 0 0 0 0 0 0 0 75 415 627 852 890 884 865 721 946 952 1004 1126 1106 985 1055 952 1271 1324 1340 1290 1353 1342 1039 806
0 0 0 0 0 0 0 0 0 0 0 0 0 0 0 0 0 0 0 0 22 96 239 510 884 1151 935 712 842 915 911 1109 1103 992 996 1178 1211 1083 1083 910 1054 1317 1153 1092
0 0 0 0 0 0 0 0 0 0 0 0 0 0 0 0 0 0 0 0 0 84 164 252 401 746 962 1205 952 867 800 805 973 1033 1137 1178 1359 1425 974 1091 944 1024 1288 1134
1 0 0 0 0 0 0 0 0 0 0 0 0 0 0 0 0 0 0 0 0 74 148 212 228 701 993 1262 1258 1066 921 644 746 968 831 1172 1371 1213 1475 1521 1268 1023 1314 1336
28 0 0 0 0 0 0 3 0 0 0 0 0 0 0 0 0 0 0 0 0 12 102 232 239 337 805 1042 1350 1293 1124 717 660 782 905 1258 1450 1544 1514 1692 1613 1188 1396 1494
17 0 0 0 0 0 0 0 0 0 0 0 0 0 0 0 0 0 0 0 0 0 117 315 233 627 512 802 1324 1399 1323 1159 992 1068 1115 1312 1510 1621 1749 1804 1694 1404 1487 1560
9 0 0 0 0 0 0 0 0 0 0 0 0 0 0 0 0 0 0 0 9 35 0 90 298 609 702 513 999 1423 1430 1245 1251 1300 1314 1492 1662 1747 1802 1871 1819 1722 1460 1550
19 0 0 0 0 0 0 0 0 0 0 0 0 0 0 0 3 0 0 0 0 13 103 54 41 772 778 623 881 1283 1410 1338 1263 1417 1511 1737 1851 1849 1897 1892 2068 2188 2203 1901
4 3 7 0 0 0 0 0 0 0 0 0 0 0 0 26 0 0 0 0 0 0 1 185 332 15 623 518 535 1183 1223 1452 1362 1412 1495 1751 1913 1956 2027 2014 1880 2049 1721 2208
28 45 34 0 0 0 77 0 0 0 0 0 0 0 0 57 49 4 38 105 7 6 6 216 863 5 430 610 1074 1399 1474 1515 1525 1518 1606 1683 1875 2074 2203 2147 2138 2045 1871 1615
52 135 139 0 5 5 82 15 5 0 0 0 0 0 0 67 88 1 86 227 251 309 332 968 581 120 311 934 846 1559 1384 1703 1756 1806 1808 1888 1935 2071 2258 2414 2516 2607 2281 2128
20 40 0 24 0 26 58 65 61 38 2 6 15 0 25 36 4 49 261 538 454 453 352 1138 651 672 1324 1340 1369 1645 1771 1858 1812 1569 1710 2169 2215 2276 2367 2536 2673 2751 2537 2662
0 5 36 0 8 37 0 53 62 47 37 11 19 15 27 65 132 339 735 887 740 636 468 599 1280 823 852 1198 1514 1767 1905 1840 2178 2262 2141 2510 2657 2230 2024 2866 2669 2716 2896 2853
34 19 0 0 0 0 0 34 72 64 49 37 6 21 55 90 360 544 835 1121 1138 763 705 539 553 575 714 1616 1196 1303 1602 1603 2182 2514 2708 2646 2678 2533 2881 2939 3006 2717 2895 2692
0 0 0 0 0 0 0 2 10 40 49 34 4 5 69 269 545 552 750 1021 1395 1173 981 831 779 787 877 857 955 1066 1843 1794 1574 2060 2261 2409 2507 2758 2833 2616 2654 2684 2829 2959
0 0 0 0 0 0 0 0 4 19 37 23 14 6 164 333 371 262 463 855 1292 1351 1245 995 893 915 1007 1220 1297 1414 1518 2006 2301 1923 1735 1877 1983 2361 2659 2874 2699 2834 3338 2923
0 0 0 0 0 0 1 3 2 12 18 2 15 15 191 266 263 320 247 352 549 1078 1307 1392 1278 1254 1334 1363 1417 1466 1495 1634 1812 2148 2575 2387 2799 2594 2395 2314 2176 2203 2451 2608

GFSCGP_con_mucape_066.txt.gz
CAPE
0 0 0 0 0 0 0 0 0 0 0 4 157 346 633 710 723 868 948 829 559 579 525 362 328 283 192 189 448 579 499 599 556 396 266 461 778 1064 1191 1236 1452 1864 2079 2082
0 0 0 0 0 0 0 0 0 0 0 0 185 331 279 681 646 733 915 916 679 477 601 567 490 406 326 276 395 715 647 827 811 237 251 393 889 1051 1259 1373 1669 2050 2097 2249
0 0 0 0 0 0 0 0 0 0 0 0 5 208 255 245 670 555 673 896 751 487 494 631 604 488 493 421 407 698 986 1083 892 600 419 1055 1215 1433 1570 1506 1727 1893 2035 2076
0 0 0 0 0 0 0 0 0 0 0 0 0 67 171 212 413 539 623 844 820 682 442 592 597 575 598 641 569 697 1049 1211 977 938 1162 2005 1278 1082 853 1067 899 1237 1871 1893
0 0 0 0 0 0 0 0 0 0 0 0 0 1 53 182 215 671 588 662 736 674 574 455 672 660 601 707 762 915 1185 1575 1708 1591 1401 1316 1451 611 626 931 1469 1727 2117 2042
0 0 0 0 0 0 0 0 0 0 0 0 0 0 1 40 139 530 642 581 594 705 616 611 519 647 697 676 761 888 1437 2252 1992 1447 1266 1710 2128 1691 1044 1333 1208 1125 1176 1582
0 0 0 0 0 0 0 0 0 0 0 0 0 0 0 12 37 117 433 579 669 685 729 660 637 598 724 734 735 853 2113 2549 2376 1445 1430 1213 1739 2010 1868 1621 1187 1641 786 880
0 0 0 0 0 0 0 0 0 0 0 0 0 0 0 0 0 19 78 366 639 828 791 774 791 709 703 782 860 1088 2215 2295 2060 1741 2493 2504 2388 1048 1336 1679 1107 1018 729 687
0 0 0 0 0 0 1 0 0 0 0 0 0 0 0 0 0 0 0 84 241 694 904 895 794 869 858 808 1428 1728 2321 2777 2335 1651 2676 2690 2477 2162 1301 2592 2015 1148 1525 770
0 0 0 0 0 0 0 1 0 0 0 0 0 0 0 0 0 0 0 0 78 408 748 967 1039 953 1000 945 923 1089 1819 2636 2435 1552 1829 1702 2005 2018 2345 1876 2391 2099 1707 1362
0 0 0 0 0 0 0 1 8 7 0 0 0 0 0 0 0 0 0 0 0 155 525 824 1076 1148 1080 1050 1034 1034 1302 1592 1699 1790 2138 2505 1956 1728 1816 1572 1759 1994 1921 1683
0 0 0 0 0 0 0 18 24 51 6 0 0 1 0 0 0 0 0 0 0 2 85 386 644 1001 1086 1189 1163 1133 1103 1230 1390 1986 2529 2395 2235 2200 1510 1761 1697 1923 2020 2072
0 0 0 0 0 0 0 0 3 36 28 30 18 0 0 0 0 0 0 0 0 1 24 76 269 516 1155 1183 1704 1300 1177 1101 1231 1753 1525 1906 1894 1886 2158 1993 1909 1934 2062 2118
0 0 0 0 0 0 0 6 0 1 0 2 19 31 11 0 0 0 0 0 0 0 0 57 133 337 862 1546 2203 2116 1329 1113 1154 1352 1417 2317 2479 2487 1777 2516 2495 2077 2163 2210
17 0 0 0 0 0 0 0 0 0 0 0 5 29 27 6 0 0 0 0 0 0 0 45 230 341 724 1394 2487 2120 1460 1985 1624 2131 1865 2494 2925 2807 2942 2928 2738 2381 2493 2213
69 0 0 0 0 0 0 0 0 0 0 0 0 0 0 1 0 0 0 0 0 1 5 12 198 429 551 1078 1718 2363 2192 2084 2171 2553 2420 2766 3096 3200 3171 3249 3094 2991 2627 2481
92 77 0 0 0 0 0 0 0 0 0 0 0 0 0 0 0 0 31 36 7 0 27 141 108 244 659 1020 1473 2295 2561 2222 2399 2720 2705 3014 3280 3308 3387 3299 3349 3380 3285 2859
63 114 87 0 0 0 0 0 0 0 0 0 0 0 0 0 0 0 18 43 41 14 43 122 186 404 179 696 896 1380 1750 2622 2751 2908 2833 3032 3289 3336 3470 3497 3495 3619 3144 3143
87 175 101 0 0 0 0 15 65 99 49 0 53 1 0 0 19 0 0 0 0 31 98 191 366 462 789 259 766 1494 1546 2127 2247 2788 3013 3083 3232 3306 3358 3322 3373 3213 3155 3154
103 207 177 136 0 0 3 8 1 0 122 36 0 0 0 0 6 49 0 0 53 135 321 540 849 1025 1292 957 510 1194 1636 2549 2772 2807 2913 3141 3082 3353 3252 3481 3501 3358 2777 2682
222 200 180 218 130 0 0 13 21 33 88 8 3 0 2 61 0 0 0 33 126 163 387 1259 1908 1733 1384 657 760 2051 1977 2638 2465 1967 1964 2698 2941 3511 3596 3738 3544 3587 3269 3249
86 153 203 183 80 0 0 2 28 29 1 27 6 0 0 0 0 27 229 260 248 231 318 1104 1855 1027 817 947 1842 2687 2739 2238 2896 2672 2356 2884 3225 2549 2481 3730 3584 3645 3908 3587
0 0 23 10 14 1 0 12 3 57 32 112 34 0 0 3 55 161 356 595 566 333 418 333 746 1354 1845 1476 1682 1859 2822 3213 2653 2776 2930 2876 3078 2720 3298 3406 3271 3071 3330 3015
0 0 0 2 1 0 0 0 0 52 64 110 128 77 46 26 84 341 507 597 606 699 628 390 388 554 860 1084 1358 1588 2348 2401 2462 2842 2813 2837 2940 2922 2747 2930 3037 2931 2861 2960
0 0 0 0 0 0 0 0 0 0 5 125 153 107 93 81 234 290 449 731 609 706 681 539 450 412 372 571 831 1102 2014 2105 2364 2680 2769 2930 2957 2943 3075 3122 2780 2966 3599 2805
0 0 0 0 0 0 0 0 0 0 0 2 85 89 121 209 371 452 694 737 1004 798 852 599 476 529 616 651 815 1038 1543 1989 2535 2257 2258 2409 2423 2800 2779 2898 2903 2304 2446 2483

GFSCGP_con_mucape_069.txt.gz
CAPE
0 0 0 0 0 0 0 0 0 0 0 0 0 196 620 677 761 1019 1049 1000 586 793 579 490 354 328 188 92 69 264 836 2183 1036 673 766 876 620 972 2000 844 1582 1985 1732 1548
0 0 0 0 0 0 0 0 0 0 0 0 1 30 448 702 685 912 1038 1077 874 795 739 558 437 341 247 158 226 985 1397 2234 1277 680 1023 1037 1237 731 840 820 1806 1641 1734 1878
0 0 0 0 0 0 0 0 0 0 0 0 0 80 197 507 724 770 1004 1139 1028 630 896 623 529 453 345 237 359 1316 1885 2162 1695 1295 1023 1084 1399 1863 981 1947 1393 1863 1752 1908
0 0 0 0 0 0 0 0 0 0 0 0 0 0 156 132 764 615 770 983 1044 928 685 808 688 619 499 378 284 1365 1766 2202 1796 2023 770 1767 1031 853 831 1175 917 1480 1735 1696
0 0 0 0 0 0 0 0 0 0 0 0 0 0 34 275 306 781 702 796 941 1025 650 756 846 810 659 479 336 563 2025 2346 2110 1874 1627 1292 1706 688 730 657 2812 2831 3123 1726
0 0 0 0 0 0 0 0 0 0 0 0 0 0 0 61 389 368 619 650 871 1014 919 679 795 913 790 679 548 423 1987 2546 2575 2331 1918 2622 2123 1983 639 1020 1363 1058 1343 1655
0 0 0 0 0 0 0 0 0 0 0 0 0 0 0 0 72 217 542 649 726 875 1067 909 759 810 976 1011 1082 1168 1923 2810 2607 2640 1920 2290 3000 2841 2929 2544 1098 1335 651 686
0 0 0 0 0 0 0 0 0 0 0 0 0 0 0 0 5 23 229 582 670 705 964 1043 904 848 1047 1288 1719 1878 2393 2811 2961 2552 2558 2161 2625 1058 1177 2177 956 614 425 675
0 0 0 0 0 0 2 7 0 0 8 0 0 0 0 0 0 0 28 366 566 703 682 983 975 934 909 1378 1945 2115 2608 3137 3064 2530 2745 3107 2674 1656 1048 2307 3023 1464 1918 894
0 0 0 0 0 0 1 19 3 1 4 0 4 5 0 0 0 0 0 116 311 683 742 771 879 934 972 979 1390 2054 2458 3249 3255 2799 2760 2780 2968 2735 1997 2670 3327 2393 2919 2514
0 0 0 0 0 0 0 0 15 34 3 2 1 11 4 0 0 0 0 6 125 400 617 774 808 884 1040 1032 1044 1283 2063 2857 2870 2789 2928 2750 2650 2616 2223 2584 3020 3201 3394 3558
0 0 0 0 0 0 0 18 38 109 51 3 8 35 42 5 0 0 0 0 0 37 346 657 723 945 985 1159 1162 1230 1304 1583 2370 2585 3004 2876 3025 2763 2462 1919 2711 3284 3596 3842
6 0 0 0 0 0 0 0 0 14 60 75 19 2 46 15 10 1 0 0 1 4 76 324 508 1013 1202 1157 1913 1679 1418 1310 1538 2466 2311 2878 3132 2944 2655 2953 2925 3129 3541 3827
1 0 0 0 9 0 0 0 44 32 71 17 20 62 47 32 21 1 0 0 0 1 23 151 309 575 1249 1697 2338 2496 1671 1351 1412 1644 1873 2563 3040 3132 2941 3216 3341 3305 3696 3829
55 0 0 0 0 0 0 1 1 6 39 97 57 53 103 54 67 26 8 20 6 14 2 43 109 136 892 2277 2800 2804 2064 2298 1766 2175 2180 2498 3183 3337 3417 3167 3418 3382 3697 3693
109 1 45 0 30 0 0 0 0 0 0 0 0 0 1 18 6 40 31 47 39 73 17 0 1 70 263 753 2736 3074 2639 2661 2471 2604 2499 2725 3393 3535 3608 3237 3376 3675 3725 3915
105 137 97 0 8 0 0 0 0 0 0 0 0 0 3 0 24 5 61 140 38 16 0 57 130 214 409 507 1976 2669 2945 2617 3004 3162 3061 3210 3635 3729 3686 3403 3568 3818 3948 4032
159 175 185 91 77 0 0 0 0 9 6 0 0 0 2 0 0 0 10 56 158 118 151 172 187 148 198 480 692 1978 2167 2989 3310 3055 3747 3490 3936 3889 4010 3923 3884 4018 4039 4112
181 256 250 133 107 37 17 10 104 31 0 1 2 0 0 0 0 0 1 1 78 84 176 342 396 305 389 434 456 1770 2213 3042 3090 3523 3694 3620 3831 3982 4183 4154 4070 4154 4163 4164
136 210 380 189 95 0 54 158 14 15 0 5 5 0 0 0 0 0 20 215 132 245 443 596 780 974 922 810 837 1232 2299 3225 3263 3662 3484 3771 3885 4063 4197 4234 4322 4335 4256 4215
194 172 270 246 200 134 81 101 0 0 1 52 107 155 77 90 17 183 48 3 0 45 353 878 1296 2128 2074 1434 1280 1698 2044 2499 3394 2916 3398 3971 3975 4169 4268 4467 4470 4401 4239 3553
103 165 229 189 192 121 218 131 5 32 16 33 63 78 226 270 174 11 0 0 0 5 331 940 1771 2605 2821 1957 2843 2677 2817 2806 3964 3552 3637 3998 4137 3601 3478 4455 4496 4544 4444 4471
8 70 137 83 102 188 122 103 31 26 0 0 0 22 62 14 3 2 0 0 24 35 1 185 499 1110 1370 2040 1806 2354 4182 3720 4161 3980 4029 4093 4164 4098 3995 4309 4485 3943 4426 3188
0 0 0 0 0 0 0 0 7 0 0 5 0 3 3 1 0 0 14 0 86 174 29 0 63 972 1325 1500 1641 2196 2566 3552 3709 3942 4155 4156 4128 4134 4182 3591 3577 3167 2988 3056
0 0 0 0 0 0 0 0 0 0 0 0 0 2 4 0 3 13 14 9 111 174 165 133 111 655 1159 1386 1520 1747 1737 2180 3570 3756 3477 3947 3322 3536 3710 3457 3225 3102 3321 2764
0 0 0 0 0 0 0 0 0 0 0 8 9 60 122 35 62 81 105 53 182 180 130 159 391 396 774 1190 1509 1464 1558 1898 2515 3126 3239 3078 3042 3154 3088 3019 2699 2456 2371 2281

GFSCGP_con_mucape_072.txt.gz
CAPE
0 0 0 0 0 0 0 0 0 0 0 0 19 187 84 91 10 94 540 442 506 598 437 539 469 521 183 82 466 1112 1185 1672 1382 1677 1471 1517 1673 1808 2073 1346 2776 3023 2002 2774
0 0 0 0 0 0 0 0 0 0 0 0 2 67 119 43 15 279 289 590 458 575 607 657 552 567 297 206 412 763 1312 1808 1268 1830 1734 1770 2229 1321 1433 1699 2731 2722 2431 3045
0 0 0 0 0 0 0 0 0 0 0 0 0 44 189 48 79 231 343 800 290 751 552 661 488 519 446 337 492 618 1510 1857 1327 1544 1404 2251 2346 2354 1821 2665 2464 2297 2913 2842
0 0 0 0 0 0 0 0 0 0 0 0 0 0 266 657 603 105 363 643 407 515 677 616 398 590 468 454 578 800 1367 2089 1342 1856 1204 1839 1377 1740 1703 2099 1818 2325 3121 3016
0 0 0 0 0 0 0 0 0 0 0 0 0 0 0 123 141 84 28 459 491 278 723 624 533 490 514 536 588 990 1159 1968 1220 1266 1909 1617 1626 1491 2013 1498 2903 2578 3528 3494
0 0 0 0 0 0 0 0 0 0 0 0 0 0 0 26 525 108 25 221 527 469 408 809 759 663 654 570 468 1077 1265 1655 1608 1273 1556 1920 1346 2412 1942 1828 2215 2513 2315 2793
0 0 0 0 0 0 0 0 0 0 0 0 0 0 0 0 335 296 28 154 530 843 728 676 831 834 775 674 565 697 1382 1432 1596 1480 1062 2172 1417 1760 3130 2840 1908 1553 1825 1643
0 0 0 0 0 0 0 0 0 0 0 0 0 0 0 0 0 410 168 287 44 418 899 745 925 1006 1014 963 799 643 1465 1530 1529 1807 940 1403 2351 1391 1845 3105 1350 1983 1031 1606
0 0 0 0 0 0 0 6 0 0 0 0 0 0 0 0 0 0 185 20 9 70 1118 882 950 1033 1307 1166 1115 1003 1301 1698 1757 1617 1669 951 2015 2305 1339 2773 3246 1777 2491 2153
0 0 0 0 1 0 0 0 3 7 0 0 0 0 0 0 0 0 0 61 41 62 234 1035 898 1069 1294 1299 1459 1398 1497 1721 1966 1517 1945 1386 1218 1669 2076 1417 3169 2461 2996 2644
0 0 0 0 2 0 1 0 0 2 27 3 0 0 7 8 0 0 0 0 125 128 89 843 1000 1138 1234 1399 1441 1597 1722 1846 2094 2188 1830 1811 1364 1278 1152 1577 1416 2332 2530 4219
1 0 0 0 0 0 6 14 0 116 27 31 4 7 16 44 0 0 0 0 18 127 261 217 495 1169 1322 1442 1453 1696 1696 2235 2314 2340 2175 1870 2229 1664 1348 813 1566 2700 2619 3070
4 0 0 0 0 0 0 0 0 0 7 125 30 0 0 22 16 2 0 0 0 242 203 213 24 458 1221 1401 1501 1618 1730 1673 2424 2656 2522 2338 2073 2260 1985 1008 1578 1988 2490 3352
0 0 0 0 1 2 9 0 0 2 47 7 22 13 11 25 70 95 33 7 0 50 142 252 227 573 838 1417 1569 1696 1624 1720 1816 2457 2419 2461 2407 2184 2063 2174 1088 2437 2372 2449
16 0 2 0 0 0 0 0 0 0 14 37 3 28 30 3 11 129 114 66 75 83 57 168 289 901 668 1817 1850 1982 1920 1625 1811 2065 2433 2467 2621 2452 2440 2328 2012 1070 2505 2787
163 46 86 0 0 0 0 0 0 0 0 9 0 0 0 1 7 29 67 126 392 470 349 381 554 526 1188 1458 2093 2065 2171 1947 1879 1991 2270 2493 2701 2623 2654 2477 2379 2350 2134 2632
154 194 152 1 46 5 0 0 0 0 0 0 0 0 0 0 0 6 2 83 112 263 263 289 255 386 869 1343 1895 2501 2397 2327 2128 2298 2338 2455 2633 2771 2596 2653 2648 2841 2558 2636
196 221 98 127 69 0 0 1 0 0 0 0 0 4 0 0 0 0 9 59 7 98 122 121 101 256 275 281 1070 2823 2651 2526 2779 2419 2646 2519 2640 2652 2885 2875 2771 2740 2818 2727
42 300 209 59 102 14 20 21 41 42 0 0 0 0 0 0 0 0 0 0 10 47 70 121 110 155 854 938 717 1183 2962 2685 2526 3007 2684 2697 2583 2788 3063 2960 3019 2814 2890 2961
49 110 422 129 34 5 37 57 2 0 0 3 14 0 2 34 17 5 48 319 247 194 117 205 228 277 556 1087 957 861 2079 3287 2719 2539 2833 3247 2846 3181 3210 3191 3164 3000 2999 3011
201 320 295 202 111 20 51 8 0 0 20 111 41 1 0 10 13 315 318 112 32 49 32 230 643 1041 1546 2423 2347 2041 1294 2691 3212 2677 3187 2898 3670 3293 3497 3587 3554 3368 3358 3230
68 130 141 201 138 48 186 128 75 119 56 34 0 0 0 0 1 116 60 33 8 0 0 205 760 1174 1248 1181 1869 2960 1777 2608 3657 3502 2904 3705 3822 3497 3651 3735 3882 3845 3690 3675
0 5 0 105 127 159 27 6 2 0 0 0 0 0 0 19 5 0 4 1 0 0 0 0 4 181 95 860 1798 2071 2909 3357 3641 4067 3361 3921 3853 3739 3598 3734 3975 3937 3965 3794
0 0 0 0 0 0 0 0 0 3 11 1 0 0 0 0 10 1 0 0 0 0 0 0 0 0 6 849 1123 1647 2076 2193 3753 4082 3501 3984 3979 3707 3565 3759 3794 3900 3815 3804
0 0 0 0 0 0 0 0 0 0 0 3 4 0 8 0 3 0 0 0 0 0 0 0 19 0 2 666 1267 1343 2062 2666 4291 4070 3727 3885 3701 3367 3731 3367 3648 3742 3660 3509
0 0 0 0 0 0 0 0 0 1 9 41 1 2 2 0 7 2 1 3 0 0 0 0 8 21 15 632 1219 1642 2025 2202 2676 3958 3901 3569 3376 3510 3543 3206 3069 3207 3282 2973

GFSCGP_con_mucape_075.txt.gz
CAPE
0 0 0 0 0 0 0 0 0 0 0 0 0 405 590 404 234 289 51 343 282 230 209 147 47 38 27 88 4 97 41 513 892 707 416 614 676 446 1095 1249 1525 1431 1396 1092
0 0 0 0 0 0 0 0 0 0 0 0 0 150 417 444 154 82 47 312 392 277 272 176 131 94 54 25 79 19 158 663 829 803 623 375 676 532 649 979 1485 1883 1157 1162
0 0 0 0 0 0 0 0 0 0 0 0 0 152 91 351 131 72 287 388 337 343 290 199 152 186 66 51 57 171 480 419 824 361 627 791 1079 269 956 930 1403 1430 1600 1482
0 0 0 0 0 0 0 0 0 0 0 0 0 0 78 54 70 122 367 347 320 257 293 299 148 115 86 53 30 401 569 404 510 396 151 507 796 460 761 862 1502 1374 1465 1633
0 0 0 0 0 0 0 0 0 0 0 0 0 0 0 97 117 86 150 181 217 216 191 270 264 133 102 60 48 138 732 354 142 586 45 278 330 458 656 1170 1284 1089 1610 1773
0 0 0 0 0 0 0 0 0 0 0 0 0 0 0 95 136 135 105 2 13 120 161 352 367 160 110 50 24 16 750 265 204 118 571 201 173 370 862 714 1199 1186 1664 2009
0 0 0 0 0 0 0 0 0 0 0 0 0 0 0 0 356 365 198 52 11 137 318 410 351 286 225 94 49 22 350 653 176 130 333 801 69 197 995 733 1580 1164 1407 1360
0 0 0 0 0 0 0 0 0 0 0 0 0 0 0 0 185 342 439 282 81 234 392 428 407 332 311 197 144 90 74 559 415 34 35 548 433 112 472 1388 1225 1186 1072 938
0 0 0 0 0 0 0 0 0 0 0 0 0 0 0 0 0 257 147 133 102 468 424 398 379 370 337 312 231 343 176 235 589 355 0 132 1089 38 341 742 1339 891 978 1004
0 0 0 0 0 0 0 0 0 0 0 0 0 0 0 0 0 35 205 69 348 427 398 339 452 385 306 372 337 221 473 305 618 561 211 65 479 754 391 558 1242 1462 722 893
0 0 0 0 0 0 0 0 0 0 0 0 0 0 0 0 0 0 11 90 241 580 548 492 532 492 428 424 438 361 707 553 622 500 651 60 86 947 1118 659 589 1431 1100 2072
0 0 0 0 0 0 0 0 0 0 0 0 0 0 0 0 0 0 0 333 352 437 208 103 113 318 586 507 614 490 597 754 734 562 724 636 33 350 806 981 332 664 1260 1251
0 0 0 0 0 0 0 0 0 0 0 0 0 0 0 0 0 0 0 89 397 357 196 143 107 54 683 607 741 672 579 813 920 895 567 901 696 44 533 436 659 291 1361 1093
0 0 0 0 0 0 0 0 0 0 0 0 0 0 0 0 0 3 1 182 334 534 346 225 198 94 137 590 875 845 693 895 1022 1083 958 820 857 810 120 145 92 691 1185 1916
0 0 0 0 0 0 0 0 0 0 0 0 0 20 0 0 5 12 42 227 217 417 277 228 341 114 136 501 960 926 862 872 1275 1351 1382 1197 1010 877 1104 581 422 26 1040 1387
0 0 0 0 0 0 0 0 0 0 0 0 0 37 0 0 0 4 34 170 179 142 238 271 235 203 102 162 803 1034 969 1039 1210 1737 1736 1652 1529 1209 1095 1270 1130 809 497 1187
12 4 2 0 9 13 0 0 0 0 0 0 0 0 0 0 0 1 11 85 107 168 119 98 112 366 404 375 426 114 556 1030 1233 1306 1896 1866 1754 1749 1470 1338 1272 1354 1108 876
3 42 15 0 28 0 0 0 0 0 0 0 0 0 0 0 0 0 9 52 64 118 140 133 229 142 259 330 276 288 424 993 1127 1246 1527 1825 1847 1803 1820 1666 1498 1409 1360 1151
0 36 9 0 2 0 0 24 0 0 0 4 2 3 0 0 0 0 0 25 1 47 49 93 117 133 233 707 494 346 116 526 1308 1426 1357 1855 1941 1931 1944 1780 1708 1549 1532 1497
4 1 21 9 13 0 34 10 11 0 0 0 0 0 0 0 0 0 28 9 0 0 0 0 274 585 670 870 997 1101 568 566 997 1596 1772 1740 1794 1945 2056 1889 1841 1709 1573 1699
0 2 2 72 18 5 51 53 23 0 0 0 0 0 0 0 0 0 19 4 9 10 5 0 103 446 647 857 823 483 1008 1012 1004 1896 1947 2063 1847 1866 1951 2106 1869 1932 1883 1766
0 0 59 10 11 0 5 18 2 0 0 0 0 0 0 0 0 0 29 4 0 1 0 0 0 16 79 196 138 207 957 1436 1785 2461 2244 2213 2111 1916 2096 2200 2224 2072 2115 2014
0 0 0 0 1 5 6 0 0 0 0 0 0 0 0 0 0 0 1 0 0 0 0 0 0 0 0 0 0 308 837 1700 1790 1390 2705 2504 2568 2234 2308 2415 2455 2344 2295 2184
0 0 0 0 0 0 0 0 0 0 0 0 0 0 0 0 0 0 0 0 2 0 0 0 0 0 0 0 0 54 601 1195 1555 1675 2554 2547 2664 2937 2448 2739 2629 2620 2609 2488
0 0 0 0 0 0 0 0 0 0 0 0 0 0 0 0 0 0 0 5 6 14 0 0 0 0 0 0 0 11 373 891 1514 2305 2861 3027 2794 2885 2879 2898 2799 2905 2792 2815
1 0 0 0 0 0 0 0 0 0 0 0 0 5 0 0 0 0 0 43 37 0 1 0 0 0 0 0 0 11 283 972 1794 3204 3492 2960 3140 3150 2914 2770 2840 2969 2966 2981

GFSCGP_con_mucape_078.txt.gz
CAPE
0 0 0 0 0 0 0 0 0 0 0 0 41 384 162 88 439 382 229 200 122 116 131 49 185 134 161 226 418 486 581 111 699 252 305 563 324 535 977 759 1206 1145 909 814
0 0 0 0 0 0 0 0 0 0 0 0 130 462 311 107 377 300 179 144 168 150 153 144 203 139 109 150 100 68 399 296 436 236 69 388 541 565 875 947 1113 1206 991 872
0 0 0 0 0 0 0 0 0 0 0 0 238 391 397 193 131 64 39 86 195 157 134 179 110 60 82 101 68 45 208 296 378 360 86 241 506 405 772 1036 1206 1383 1190 937
0 0 0 0 0 0 0 0 0 0 0 0 0 23 460 323 178 155 36 78 222 225 172 191 197 66 109 213 144 117 223 375 419 401 245 248 626 179 742 599 903 1474 1085 1050
0 0 0 0 0 0 0 0 0 0 0 0 0 0 0 204 240 116 47 406 175 281 270 225 306 201 202 312 211 210 118 398 486 365 192 267 413 430 390 628 772 1083 1250 1169
0 0 0 0 0 0 0 0 0 0 0 0 0 0 6 52 410 168 9 349 460 416 370 291 253 242 168 165 225 241 129 241 532 402 125 145 242 383 429 546 901 1193 1201 1327
0 0 0 0 0 0 0 0 0 0 0 0 0 0 0 21 66 123 57 565 507 450 369 336 282 298 258 187 225 328 236 201 257 550 187 27 150 144 358 764 863 771 967 1520
0 0 0 0 0 0 0 0 0 0 0 0 0 0 0 0 62 160 116 461 529 409 393 421 340 310 326 329 216 260 359 213 136 417 430 0 10 78 202 630 823 871 773 1304
0 0 0 0 0 0 0 0 0 0 0 0 0 0 0 0 0 154 146 149 432 21 62 334 470 333 324 324 325 296 357 225 184 110 140 405 254 6 15 650 1120 971 688 785
0 0 0 0 0 0 0 0 0 0 0 0 0 0 0 0 0 83 343 149 91 121 181 197 373 360 364 377 364 307 334 284 231 138 76 16 385 599 53 185 732 1252 824 696
0 0 0 0 0 0 0 0 0 0 0 0 0 0 0 0 0 0 0 0 60 115 246 351 439 536 503 470 417 347 345 302 369 276 115 12 8 420 678 85 269 1014 1033 855
0 0 0 0 0 0 0 0 0 0 0 0 0 0 0 0 0 0 7 0 0 83 331 449 495 529 512 478 425 337 382 339 280 417 291 141 0 50 784 566 221 565 1146 878
0 0 0 0 0 0 0 0 0 0 0 0 0 0 0 0 0 6 37 268 55 67 307 568 552 524 481 370 291 320 353 351 288 388 397 314 72 2 252 735 774 371 898 1032
0 0 0 0 0 0 0 0 0 0 0 0 0 0 0 0 0 0 93 371 296 276 370 424 527 602 235 547 447 396 380 507 429 350 412 489 337 77 5 330 566 937 375 745
0 0 0 0 0 0 0 0 0 0 0 0 0 0 0 0 0 0 27 165 233 268 145 402 364 260 114 102 629 586 596 543 647 572 472 500 626 388 166 6 302 336 702 366
0 0 0 0 0 0 0 0 0 0 0 0 0 0 0 0 0 0 0 23 127 120 169 182 109 108 113 39 39 321 713 764 759 816 728 506 646 773 553 339 284 89 99 565
0 0 0 0 0 0 0 0 0 0 0 0 0 0 0 0 0 0 0 1 89 151 159 131 103 55 86 113 41 181 487 775 1001 993 954 990 672 819 825 804 573 461 338 11
0 0 0 0 0 0 0 0 0 0 0 0 1 0 0 0 0 0 0 0 4 40 147 115 140 296 357 141 98 89 226 749 1117 1234 1323 1235 1307 1016 941 953 1115 906 794 632
0 0 0 0 0 0 0 0 31 21 0 10 0 0 0 0 0 0 0 0 10 10 54 99 250 128 227 328 445 580 409 456 534 1094 1222 1708 1607 1546 1371 1369 1314 1220 1171 1087
0 0 0 0 0 0 0 8 15 1 0 0 0 0 0 0 0 0 25 1 7 17 2 35 9 73 73 242 235 296 728 344 548 1010 1265 1277 1909 1754 1727 1684 1602 1478 1390 1245
0 0 0 0 0 0 0 0 25 5 0 0 0 0 0 0 0 0 0 8 55 36 4 1 0 0 33 13 8 101 166 481 153 150 1000 1136 1356 1859 1795 1779 1765 1654 1548 1421
0 0 0 0 0 0 0 0 2 0 0 0 0 0 0 0 0 0 0 0 0 8 0 0 0 2 0 0 0 0 59 225 631 593 494 651 1613 1795 1933 1847 1829 1754 1668 1544
0 0 0 0 0 0 0 0 0 0 0 0 0 0 0 0 0 0 0 0 0 0 0 0 0 0 0 0 0 0 1 0 152 829 1196 1229 1847 1870 1849 1912 1897 1808 1737 1659
0 0 0 0 0 0 0 0 0 0 0 0 0 0 0 0 0 0 0 0 0 0 0 0 0 0 0 0 0 0 0 0 0 380 866 1318 1952 2008 2079 1873 1877 1863 1731 1749
0 0 0 0 0 0 0 0 0 0 0 0 0 0 0 0 0 0 0 0 0 1 0 0 0 0 0 0 0 0 0 1 2 291 987 1904 1949 2334 2340 2170 1984 2031 1933 1869
0 0 0 0 0 0 0 0 0 0 0 0 0 0 0 0 0 1 0 0 5 1 0 0 0 0 0 0 0 0 0 13 75 279 1047 2391 2449 2568 2488 2367 2285 2204 2217 2089

GFSCGP_con_mucape_081.txt.gz
CAPE
0 0 0 0 0 0 0 0 0 67 3 1 38 414 198 336 552 340 156 137 120 60 57 20 34 57 66 51 138 155 189 372 715 482 442 511 411 496 940 871 820 1184 854 483
0 0 0 0 0 0 0 0 0 0 0 0 58 286 223 438 494 416 193 188 156 144 40 80 70 103 59 92 122 231 236 262 595 474 452 587 482 404 840 858 1004 1071 869 744
0 0 0 0 0 0 0 0 0 0 0 70 168 187 265 205 289 464 351 206 202 178 53 59 111 140 137 159 87 225 194 116 477 390 279 312 685 418 660 835 946 1044 939 742
0 0 0 0 0 0 0 0 0 0 0 0 0 0 249 194 110 449 380 311 276 266 157 92 106 111 166 255 103 195 324 146 216 229 161 215 572 448 630 887 978 1159 1212 993
0 0 0 0 0 0 0 0 0 0 0 0 0 0 0 331 329 146 398 186 45 260 225 169 161 72 144 201 138 157 174 180 96 151 91 105 359 434 476 777 1041 1143 1286 1230
0 0 0 0 0 0 0 0 0 0 0 0 0 0 0 146 306 193 108 87 69 115 232 180 274 216 178 160 116 101 138 136 113 121 193 45 145 383 336 388 685 713 1285 1122
0 0 0 0 0 0 0 0 0 0 0 0 0 0 0 0 9 168 154 229 102 188 219 216 209 257 192 160 136 121 243 174 154 95 97 119 52 115 374 265 572 781 1012 1154
0 0 0 0 0 0 0 0 0 0 0 0 0 0 0 0 0 0 37 114 203 211 132 264 199 164 226 276 230 253 275 199 178 147 60 91 21 35 118 283 438 727 920 1160
0 0 0 0 0 0 0 0 0 0 0 0 0 0 0 0 0 0 0 5 24 125 193 398 260 186 253 273 272 260 196 197 168 184 135 56 43 12 44 77 408 689 881 798
0 0 0 0 0 0 0 0 0 0 0 0 0 0 0 0 0 0 0 3 0 28 240 443 418 319 303 304 264 289 245 276 208 142 185 108 44 3 2 4 546 857 842 891
0 0 0 0 0 0 0 0 0 0 0 0 0 0 0 0 0 0 0 18 9 0 0 231 419 391 364 368 309 308 309 321 289 277 194 152 123 59 0 0 0 484 1079 996
0 0 0 0 0 0 0 0 0 0 0 0 0 0 0 0 0 0 2 34 0 0 0 0 267 58 330 416 394 372 353 396 343 377 335 186 115 65 166 85 49 93 401 815
0 0 0 0 0 0 0 0 0 0 0 0 0 0 0 0 0 0 0 0 50 59 5 23 135 163 211 276 334 392 372 457 380 367 430 311 154 84 71 205 248 237 159 429
0 0 0 0 0 0 0 0 0 0 0 0 0 0 0 0 0 0 0 25 41 191 362 298 329 403 319 296 370 325 412 450 394 325 328 382 280 190 126 64 290 362 302 231
0 0 0 0 0 0 0 0 0 0 0 0 0 0 0 0 0 0 0 44 175 236 361 451 529 468 416 413 459 479 433 360 308 244 253 320 366 281 254 174 39 289 347 312
0 0 0 0 0 0 0 0 0 0 0 0 0 0 0 0 0 0 0 0 81 205 243 268 350 483 521 486 393 356 431 359 378 381 313 328 312 347 357 315 191 45 187 276
0 0 0 0 0 0 0 0 0 0 0 0 0 0 0 0 1 0 0 0 18 151 225 172 189 280 255 306 330 270 180 61 412 516 552 522 448 463 438 460 366 274 167 35
0 0 0 0 0 0 0 0 0 0 0 0 0 0 0 0 27 5 0 0 0 31 186 223 232 166 124 358 421 197 97 127 279 548 648 623 630 564 584 522 499 465 404 322
0 0 0 0 0 0 0 0 0 0 0 0 0 0 0 0 41 78 15 0 0 1 91 141 77 172 69 103 317 469 412 208 230 529 789 680 664 694 779 611 733 713 679 619
0 0 0 0 0 0 0 0 0 0 0 0 0 16 0 0 6 78 83 17 13 14 1 5 139 88 132 74 78 167 217 314 227 379 612 719 1058 1047 1083 930 943 1025 992 901
0 0 0 0 0 0 0 0 0 0 0 0 0 0 30 0 0 0 111 43 12 20 1 1 0 33 60 0 18 114 143 163 153 171 223 435 876 1447 1427 1148 1183 1227 1157 949
0 0 0 0 0 0 0 0 0 0 0 0 0 0 4 1 2 0 0 51 20 14 11 0 0 15 0 0 0 99 80 58 112 144 100 389 310 964 811 1519 1401 1410 1372 1238
0 0 0 0 0 0 0 0 0 0 0 0 0 0 0 0 0 0 0 0 0 1 5 0 0 0 0 0 0 29 65 9 32 107 96 114 708 608 825 1287 1583 1486 1475 1426
0 0 0 0 0 0 0 0 0 0 0 0 0 0 0 0 0 0 0 0 0 0 0 0 0 0 0 0 0 0 0 0 0 109 147 61 220 1036 1065 1476 1618 1584 1517 1474
0 0 0 0 0 0 0 0 0 0 0 0 0 0 0 0 0 0 0 0 0 0 0 0 0 0 0 0 0 0 0 0 0 0 0 26 162 763 1268 1527 1717 1765 1705 1626
0 0 0 0 0 0 0 0 0 0 0 0 0 0 0 0 0 0 0 0 0 0 0 5 6 0 0 0 0 0 0 0 0 0 0 0 62 475 1372 1580 1622 1699 1827 1762

GFSCGP_con_mucape_084.txt.gz
CAPE
0 0 0 0 0 0 0 0 1 0 0 0 0 0 43 255 416 388 268 138 99 77 39 62 37 4 19 43 6 22 14 111 277 335 384 406 466 316 508 597 600 445 765 741
0 0 0 0 0 0 0 0 0 24 7 0 0 3 194 290 397 395 362 205 130 121 110 117 90 24 0 32 25 66 49 42 173 369 439 319 376 318 547 678 674 823 895 525
0 0 0 0 0 0 0 0 0 9 13 55 45 0 239 314 508 576 418 270 184 152 135 134 90 38 6 11 75 95 71 78 124 512 339 406 382 325 513 647 708 905 826 695
0 0 0 0 0 0 0 0 0 0 0 0 0 0 12 303 544 582 500 380 230 156 143 120 69 29 46 49 99 134 129 81 187 518 275 389 486 266 295 560 681 770 845 786
0 0 0 0 0 0 0 0 0 0 0 0 0 0 0 62 380 424 508 470 288 228 191 164 131 71 87 52 78 225 169 160 233 505 345 264 346 413 282 500 637 734 931 1012
0 0 0 0 0 0 0 0 0 0 0 0 0 0 0 109 225 197 161 483 412 310 249 209 186 142 103 96 64 229 188 186 201 201 260 221 214 309 304 372 625 733 897 997
0 0 0 0 0 0 0 0 0 0 0 0 0 0 0 0 0 37 130 122 365 410 286 257 281 223 184 131 78 139 150 192 180 128 170 68 36 304 276 248 318 509 568 817
0 0 0 0 0 0 0 0 0 0 0 0 0 0 0 0 0 0 7 53 77 373 339 43 168 290 250 205 145 101 143 128 201 190 39 0 0 71 312 293 88 260 503 696
0 0 0 0 0 0 0 0 0 0 0 0 0 0 0 0 0 0 1 10 22 37 77 119 65 182 228 208 227 144 142 80 233 212 166 28 0 0 62 197 270 256 396 568
0 0 0 0 0 0 0 0 0 0 0 0 0 0 0 0 0 0 11 29 16 22 66 173 140 178 239 199 196 233 192 151 185 240 192 109 13 0 0 19 100 244 414 523
0 0 0 0 0 0 0 0 0 0 0 0 0 0 0 0 0 0 0 0 15 57 15 64 216 156 154 199 191 174 165 272 183 215 180 190 104 9 0 0 9 231 353 539
0 0 0 0 0 0 0 0 0 0 0 0 0 0 0 0 0 0 0 0 55 246 52 0 1 201 229 398 320 240 181 190 247 263 260 258 193 90 3 0 0 28 401 613
0 0 0 0 0 0 0 0 0 0 0 0 0 0 0 0 0 0 20 53 35 336 179 116 9 3 162 350 475 443 416 295 201 189 240 293 267 203 115 9 0 0 7 159
0 0 0 0 0 0 0 0 0 0 0 0 0 0 0 0 0 0 13 17 15 104 462 341 249 117 138 189 354 359 377 414 367 242 205 266 313 286 197 97 1 0 0 19
0 0 0 0 0 0 0 0 0 0 0 0 0 0 0 0 0 0 0 12 45 20 12 263 492 408 342 244 216 217 224 283 312 344 239 215 252 276 268 162 101 0 0 0
0 0 0 0 0 0 0 0 0 0 0 0 0 0 0 0 0 0 0 0 20 41 4 51 138 455 447 493 379 285 233 237 244 282 316 304 305 241 249 242 185 154 75 3
0 0 0 0 0 0 0 0 0 0 0 0 0 0 0 0 0 0 0 0 0 104 0 4 15 257 386 346 470 508 434 357 370 335 336 310 254 263 258 232 212 186 191 110
0 0 0 0 0 0 0 0 0 0 0 0 0 0 0 0 0 0 0 0 0 0 84 13 29 128 112 421 368 246 363 323 328 285 388 404 422 343 323 288 280 304 273 242
0 0 0 0 0 0 0 0 0 0 0 0 0 0 0 0 0 0 0 0 0 0 0 87 155 79 113 84 360 332 327 244 223 376 465 451 443 555 567 466 458 422 406 388
0 0 0 0 0 0 0 0 0 0 0 0 0 0 0 0 0 0 5 2 1 0 0 0 107 131 80 51 20 114 161 222 239 233 503 636 883 692 690 602 566 531 566 469
0 0 0 0 0 0 0 0 0 0 0 0 0 0 0 0 0 0 31 41 0 23 5 1 0 117 113 0 2 36 124 94 207 232 213 293 400 682 906 1231 987 792 749 894
0 0 0 0 0 0 0 0 0 0 0 0 0 0 0 0 0 0 0 37 37 0 0 1 0 0 0 3 3 12 161 111 187 151 100 89 106 237 308 760 1074 1134 875 972
0 0 0 0 0 0 0 0 0 0 0 0 0 0 0 0 0 0 0 7 70 9 8 24 2 0 0 0 4 0 1 0 0 106 0 26 62 76 538 278 516 1122 1041 1090
0 0 0 0 0 0 0 0 0 0 0 0 0 0 0 0 0 0 0 0 13 34 0 11 15 0 0 0 0 0 0 0 0 0 0 0 1 41 63 384 603 714 1451 1216
0 0 0 0 0 0 0 0 0 0 0 0 0 0 0 0 0 0 0 0 0 17 7 0 0 3 4 0 0 0 0 1 0 0 0 0 0 0 4 3 438 1027 1515 1407
0 0 0 0 0 0 0 0 0 0 0 0 0 0 0 0 0 0 0 0 0 0 1 0 0 0 0 0 0 0 0 0 0 2 0 0 0 0 0 0 42 706 1357 1508

GFSCGP_con_mucape_087.txt.gz
CAPE
0 0 0 0 0 0 0 0 0 3 0 0 0 0 24 425 733 605 514 278 166 110 146 252 296 177 65 59 226 381 387 737 888 824 771 893 1110 1202 1307 1648 1622 1048 1712 1560
0 0 0 0 0 0 0 0 0 0 0 0 0 14 334 529 651 737 496 373 269 148 156 268 302 239 166 178 166 347 432 759 906 920 1016 1040 1154 1050 1409 1724 1727 1479 1529 1442
0 0 0 0 0 0 0 0 0 0 0 33 0 20 351 469 475 706 523 468 350 301 210 230 205 206 228 226 207 297 576 707 935 974 987 972 1000 1138 1418 1705 1781 1878 1895 1425
0 0 0 0 0 0 0 0 0 0 0 0 0 0 0 460 650 624 667 599 406 384 350 277 241 201 236 275 265 358 616 717 870 1011 1040 1237 1098 1025 1123 1602 1690 2040 1967 1842
0 0 0 0 0 0 0 0 0 0 0 0 0 0 0 224 355 658 690 721 550 397 411 299 288 213 212 283 280 383 659 772 915 951 1370 1259 1332 1186 1172 1486 2038 2157 2236 2020
0 0 0 0 0 0 0 0 0 0 0 0 0 0 0 0 0 0 279 665 536 452 402 283 232 233 235 283 291 334 645 1106 970 1019 1076 1322 1456 1408 1267 1411 1741 1680 1918 2161
0 0 0 0 0 0 0 0 0 0 0 0 0 0 0 0 0 0 0 233 592 518 443 426 212 154 220 290 288 352 1005 1233 901 947 1027 1050 1388 1519 1689 1826 1585 1660 1754 1878
0 0 0 0 0 0 0 0 0 0 0 0 0 0 0 0 0 0 4 107 241 482 526 408 370 242 211 298 356 378 842 1293 803 834 1449 1446 1380 1052 1110 1596 1301 1419 1501 1718
0 0 0 0 0 0 0 0 0 0 0 0 0 0 0 0 0 0 0 3 36 110 297 505 403 311 259 349 616 656 932 1285 1027 767 1438 1358 1140 1237 1115 1535 1557 1276 1671 1623
0 0 0 0 0 0 0 0 0 0 0 0 0 0 0 0 0 0 0 0 103 94 147 74 372 438 294 288 471 490 861 1051 1336 947 1015 909 910 944 1122 1089 1471 1528 1536 1773
0 0 0 0 0 0 0 0 0 0 0 0 0 0 0 0 0 0 0 0 49 285 329 276 85 355 413 192 333 458 561 620 661 743 1306 1364 936 692 741 672 1053 1456 1790 1949
0 0 0 0 0 0 0 0 0 0 0 0 0 0 0 0 0 0 0 0 58 222 543 462 37 23 552 515 214 417 435 454 528 995 1321 1038 1012 718 633 696 717 1014 1421 1871
0 0 0 0 0 0 0 0 0 0 0 0 0 0 0 0 0 0 0 0 10 156 339 594 629 470 338 600 399 285 393 445 487 570 731 1022 893 776 738 791 763 743 1264 1599
0 0 0 0 0 0 0 0 0 0 0 0 0 0 0 0 0 0 0 0 0 31 195 248 315 373 564 562 585 275 331 458 521 511 521 920 1188 1322 797 1104 1011 752 831 1229
0 0 0 0 0 0 0 0 0 0 0 0 0 0 0 0 0 0 0 0 0 0 0 28 227 294 323 412 651 357 284 496 528 644 574 693 1046 1038 1009 1352 1295 797 828 1052
0 0 0 0 0 0 0 0 0 0 0 0 0 0 0 0 0 0 0 0 0 4 0 0 0 127 363 260 387 569 464 348 578 696 655 796 723 705 949 897 1102 1089 960 867
0 0 0 0 0 0 0 0 0 0 0 0 0 0 0 0 0 0 0 0 0 2 0 0 0 0 90 208 322 301 651 567 533 736 789 811 840 714 790 536 875 947 1166 1136
0 0 0 0 0 0 0 0 0 0 0 0 0 0 0 0 0 0 0 0 0 0 1 5 0 0 0 80 202 593 235 371 411 622 636 628 832 868 741 806 661 979 748 1035
0 0 0 0 0 0 0 0 0 0 0 0 0 0 0 0 0 0 0 0 0 0 0 0 3 1 0 2 65 111 289 254 406 243 221 382 626 935 940 884 835 708 586 637
0 0 0 0 0 0 0 0 0 0 0 0 0 0 0 0 0 0 0 0 0 0 0 0 0 26 16 3 1 0 33 143 314 278 475 538 436 473 580 1147 1139 1053 776 664
0 0 0 0 0 0 0 0 0 0 0 0 0 0 0 0 0 0 0 0 0 1 2 0 0 0 8 0 0 13 0 6 14 68 248 273 437 424 615 595 587 957 1283 898
0 0 0 0 0 0 0 0 0 0 0 0 0 0 0 0 0 0 0 0 0 0 0 1 0 0 1 5 3 49 46 1 5 21 21 65 93 136 156 287 295 538 803 891
0 0 0 0 0 0 0 0 0 0 0 0 0 0 0 0 0 0 0 0 0 0 0 0 2 1 0 3 1 22 13 0 0 0 0 0 0 19 52 92 167 358 369 978
0 0 0 0 0 0 0 0 0 0 0 0 0 0 0 0 0 0 0 0 0 0 0 0 0 0 0 5 4 0 4 0 0 0 0 0 0 0 5 74 114 128 319 507
0 0 0 0 0 0 0 0 0 0 0 0 0 0 0 0 0 0 0 0 0 0 0 0 0 0 0 0 28 0 0 0 3 0 0 0 0 0 0 0 58 77 99 203
0 0 0 0 0 0 0 0 0 0 0 0 0 0 16 0 0 0 0 0 0 0 0 0 0 0 0 0 1 7 0 0 0 0 0 4 0 0 0 0 8 0 8 12

GFSCGP_con_mucape_090.txt.gz
CAPE
0 0 0 0 0 0 6 26 1 23 97 68 241 52 752 832 1057 877 683 435 140 4 13 185 245 115 0 11 161 474 673 1022 1157 1099 990 1147 1397 2057 1630 1656 1848 1327 1331 1397
0 0 0 0 0 0 0 0 21 0 0 0 0 77 73 604 676 1064 988 770 309 181 97 349 448 449 264 72 111 394 624 1106 1493 1265 1261 1134 1346 1739 1567 1794 1926 1774 1427 1442
0 0 0 0 0 0 0 4 1 0 0 0 0 5 143 333 548 818 1031 832 723 484 172 454 580 612 521 389 129 336 681 943 1411 1367 1672 2011 1832 1760 1814 2146 1833 1931 1789 1323
0 0 0 0 0 0 0 0 3 0 0 0 0 43 24 455 541 830 1085 1052 858 672 436 328 594 680 646 609 223 255 742 1011 1375 1657 1566 1821 1388 1158 1154 1698 1678 2056 2078 1968
0 0 0 0 0 0 4 0 0 0 0 0 0 0 19 46 333 666 907 1118 979 833 675 464 572 631 604 653 620 330 788 1237 1249 1653 1899 1805 1918 1021 1355 1361 2553 2092 2461 2084
0 0 0 0 1 0 0 0 0 0 0 0 0 0 2 9 0 16 83 1002 1191 973 915 755 580 550 660 718 752 695 907 1687 1608 1638 2006 2047 1730 1407 1044 1496 1477 3334 2040 2054
0 0 0 0 8 0 0 0 0 0 0 0 0 0 8 0 14 83 4 236 1089 1221 981 1005 884 759 737 829 884 898 1097 1634 1939 1690 1791 2029 2175 2058 1758 2050 1331 2762 2634 1534
0 0 0 0 0 0 0 0 0 0 0 0 0 0 0 0 7 67 162 300 511 1085 1085 1028 1046 882 866 891 1008 1093 1186 1638 1823 1764 1938 2086 2238 1910 1645 1345 1050 1336 1272 1586
0 0 0 0 0 0 0 1 0 0 0 0 0 0 0 0 0 83 182 389 382 611 1010 1097 1100 1068 919 902 1083 1300 1402 1824 1882 1693 1960 2128 2249 2168 1505 1309 1500 1236 1461 1670
0 0 0 0 0 0 0 0 0 0 0 0 0 0 0 0 0 30 61 197 571 687 602 573 840 1130 1147 980 986 1217 1403 1682 1878 1748 1717 1840 2044 2160 2056 1706 1620 1320 1195 1573
0 0 0 0 0 0 0 0 0 0 0 0 0 0 0 0 0 0 52 165 639 786 985 805 275 490 1009 1142 968 960 1248 1500 1737 1745 1766 1758 1799 1882 1968 1755 1572 1629 1611 1706
0 1 0 0 0 0 0 0 0 1 0 0 14 0 0 0 1 0 43 325 427 310 364 428 984 663 528 838 1020 864 995 1174 1439 1626 1802 1821 1881 1840 1737 1770 1366 1381 1508 1794
0 0 0 0 0 0 0 0 0 0 0 5 0 0 0 0 3 0 3 72 36 202 159 297 361 131 655 978 1352 1032 815 1039 1181 1447 1503 1731 1851 1869 1780 1725 1693 1438 1467 1559
0 0 0 0 0 0 0 0 0 0 0 5 1 0 0 0 1 3 3 7 0 0 64 111 190 278 382 195 553 1219 896 879 1041 1181 1326 1599 1779 1885 1798 1754 1771 1736 1629 1621
0 0 0 0 0 0 0 0 0 0 0 0 3 0 6 1 0 0 3 5 0 0 0 18 81 182 205 284 450 537 1232 857 981 1067 1266 1440 1636 1767 1817 1820 1738 1772 1749 1649
0 0 0 0 0 0 0 0 0 0 0 0 0 0 0 0 0 0 0 0 0 0 0 0 0 48 116 173 222 366 374 1102 1014 1147 1113 1393 1480 1648 1871 1914 1876 1824 1795 1766
0 0 0 0 0 0 0 0 0 0 0 0 0 0 0 0 0 0 0 0 0 0 0 0 0 0 13 84 192 203 263 428 970 1072 1206 1201 1381 1546 1653 1668 1805 1885 1838 1814
0 0 0 0 0 0 0 0 0 0 0 0 0 0 0 0 0 0 0 0 0 0 0 0 0 0 0 0 0 120 337 251 328 432 977 1135 1190 1427 1623 1479 1624 1615 1594 1737
0 0 0 0 0 0 0 0 0 0 0 0 0 0 0 0 0 0 0 0 0 0 0 0 0 0 0 0 0 3 146 244 280 249 210 312 917 1271 1458 1451 1407 1829 1736 1453
0 0 0 0 0 0 0 0 0 0 0 0 0 0 0 0 0 16 0 0 0 0 0 0 0 0 0 0 4 0 0 5 182 218 280 234 289 358 787 1333 1987 1778 1667 1467
5 3 2 3 0 0 0 0 0 0 0 0 0 0 0 0 0 0 0 0 0 0 0 0 0 0 0 0 0 9 14 4 0 0 95 177 292 168 170 342 482 919 2091 2319
14 25 13 15 6 0 0 0 0 0 0 0 0 0 0 0 0 0 0 0 0 0 0 0 0 0 0 0 0 0 6 6 2 0 0 12 154 231 95 233 548 795 1023 1603
9 5 25 4 22 0 0 0 0 0 0 0 0 0 0 0 0 0 0 0 0 0 0 0 0 0 0 0 0 0 0 5 0 0 0 0 0 0 33 79 124 327 440 966
0 0 4 0 0 0 0 0 0 0 0 0 0 0 0 0 0 0 0 0 0 0 0 0 0 0 0 2 3 2 0 0 6 0 0 0 0 0 0 0 0 18 63 81
1 1 0 0 0 0 0 0 0 0 0 0 0 0 0 0 0 0 0 0 0 0 0 0 0 0 0 25 16 9 8 0 6 5 3 0 0 0 0 0 0 0 0 29
0 0 1 20 0 0 0 0 0 0 0 0 0 1 4 5 0 0 0 0 0 0 0 0 0 0 0 1 30 34 24 20 26 0 0 6 4 0 0 0 0 0 0 0

GFSCGP_con_mucape_096.txt.gz
CAPE
0 0 0 0 0 0 0 3 202 63 9 264 154 9 538 852 545 355 193 22 20 22 37 9 18 32 8 470 763 1380 2110 2297 2077 2040 1740 2701 2121 2462 2216 921 1686 2388 2940 2570
0 0 0 0 0 0 0 2 196 35 26 284 139 135 459 944 840 555 233 161 173 136 61 15 25 18 19 538 808 1412 2284 2212 2411 1881 2741 2538 1567 1952 2113 787 1540 2703 2427 2874
0 0 0 0 0 0 0 0 172 41 15 282 474 196 119 974 795 916 731 452 246 205 150 2 12 10 21 409 778 1275 2296 2060 2294 2508 2948 1157 715 562 1894 2013 2705 2526 2751 2382
0 0 0 0 0 0 0 0 15 197 163 43 95 344 893 1046 530 371 741 831 700 423 333 13 10 9 17 192 531 1306 2116 2112 2020 2710 2766 2305 1542 908 1529 2152 2484 2228 2260 2603
0 0 0 0 0 0 0 0 84 85 70 15 23 271 377 370 578 2 54 944 604 206 17 45 22 26 19 73 167 1002 1630 2334 2296 2770 2477 2231 2195 1323 683 1705 667 2006 3549 2780
0 0 0 0 0 0 0 1 0 42 30 0 15 16 226 356 68 253 550 924 566 469 95 116 120 295 241 70 37 779 1484 2078 2822 2533 2826 2804 1017 520 1085 1488 1395 2217 2334 2807
0 0 0 0 0 0 0 3 11 60 23 0 11 42 188 39 4 118 633 894 401 84 217 271 378 397 308 70 0 713 1561 1964 2421 2437 2460 2845 2251 2251 837 1132 1087 2146 2152 1399
0 8 0 0 0 2 0 27 25 31 5 1 10 244 87 71 145 69 425 547 697 233 175 405 576 764 475 514 110 617 1609 2134 2034 2393 2550 2894 3203 2244 1884 1445 2461 2131 2115 1504
68 41 0 0 0 23 37 36 46 17 0 23 286 208 23 23 142 303 1120 1083 686 749 633 110 361 821 577 602 667 699 1552 2037 2215 2155 2666 3117 3074 3219 2581 3061 3419 2195 2678 961
28 18 12 0 0 0 14 41 42 76 81 122 432 179 178 106 719 899 823 840 818 706 782 353 327 385 372 318 410 1598 1843 2236 2195 2186 2421 2615 2913 3028 3154 3627 3206 2658 2594 911
18 0 0 0 0 0 16 0 0 25 71 86 440 231 246 375 764 641 354 426 255 289 371 442 412 238 39 619 826 1395 2247 2762 2809 2725 2702 2481 2709 2927 3091 3095 3078 3057 2914 2251
19 28 12 0 0 0 0 20 26 63 34 50 167 182 101 392 545 252 150 175 194 379 265 261 216 245 309 564 150 664 697 1694 2530 2640 3038 2941 2879 2738 2873 2907 3082 3032 3135 2848
1 10 50 2 0 0 0 0 0 33 84 154 64 168 189 366 227 152 36 89 188 145 198 109 144 213 241 166 279 306 367 642 645 2001 2681 2483 2851 2795 2776 3069 3090 3228 3088 3141
1 0 31 9 18 0 0 0 0 0 43 46 61 112 323 171 63 88 55 8 0 0 0 0 15 68 167 237 275 306 289 384 995 524 1110 2057 2528 2579 2801 3002 3165 3255 3405 3110
3 4 6 7 2 0 0 0 0 0 0 301 244 581 298 246 28 2 3 5 0 0 0 0 0 2 27 82 153 115 185 181 286 325 366 660 1077 1970 2675 3122 3455 3202 3280 3283
0 16 23 6 0 0 0 0 4 0 3 258 215 338 95 38 22 49 5 10 1 0 0 0 0 0 0 1 31 49 56 119 153 379 444 391 513 670 2121 2379 2830 3216 3350 3318
5 14 63 0 0 0 0 0 0 0 0 463 259 78 159 62 19 1 4 2 0 0 0 0 0 0 0 0 0 13 76 79 41 247 442 541 536 583 331 1667 2205 2675 2891 3045
55 64 59 77 34 0 0 0 0 0 1 249 282 113 34 23 0 1 0 0 0 0 0 0 0 0 0 0 0 0 0 11 90 85 76 165 406 522 582 814 991 1734 2094 2255
0 3 32 44 0 3 1 0 0 0 33 30 63 10 3 0 0 0 0 0 0 0 0 0 0 0 0 0 0 0 0 0 0 1 23 38 77 233 490 483 515 830 1138 1708
0 0 3 9 23 0 2 0 0 0 64 0 0 0 0 0 4 0 0 0 0 0 0 0 0 0 0 0 0 0 0 0 0 0 0 0 0 36 325 594 406 583 834 1527
0 0 0 4 51 151 0 0 0 0 104 3 0 0 0 0 0 0 0 0 0 0 0 0 0 0 0 0 0 0 0 0 0 0 0 0 0 0 0 0 30 175 565 850
34 13 7 3 55 131 0 0 0 3 5 0 0 0 0 0 0 0 0 0 0 0 0 0 0 0 0 0 0 0 5 8 8 8 0 8 2 0 0 0 0 0 53 294
156 45 210 107 304 23 2 1 0 0 0 0 0 0 0 0 0 0 0 0 0 0 0 0 0 0 0 0 0 0 4 2 10 4 19 2 15 3 0 0 0 0 0 196
6 3 113 117 157 49 0 0 0 0 0 0 0 0 0 0 0 0 0 0 0 0 0 0 0 0 0 3 5 20 20 18 27 20 19 17 1 13 1 0 0 0 0 0
137 29 6 32 26 3 4 0 0 0 0 0 0 0 0 0 0 0 0 0 0 0 0 0 0 0 2 4 7 3 14 23 11 17 14 12 11 0 11 3 0 0 0 0
48 20 228 71 32 42 20 1 0 0 0 0 0 0 0 0 0 0 0 0 0 0 0 0 0 0 0 0 0 21 2 20 2 7 12 4 0 1 7 17 8 0 0 0

GFSCGP_con_mucape_099.txt.gz
CAPE
0 0 0 0 0 0 0 4 35 61 404 327 201 191 487 397 116 23 4 0 5 4 9 23 12 0 134 241 13 576 370 813 275 667 876 878 957 512 714 749 751 1017 1159 1331
0 0 0 0 0 0 0 0 127 147 113 157 45 276 611 644 262 94 7 0 1 2 4 11 11 3 7 173 189 565 799 582 259 513 1197 1077 990 889 746 603 813 1109 1233 1392
0 0 0 0 0 0 0 0 81 176 139 160 99 63 170 474 457 120 31 20 6 7 11 7 2 0 10 153 412 918 698 810 940 671 759 607 707 592 612 316 850 1377 1442 1335
0 0 0 0 0 0 0 0 0 160 58 294 453 20 12 389 550 286 61 39 21 27 32 12 6 0 65 120 410 1086 883 584 710 1425 752 500 364 236 498 805 1047 1519 1460 1201
0 0 0 0 0 0 0 0 136 162 55 76 25 118 74 278 357 454 569 197 92 54 42 4 13 0 118 145 271 983 870 621 497 1314 1044 479 497 449 814 1242 1117 1262 1387 1298
0 0 0 0 0 0 0 0 121 178 79 26 4 40 72 80 257 239 499 634 403 244 23 13 10 0 70 123 220 545 1231 858 772 1159 1111 846 601 600 629 875 326 804 1019 1188
0 0 0 0 0 0 0 4 0 26 35 19 0 80 320 253 253 33 24 58 442 336 234 89 12 6 0 52 263 419 1076 1160 980 1291 1020 1241 564 194 501 362 220 734 804 1218
0 0 0 0 0 0 0 0 0 39 23 20 89 232 122 140 153 72 16 37 298 288 124 109 96 43 18 36 215 422 687 1039 934 1706 1550 1828 1080 689 607 486 429 740 987 1018
4 0 0 0 0 0 0 0 0 2 20 8 258 217 147 45 1 216 28 144 339 356 257 290 169 138 160 125 119 395 657 749 889 1889 1468 1718 1662 735 728 183 948 1204 1480 1202
2 0 0 0 0 0 0 2 15 7 45 47 368 224 214 285 696 752 700 667 591 512 206 234 211 256 199 408 385 317 748 833 958 1079 1643 1913 1873 1901 1631 1102 1416 1198 1017 1036
1 24 0 0 0 0 0 0 0 2 4 28 197 107 285 579 489 295 689 618 584 412 211 127 110 178 106 163 256 320 488 924 1393 1112 1611 1855 1950 1918 1600 2089 1699 1628 1032 846
0 15 0 0 0 0 2 25 7 10 0 230 109 87 428 412 285 217 200 270 172 321 211 187 226 193 69 50 33 101 268 620 833 1131 1592 1901 2170 2160 1986 1814 1866 1859 1080 891
0 19 13 13 0 0 0 80 17 9 47 79 10 20 402 166 74 129 92 143 140 122 132 257 228 149 186 15 12 70 45 510 404 441 594 1147 2029 2289 1891 1947 2172 2007 1521 1147
14 29 9 0 0 0 0 0 65 16 65 77 137 482 374 181 236 62 29 40 79 107 98 92 110 164 181 83 122 181 207 465 206 297 324 447 637 1171 1929 2039 2331 2592 2109 2092
26 27 24 0 0 0 0 0 4 19 164 94 13 313 272 126 41 44 32 24 38 45 40 52 34 77 94 65 130 336 203 226 168 90 86 576 617 616 539 1342 2034 2194 2736 2185
0 0 4 22 0 0 0 0 0 3 251 135 338 264 194 77 42 43 38 0 0 0 0 0 0 0 33 41 101 108 118 136 284 338 403 440 217 75 132 343 825 1312 1732 2226
0 11 25 17 34 18 0 0 0 343 545 432 169 186 106 139 18 44 47 0 0 0 0 0 0 0 0 0 0 47 114 156 120 235 436 420 312 190 303 384 733 1041 1221 1322
0 5 2 14 0 0 0 0 0 74 314 252 208 213 111 35 31 36 36 0 0 0 0 0 0 0 0 0 0 0 0 4 69 156 186 256 468 456 474 305 451 638 692 948
0 0 0 2 1 0 0 0 0 126 326 214 157 101 55 80 25 9 0 0 0 0 0 0 0 0 0 0 0 0 0 0 0 1 32 111 175 251 460 578 568 577 538 635
0 0 0 6 5 0 0 0 0 21 0 170 20 10 0 0 2 10 0 0 0 0 0 0 0 0 0 0 0 0 0 0 0 0 0 0 19 49 97 195 266 439 391 388
0 0 0 0 8 27 0 0 0 0 0 78 80 107 0 0 0 0 0 0 0 0 0 0 0 0 0 0 0 0 0 0 0 0 0 0 0 0 0 0 0 10 30 83
58 0 1 0 1 24 0 0 0 1 4 15 6 0 0 0 0 0 0 0 0 0 0 0 0 0 0 0 0 0 0 0 0 0 0 0 0 0 0 0 0 0 0 0
25 33 51 69 64 0 0 0 0 0 0 9 4 0 0 0 0 0 0 0 0 0 0 0 0 0 0 0 0 0 0 0 0 0 0 0 0 0 0 0 0 0 0 0
13 8 23 55 82 18 1 0 0 0 0 0 0 0 0 0 0 0 0 0 0 0 0 0 0 0 0 0 0 0 0 0 0 0 0 0 0 0 0 0 0 0 0 0
159 28 9 26 33 5 14 0 0 0 0 0 0 0 0 0 0 0 0 0 0 0 0 0 0 0 0 0 0 0 0 0 0 0 0 0 0 0 0 0 0 0 0 0
91 134 62 43 134 47 7 2 0 0 0 0 0 0 0 0 0 0 0 0 0 0 0 0 0 0 0 0 0 0 0 0 0 0 0 0 0 0 0 0 0 0 0 0

GFSCGP_con_mucape_102.txt.gz
CAPE
0 0 0 0 0 0 7 41 144 349 212 114 51 31 13 17 144 333 2 0 8 33 47 98 265 370 263 166 115 124 518 279 337 705 778 621 363 185 146 424 901 1150 1088 1228
0 0 0 0 0 0 13 34 166 150 115 149 163 183 290 190 238 169 0 0 0 31 37 30 148 231 133 230 248 272 478 281 134 652 766 841 742 524 458 591 728 922 1083 983
0 0 0 0 0 0 4 4 134 136 56 71 128 59 136 157 188 52 6 11 6 15 31 53 75 123 36 177 322 360 453 299 120 602 869 1004 946 724 614 673 830 1012 1064 1094
0 0 0 0 0 0 0 4 51 158 150 160 118 0 0 40 126 111 71 8 0 2 30 58 82 148 105 272 356 446 490 298 443 653 635 748 668 623 625 673 779 1066 1211 1225
0 0 0 0 0 0 12 19 2 126 130 194 135 2 0 2 149 265 231 43 11 12 11 54 80 113 149 326 475 390 402 386 831 1162 757 588 520 413 747 889 790 1271 1313 1101
0 0 0 0 0 0 3 37 183 113 86 14 0 20 18 32 236 334 270 78 119 63 50 47 62 131 162 286 624 372 349 321 405 929 1250 622 316 432 910 1031 999 1213 1137 1178
0 0 0 0 0 0 19 13 22 69 39 3 0 1 13 110 334 447 506 429 300 243 108 44 67 181 219 223 482 771 409 337 370 728 1118 793 469 569 763 919 962 1061 1138 1063
0 0 0 0 0 0 10 0 0 0 3 14 17 10 97 69 319 405 335 447 377 348 337 57 32 94 216 184 347 838 667 475 581 930 1000 993 852 433 488 875 754 440 701 881
0 0 0 0 0 0 4 0 0 0 0 20 124 67 346 127 111 335 208 305 317 464 229 103 66 283 372 316 403 448 916 673 751 1015 1136 1079 929 603 598 610 536 356 683 920
0 0 0 0 0 0 1 0 3 3 10 28 149 105 64 149 639 538 132 219 237 345 206 217 200 179 197 236 332 441 637 742 792 874 1327 1157 1408 1031 643 604 507 794 952 1169
0 0 0 0 0 0 0 0 8 0 0 12 128 88 489 559 556 503 509 371 239 234 239 198 206 250 167 143 203 303 460 782 872 795 1207 1388 1381 1561 1309 929 905 751 1268 1165
0 0 0 0 0 0 0 0 18 20 4 87 118 171 693 567 561 612 346 445 213 113 150 153 130 151 282 94 96 111 151 337 542 705 956 1226 1374 1425 1337 1405 1600 1505 1023 927
0 1 2 5 1 0 0 0 40 32 20 8 4 144 461 274 258 223 314 331 251 250 159 165 128 61 140 95 8 61 71 73 154 295 366 457 771 1090 1515 1490 1250 1497 1232 950
3 0 17 8 1 0 0 0 25 52 47 19 81 255 456 137 64 47 84 218 138 104 158 117 118 88 49 78 124 68 105 293 149 174 204 243 273 410 622 1052 1333 1414 1560 1170
0 1 18 26 3 0 0 0 5 65 80 38 227 231 340 140 49 10 33 91 104 74 101 127 102 150 76 157 162 165 159 201 190 96 99 179 95 210 290 337 602 1255 1270 1424
0 1 39 34 6 0 0 0 1 65 271 185 300 251 157 47 22 9 14 47 80 10 5 21 136 183 332 149 175 199 206 232 202 205 151 335 319 61 27 104 187 503 1014 1251
0 0 12 50 11 14 2 0 123 221 218 291 220 165 99 54 31 26 29 2 4 22 11 5 35 102 154 153 207 253 393 410 417 387 363 259 210 186 249 92 108 273 634 816
0 0 0 5 0 23 5 0 119 433 326 245 223 211 126 58 98 86 61 14 0 0 0 0 0 0 0 0 21 89 182 224 334 406 397 348 275 220 202 243 218 337 497 603
0 0 0 0 0 24 1 4 111 213 287 334 262 235 187 50 60 94 70 41 0 0 0 0 0 0 0 0 0 0 0 7 75 177 264 366 479 515 324 398 496 304 421 371
0 0 0 0 0 27 28 0 29 38 269 226 171 294 246 193 125 29 97 14 0 0 0 0 0 0 0 0 0 0 0 0 0 0 32 24 101 181 271 275 403 482 410 386
0 0 0 0 0 0 0 4 0 0 0 223 189 307 332 208 106 112 95 7 0 0 0 0 0 0 0 0 0 0 0 0 0 0 0 0 0 0 0 44 84 126 60 83
3 1 0 0 0 0 0 0 0 0 0 228 162 66 49 29 14 23 20 19 33 0 0 0 0 0 0 0 0 0 0 0 0 0 0 0 0 0 0 0 0 0 0 0
11 0 0 0 0 0 0 0 0 0 0 165 144 62 50 29 0 0 0 0 0 0 0 0 0 0 0 0 0 0 0 0 0 0 0 0 0 0 0 0 0 0 0 0
0 0 0 0 0 0 0 0 1 1 4 55 60 43 26 0 0 0 0 0 0 0 0 0 0 0 0 0 0 0 0 0 0 0 0 0 0 0 0 0 0 0 0 0
0 0 0 0 0 0 0 0 0 11 4 0 12 14 5 0 0 0 0 0 0 0 0 0 0 0 0 0 0 0 0 0 0 0 0 0 0 0 0 0 0 0 0 0
8 9 0 0 0 0 0 1 0 0 1 9 6 0 0 0 0 0 0 0 0 0 0 0 0 0 0 0 0 0 0 0 0 0 0 0 0 0 0 0 0 0 0 0

GFSCGP_con_mucape_105.txt.gz
CAPE
0 0 0 22 24 8 2 9 303 268 195 37 0 33 34 65 107 247 300 13 12 18 53 132 191 351 375 359 359 568 320 320 708 621 550 431 424 314 215 686 825 913 949 1115
0 0 0 0 2 6 5 12 201 213 188 75 2 19 56 74 130 168 267 2 4 26 103 128 215 337 341 404 470 579 370 429 754 715 621 474 370 236 208 390 747 972 994 967
0 0 0 0 0 0 0 38 230 163 77 138 93 56 60 58 111 179 279 23 6 35 94 164 266 324 363 267 357 484 463 243 441 619 677 704 557 524 372 451 675 772 968 867
0 0 0 0 0 0 0 45 95 183 47 5 89 0 79 127 167 235 133 45 35 33 83 152 272 326 295 184 191 189 298 236 109 640 753 750 779 570 552 585 692 772 988 1022
0 0 0 0 0 0 6 40 73 190 144 113 156 6 0 163 177 185 161 48 23 24 79 142 253 313 201 214 235 256 332 258 250 500 552 736 738 555 488 541 579 779 1018 1052
0 0 0 0 0 0 17 65 73 181 140 97 69 37 1 158 142 131 124 71 34 35 38 81 151 162 123 325 257 317 332 227 413 473 506 508 510 473 624 644 435 766 1051 1092
0 0 0 0 0 0 2 72 91 75 90 34 20 17 9 46 92 143 142 108 18 28 43 60 78 96 97 347 279 290 309 256 448 938 1022 829 539 309 457 811 719 767 1058 1085
0 0 0 0 0 0 0 3 3 15 1 17 4 3 2 72 52 178 299 192 271 211 44 39 36 98 121 266 409 296 302 267 264 565 774 914 698 375 390 652 748 895 952 976
0 0 0 0 0 0 0 0 0 0 0 14 14 36 153 157 271 384 365 235 365 190 121 68 42 143 143 193 380 657 361 286 243 378 608 908 901 667 384 441 820 625 360 844
0 0 0 0 0 0 0 0 0 0 0 1 43 77 93 336 356 379 350 262 236 180 145 190 238 123 209 281 343 493 731 512 404 507 656 857 872 792 615 524 595 630 408 488
0 0 0 0 0 0 0 0 0 0 0 8 76 61 844 600 571 437 200 256 318 230 167 154 156 116 211 289 347 370 528 475 638 652 718 1024 1073 1064 867 669 562 495 658 691
0 0 0 0 0 0 0 0 0 0 0 58 70 37 506 541 913 693 204 191 141 204 261 208 185 238 164 220 126 104 177 188 414 600 766 764 948 1039 1033 1114 951 1011 1462 1201
0 0 0 7 0 0 0 0 0 0 0 23 12 61 469 363 588 642 287 515 181 115 138 156 170 260 150 160 123 103 117 102 118 196 377 507 369 409 579 744 850 902 1212 1195
5 0 14 14 2 0 0 0 0 0 7 3 8 272 364 406 411 235 202 363 102 64 105 130 86 98 217 199 80 71 58 62 76 134 166 152 228 144 241 333 472 788 969 1086
13 12 25 36 13 2 0 0 0 0 4 6 101 204 332 383 415 309 75 43 39 74 100 94 102 123 106 114 113 104 178 187 94 54 54 68 125 149 113 167 332 375 531 973
3 12 17 34 23 11 0 0 5 55 191 105 242 409 219 263 234 136 58 14 34 65 101 114 110 213 310 189 158 224 147 197 148 113 115 181 180 109 75 18 193 178 277 614
1 8 18 26 12 11 0 2 4 156 200 304 254 281 332 277 220 140 184 71 69 30 14 32 111 164 204 241 331 297 287 123 110 116 208 248 288 263 178 139 47 99 211 378
0 0 0 22 23 24 2 196 307 285 356 333 299 269 251 173 157 118 119 107 40 31 32 115 216 174 249 243 360 313 621 324 157 176 126 225 278 261 215 209 173 165 136 170
0 0 0 1 3 3 23 4 52 76 203 232 244 264 272 164 123 127 92 69 28 21 0 0 12 35 25 64 125 238 303 340 388 252 201 168 176 240 237 233 220 196 132 174
0 0 0 0 0 0 2 0 0 131 151 280 220 212 192 149 106 89 93 89 34 0 0 0 0 0 0 0 0 0 0 0 35 77 157 201 223 342 360 330 275 235 208 131
0 0 0 0 0 0 0 0 0 0 0 243 259 248 246 226 170 147 170 85 0 0 0 0 0 0 0 0 0 0 0 0 0 0 0 0 0 3 151 230 291 163 82 152
0 0 0 0 0 0 0 0 0 0 0 236 267 275 265 229 165 125 111 92 8 0 0 0 0 0 0 0 0 0 0 0 0 0 0 0 0 0 0 0 0 34 48 66
0 0 0 0 0 0 0 0 0 0 159 302 243 273 172 221 169 92 53 17 22 12 3 0 0 0 0 0 0 0 0 0 0 0 0 0 0 0 0 0 0 0 0 0
0 0 0 0 0 0 0 0 0 0 0 295 268 185 202 154 64 52 56 16 0 0 0 0 0 0 0 0 0 0 0 0 0 0 0 0 0 0 0 0 0 0 0 0
0 0 0 0 0 0 0 0 0 0 0 60 102 180 139 72 66 38 9 1 0 0 0 0 0 0 0 0 0 0 0 0 0 0 0 0 0 0 0 0 0 0 0 0
0 0 0 0 13 11 0 0 0 1 1 9 33 49 63 41 30 17 1 0 0 0 0 0 0 0 0 0 0 0 0 0 0 0 0 0 0 0 0 0 0 0 0 0

GFSCGP_con_mucape_108.txt.gz
CAPE
0 0 0 20 10 0 0 159 205 268 202 118 0 21 60 82 125 159 1 18 25 67 86 99 157 297 306 327 368 264 357 376 415 436 378 323 347 335 311 581 719 724 785 967
0 0 0 13 22 11 14 143 209 238 242 85 25 17 88 101 148 171 172 0 2 56 72 118 200 326 333 355 273 450 357 342 407 435 359 326 332 297 249 404 677 837 816 901
0 0 0 0 19 12 7 42 213 145 192 61 32 50 110 140 104 145 193 17 0 38 119 161 203 332 355 323 253 404 227 229 439 540 431 441 332 355 240 239 633 841 893 842
0 0 0 0 1 6 4 0 224 237 54 11 10 0 55 97 105 106 134 122 9 17 114 149 190 300 335 286 275 372 232 202 506 555 526 477 462 443 339 248 563 669 868 889
0 0 0 0 0 0 0 0 191 109 30 30 122 4 18 81 87 68 96 88 9 31 78 130 157 279 296 285 298 313 375 279 280 441 504 497 508 427 406 409 552 643 826 944
0 0 0 0 0 0 0 42 203 118 81 24 41 22 1 85 73 42 27 51 32 12 49 92 149 245 312 336 239 217 293 269 116 259 476 481 448 438 370 416 444 615 839 938
0 0 0 0 0 0 0 32 81 39 28 0 3 0 0 11 80 80 34 75 113 57 19 55 140 219 280 347 198 148 116 150 161 224 319 369 490 415 352 471 423 418 804 930
0 0 0 0 0 0 0 0 1 3 0 8 13 30 9 29 22 75 17 81 159 79 19 31 161 214 252 269 253 239 229 181 171 350 431 447 383 397 251 335 652 526 643 836
0 0 0 0 0 0 0 0 0 2 0 0 5 1 49 76 71 86 141 147 138 85 43 49 127 198 118 309 365 271 270 261 184 424 722 774 646 539 361 330 537 625 731 818
0 0 0 0 0 0 0 0 0 0 0 0 0 25 22 114 259 266 255 342 163 121 58 54 47 128 266 207 270 497 298 266 258 219 255 468 670 578 545 304 362 499 377 330
0 0 0 0 0 0 0 0 0 0 0 0 5 10 207 108 248 373 334 317 210 145 92 62 84 106 148 156 182 280 435 477 398 316 431 547 737 679 468 492 459 383 340 431
0 0 0 0 0 0 0 0 0 0 0 20 1 33 421 428 521 340 332 549 201 109 181 224 117 138 174 174 203 235 204 163 287 441 595 606 703 769 763 782 778 621 546 674
1 0 0 0 0 0 0 0 0 0 72 94 10 45 426 772 684 281 300 524 261 162 108 164 220 265 208 247 205 183 59 99 184 211 387 502 483 463 447 563 568 636 689 742
1 0 2 5 0 0 0 0 0 0 0 30 6 194 534 334 549 557 488 233 150 238 171 206 225 269 211 253 129 57 37 75 109 77 81 197 197 144 158 158 222 357 508 786
2 7 19 32 31 0 0 0 0 0 0 4 17 261 519 350 652 593 799 463 207 139 159 141 140 232 241 178 195 121 47 67 43 52 60 73 78 107 79 40 84 235 262 416
1 16 40 62 54 34 4 0 0 96 1 99 196 312 809 733 605 593 446 418 457 255 140 119 51 56 78 142 82 44 133 152 164 54 43 82 214 89 65 71 48 0 194 219
7 0 0 13 25 55 23 63 49 87 160 335 298 336 786 680 637 411 172 126 87 86 98 160 136 268 167 104 98 127 102 213 118 70 14 24 105 170 163 113 66 32 183 228
1 9 2 0 1 8 2 122 94 266 320 369 385 489 824 744 485 273 120 125 92 89 70 47 125 335 298 235 184 251 180 99 142 65 64 90 107 130 93 52 128 119 91 86
0 0 0 3 2 0 0 37 41 77 96 238 420 311 257 272 252 152 154 130 158 75 58 65 83 116 118 251 222 249 258 194 91 93 85 56 65 90 94 115 110 65 83 75
0 0 0 0 0 0 0 0 8 2 31 167 299 198 186 239 145 166 235 186 111 73 30 165 129 78 38 86 154 219 168 134 182 208 132 140 150 129 154 197 184 119 92 83
0 0 0 0 0 0 0 0 0 0 0 283 239 221 220 162 118 145 89 71 78 7 0 0 0 0 0 0 0 0 0 0 0 0 0 0 14 42 56 127 234 220 258 198
0 0 0 0 0 0 0 0 0 0 0 236 263 234 331 206 128 86 113 70 0 2 0 0 0 0 0 0 0 0 0 0 0 0 0 0 0 0 0 0 0 9 46 82
0 0 0 0 0 0 0 0 0 0 0 16 246 340 305 228 190 128 138 49 14 0 0 0 0 0 0 0 0 0 0 0 0 0 0 0 0 0 0 0 0 0 0 0
0 0 0 0 0 0 0 0 0 0 0 28 154 299 262 235 198 135 109 116 41 3 0 0 0 0 0 0 0 0 0 0 0 0 0 0 0 0 0 0 0 0 0 0
0 0 0 0 0 0 0 0 0 0 2 16 110 157 228 197 183 133 33 24 8 0 0 0 0 0 0 0 0 0 0 0 0 0 0 0 0 0 0 0 0 0 0 0
0 0 0 0 0 0 0 0 0 0 0 73 71 77 128 173 131 24 4 32 8 0 0 0 0 0 0 0 0 0 0 0 0 0 0 0 0 0 0 0 0 0 0 0

GFSCGP_con_mucape_111.txt.gz
CAPE
0 0 0 9 21 5 2 4 308 237 207 220 71 14 37 133 137 143 159 159 176 206 253 277 334 389 490 649 836 920 854 1097 1069 1106 1090 872 952 1099 1083 1520 1742 1773 1557 1820
0 0 0 14 17 3 401 343 347 315 135 114 38 92 91 144 176 110 146 179 213 255 259 302 338 452 554 734 870 938 824 942 1209 1202 1241 1034 871 800 895 1226 1682 1711 1793 1963
0 0 0 1 18 2 4 35 332 303 196 111 162 125 205 194 175 199 133 116 169 241 253 341 380 521 579 725 859 892 1002 1068 1246 1151 1227 1148 1117 1092 660 915 1569 1697 1823 1790
0 0 0 0 16 16 19 8 336 245 79 146 0 14 74 239 213 166 130 92 21 163 276 357 420 567 612 711 770 830 1028 1016 1133 1329 1241 1341 2058 1409 1304 944 1439 1602 1832 1798
0 0 0 0 0 20 43 6 359 186 152 77 12 16 0 126 218 138 154 140 39 84 194 299 419 559 571 697 667 704 940 811 1015 1318 1429 2267 1827 2085 1178 1094 1640 1815 2007 1942
0 0 0 0 0 1 6 230 219 144 163 0 0 12 31 168 79 159 141 159 157 16 123 242 392 526 517 653 631 613 955 852 885 1243 1364 1422 1310 1478 1328 1317 1917 2395 2364 2463
0 0 0 0 0 0 0 11 34 39 40 0 5 65 13 116 127 150 129 182 136 111 109 246 376 513 550 515 597 631 887 1108 856 892 1146 1313 1314 1281 1518 1758 1342 1358 1767 2115
0 0 0 0 0 0 21 0 0 0 0 2 52 78 65 125 79 204 146 97 116 123 120 242 431 512 403 531 390 642 747 1000 912 820 1017 1134 1209 1070 1138 1540 1465 1177 1599 2621
0 0 0 0 0 0 0 0 0 2 0 14 103 71 111 247 133 233 215 116 81 100 173 238 396 410 425 649 564 680 774 824 853 926 1355 1283 1235 1082 1012 1076 1388 1392 1471 1586
0 0 0 0 0 0 0 0 0 0 7 0 71 107 219 342 401 187 281 213 193 154 194 255 498 434 485 639 486 780 782 913 793 931 1193 1501 1537 1277 1174 1091 1251 1143 1145 1223
0 0 0 0 0 0 0 0 0 0 0 4 90 163 225 382 534 550 491 384 324 163 278 585 411 265 299 543 395 641 941 930 798 777 946 1098 1341 1454 1339 1251 1211 1094 1144 1284
0 0 0 0 0 0 0 0 0 0 15 60 127 289 507 728 599 681 663 577 363 271 347 332 263 530 558 323 244 510 789 916 1046 1015 1173 1214 1501 1605 1484 1467 1416 1246 1027 1257
0 2 5 0 0 0 0 0 0 16 97 255 77 182 677 846 676 672 599 440 355 405 351 341 219 341 472 227 144 104 459 719 755 890 1195 1333 1367 1636 1711 1753 1702 1697 1802 1800
22 8 17 15 0 0 0 0 0 0 12 103 91 376 683 722 934 592 529 829 435 267 261 345 507 526 468 147 132 85 82 83 190 228 368 664 717 791 949 1240 1381 1614 1843 1967
33 34 25 0 0 0 22 0 0 0 0 16 104 484 707 799 808 660 377 857 710 403 189 234 344 253 181 166 151 115 117 187 210 190 196 247 551 447 400 426 527 614 1081 1429
6 41 42 21 4 12 36 55 131 109 23 221 339 588 903 715 586 538 590 843 247 727 440 448 237 283 231 264 235 97 111 143 237 161 113 127 344 195 290 210 276 239 461 893
6 45 59 27 40 29 21 178 229 228 289 439 508 598 852 576 495 919 637 486 633 426 238 188 163 168 209 240 198 147 99 129 138 41 26 23 121 332 480 435 333 267 451 802
0 1 9 25 36 29 0 144 114 510 429 407 588 741 680 465 618 597 458 388 366 654 365 233 198 124 78 76 71 61 74 108 180 103 15 4 40 122 105 105 73 144 272 386
0 0 0 0 0 1 0 5 22 42 263 433 649 486 394 406 310 419 182 151 261 321 312 272 130 321 338 234 167 94 91 90 126 18 4 4 26 28 77 87 76 64 90 87
0 0 0 1 4 0 3 0 0 0 3 348 555 336 316 284 204 182 193 155 129 113 95 129 183 160 170 214 207 242 196 111 53 48 24 28 31 44 70 82 69 92 108 107
0 0 0 0 0 0 0 0 0 0 16 347 400 278 195 228 253 138 77 62 85 71 80 181 154 223 110 113 126 152 99 69 101 86 82 85 97 98 126 132 156 151 124 151
1 0 0 0 0 0 0 0 0 0 0 78 245 207 206 205 157 142 93 52 55 73 26 3 69 0 0 0 0 0 0 0 0 15 18 5 0 0 0 0 0 7 18 30
70 2 84 0 0 0 0 0 0 0 0 2 282 203 255 157 102 132 77 54 34 31 1 0 0 0 0 0 0 0 0 0 0 0 0 0 0 0 0 0 0 0 0 0
0 0 13 12 0 0 0 0 0 0 0 0 68 162 218 210 139 113 113 20 2 0 2 0 0 0 0 0 0 0 0 0 0 0 0 0 0 0 0 0 0 0 0 0
0 0 0 0 0 0 0 0 0 0 0 0 19 92 154 194 185 107 102 83 7 7 0 0 0 0 0 0 0 0 0 0 0 0 0 0 0 0 0 0 0 0 0 0
0 0 7 0 0 2 0 0 0 0 0 0 2 47 90 115 134 129 114 66 38 3 0 0 0 0 0 0 0 0 0 0 0 0 0 0 0 0 0 0 0 0 0 0

GFSCGP_con_mucape_114.txt.gz
CAPE
0 0 0 1 17 0 0 0 339 311 218 293 154 43 217 162 97 90 57 127 202 253 365 337 273 303 493 660 930 1075 1180 1432 1451 1493 989 986 1036 1196 1210 1378 1833 1945 1757 1988
0 0 0 0 12 6 10 6 389 403 617 270 221 221 245 179 40 169 119 112 188 207 234 482 412 435 573 880 968 1072 1258 1541 1904 1519 1485 1114 1032 1089 1120 1372 1780 1736 1692 2012
0 0 0 0 7 50 259 175 340 302 370 308 206 283 353 149 108 155 148 216 159 157 297 508 542 535 621 922 1155 1199 1350 1537 1689 1156 2211 1332 2056 1452 1321 1415 1440 1668 1807 1761
0 0 0 0 0 34 32 13 273 557 348 234 431 0 314 259 263 224 154 204 230 191 197 378 559 600 630 818 1111 1279 1404 1678 1421 1766 1436 1602 1815 1299 934 992 1270 1412 1647 1585
0 0 0 0 0 63 32 15 196 291 201 252 209 5 88 451 341 188 210 137 92 112 111 227 415 601 610 770 935 1124 1480 1770 1490 1484 1533 1105 929 911 994 1169 1822 1637 1981 1753
2 0 0 0 0 37 26 32 67 69 173 30 103 154 242 518 429 465 228 205 90 100 80 197 256 448 750 732 871 922 1371 1739 1625 1759 1489 1248 1092 959 1147 1719 1857 1343 1306 1370
0 0 0 0 0 1 25 75 61 26 33 95 9 2 143 180 176 357 363 230 315 67 55 98 279 442 859 780 901 841 1302 1644 1581 1578 1527 1430 1078 1093 982 1287 1051 1027 1547 1330
0 0 0 0 0 0 0 41 35 46 119 139 144 31 108 136 150 234 359 271 377 286 105 122 340 571 786 837 1063 951 1363 1601 1456 1351 1448 1649 1650 879 822 1171 1706 1281 1690 1024
0 6 0 0 0 0 0 1 29 45 93 130 178 183 241 282 311 278 412 384 211 366 215 240 343 595 981 945 1134 1204 1373 1620 1536 1327 1560 1560 1552 1372 1861 1150 1188 1378 1712 1202
5 6 0 0 0 0 0 2 44 33 101 96 191 151 482 609 519 447 396 421 231 269 258 382 488 721 984 483 1210 1100 1461 1664 1446 1234 1435 1121 1311 1534 1390 1879 1763 1613 1806 1929
6 0 1 0 0 0 0 0 1 36 12 123 149 210 833 994 831 756 652 338 321 336 293 513 649 1045 1135 1110 1124 1187 1437 1460 1280 1051 1254 955 1134 1132 1536 1423 1570 1857 2078 2178
0 11 67 0 0 0 0 0 0 4 36 9 145 830 869 1033 984 743 911 683 471 758 436 618 1130 1134 1245 1160 839 965 1225 1212 1319 1357 1528 1485 1372 1339 1204 1347 1534 1713 1790 1983
54 11 82 61 0 0 0 0 0 3 25 70 69 302 1231 1218 1163 1127 1044 915 724 556 949 972 752 540 571 768 917 848 662 942 1124 1383 1303 1469 1177 1340 1333 1483 1140 1383 1629 1796
4 100 109 75 60 14 0 0 0 17 53 63 111 541 1220 1288 1136 1076 868 815 789 920 978 621 642 525 845 734 392 539 835 900 1036 1278 1396 1611 1631 1588 1392 1445 1587 1677 1876 1691
43 158 123 37 61 31 9 3 0 1 10 69 65 78 723 1274 1359 834 742 823 824 712 679 717 440 354 487 280 171 142 205 121 170 347 665 976 1269 1378 1685 1745 1685 1654 1734 1555
52 114 151 83 10 123 107 71 32 24 21 53 42 574 1238 1326 1196 1065 743 805 651 493 505 428 731 657 833 578 213 101 107 69 171 243 338 469 811 834 892 1048 1185 1255 1358 1559
27 129 194 191 55 42 290 356 278 222 285 414 117 988 1328 1274 993 809 703 694 445 408 268 277 295 272 256 183 163 106 88 205 445 266 229 312 318 273 541 605 684 639 798 1060
46 132 144 216 126 189 178 152 91 375 549 502 621 908 1312 981 992 517 623 481 420 313 427 478 382 385 357 271 250 176 94 100 79 138 162 222 217 64 79 235 479 625 715 930
145 52 0 111 131 35 40 84 55 101 499 478 898 1114 892 667 489 357 462 298 333 270 230 161 236 225 210 386 238 149 130 115 96 117 157 51 46 33 5 48 63 140 373 376
11 17 96 7 142 105 46 2 6 4 364 682 934 883 690 721 975 442 361 238 186 380 342 277 137 190 207 148 88 74 109 111 113 171 65 3 15 6 29 59 83 94 169 186
149 128 73 69 156 122 0 0 0 154 169 45 791 800 636 769 725 428 258 188 180 118 100 140 163 216 238 273 330 203 185 148 91 77 56 45 27 40 51 74 86 73 68 78
242 144 75 41 38 36 0 0 130 34 2 8 483 596 487 505 188 157 198 119 71 54 78 119 136 138 164 129 202 275 219 208 137 85 81 56 88 110 87 74 70 40 11 6
283 254 398 170 224 2 0 0 0 0 72 47 257 498 578 273 180 130 91 69 78 47 43 61 100 155 141 125 32 217 42 8 24 89 96 111 114 57 30 3 0 0 0 0
51 108 271 197 62 9 0 0 0 0 59 192 213 505 443 312 176 91 103 64 31 46 44 15 3 15 0 0 0 0 0 0 0 0 0 0 0 0 0 0 0 0 0 0
25 28 39 123 104 42 0 0 0 0 5 143 278 312 335 256 198 119 127 42 31 10 9 0 0 0 0 0 0 0 0 0 0 0 0 0 0 0 0 0 0 0 0 0
3 0 0 12 109 12 119 0 0 0 0 40 144 228 225 271 182 113 114 83 29 2 0 0 0 0 0 0 0 0 0 0 0 0 0 0 0 0 0 0 0 0 0 0

GFSCGP_con_mucape_117.txt.gz
CAPE
0 0 0 0 110 72 15 73 241 222 250 72 0 111 35 34 14 53 79 94 111 128 128 107 195 207 232 420 1152 1209 1246 1410 2213 1344 1168 1368 1577 1760 1308 983 1433 1657 1525 1700
0 0 0 0 112 102 4 45 456 209 170 0 109 230 113 0 7 165 70 72 90 122 137 146 239 194 209 347 736 1417 1443 1513 1474 1195 1520 2635 1887 2274 1720 1891 1220 1352 1436 1792
0 0 0 0 38 78 7 118 345 326 211 85 128 220 236 28 28 46 108 79 118 138 161 165 333 255 407 507 542 914 1591 1530 1799 1920 1649 1610 1920 2029 1699 1733 1579 2292 1483 1463
0 0 0 0 8 53 63 207 132 227 458 266 269 270 403 308 16 8 87 94 55 159 88 352 264 231 483 495 714 697 1416 1695 1748 1734 1792 1711 1406 1063 1661 1663 1874 1859 2254 1920
0 0 0 0 6 42 22 1 50 32 346 105 317 166 568 375 5 0 86 130 98 69 199 212 299 474 271 439 644 745 1022 1648 2035 2300 1523 1222 1647 1204 890 1784 2269 3032 1787 2606
0 0 0 0 0 52 2 0 129 239 214 267 171 156 744 116 65 14 224 180 186 178 111 162 253 359 439 331 507 676 1049 1575 1728 1605 1300 1433 1565 1572 1631 1823 1424 1137 1620 1430
0 0 0 0 0 45 0 8 128 150 125 115 245 168 256 479 267 294 201 183 151 115 134 172 157 193 784 338 375 617 1112 1577 1450 1467 1437 1488 1419 1650 1310 1804 1431 900 734 1174
0 0 0 0 1 14 4 83 217 193 146 178 114 113 346 452 558 463 220 337 158 164 141 140 259 455 374 520 291 494 1396 1632 1583 1200 1314 1494 1467 1212 1134 1508 2077 900 824 925
1 0 0 0 0 3 12 76 212 171 126 35 205 514 398 290 328 472 569 367 163 153 82 113 210 247 374 564 992 563 1471 1774 1449 1503 2075 1590 1511 1227 1101 1641 1681 1453 1895 1138
24 22 10 0 0 0 0 33 149 194 168 125 244 17 475 444 370 393 455 643 473 396 420 126 270 250 736 777 905 888 1397 1603 1401 1261 1582 1509 1376 1312 1129 1341 1363 1925 2494 1956
11 18 12 0 0 0 0 0 32 128 129 55 148 175 679 689 668 470 503 651 610 492 344 533 234 822 581 1019 1274 1212 1479 1724 1393 1042 1121 1099 948 1036 1214 1139 1220 1467 1905 2405
0 23 7 4 0 0 0 0 21 110 123 40 10 91 924 986 752 722 606 849 706 599 395 361 463 500 1176 1415 1563 1030 2024 1695 1414 1079 1576 1337 1132 913 961 929 1466 1463 1723 3163
87 9 52 44 11 0 0 0 0 9 44 90 64 617 449 1192 1048 921 849 578 600 493 637 485 562 1211 1818 2014 1527 1498 1375 1302 1475 2112 1626 1625 1423 1263 1037 1032 1203 1593 1693 1916
26 80 56 107 77 26 0 0 0 7 24 21 113 1262 1400 1472 1529 1449 1316 1103 858 940 962 1273 1345 2100 1680 1437 1446 1111 959 888 1078 1219 2152 2202 1820 1567 1248 957 1267 1343 1599 1909
89 120 104 37 80 70 10 0 3 8 14 55 64 350 1191 1387 1515 1187 1239 1281 1017 1205 1399 1288 1077 1355 1289 844 1193 952 730 356 361 552 1245 1378 1537 1752 1702 1608 1761 1486 1635 1530
281 271 183 3 0 50 35 7 16 14 5 18 17 45 590 1218 1321 1049 915 1170 1112 1023 1044 1137 1148 365 432 549 509 401 337 239 78 100 383 939 1149 1280 1476 1783 1777 1743 1782 1621
154 150 276 157 45 48 57 119 73 72 81 135 426 613 615 1681 1620 946 868 1000 895 1127 1012 864 787 789 742 744 636 452 317 225 45 286 472 615 634 991 1208 1205 1311 1250 1342 1483
129 181 183 266 307 88 317 94 214 418 413 335 370 894 775 1429 1010 837 732 545 816 487 453 474 646 620 405 327 242 110 211 437 389 411 385 428 559 426 441 627 762 893 1121 1093
148 71 127 147 0 98 148 8 126 291 535 455 755 1204 1254 1118 867 530 460 410 366 343 462 379 318 306 251 251 188 158 158 153 275 180 263 289 335 356 152 76 81 166 357 315
71 126 180 186 115 218 458 23 5 60 380 308 968 887 835 719 922 673 322 352 369 365 315 284 607 475 244 428 360 309 258 176 114 49 69 180 55 39 26 4 4 183 240 230
232 177 99 87 107 109 33 7 12 161 275 118 1000 931 930 848 937 754 338 252 168 236 244 214 241 276 226 407 147 133 142 115 111 96 118 88 30 27 23 76 69 57 85 80
386 353 236 151 207 71 2 53 282 205 142 96 557 825 801 641 530 334 241 145 142 156 80 137 168 193 152 196 247 204 147 164 92 61 138 95 16 10 26 44 46 173 93 54
205 562 754 552 502 111 33 109 50 92 216 231 222 597 833 536 355 223 218 268 155 98 111 127 105 101 100 132 256 306 219 129 244 277 224 109 70 39 65 79 59 33 0 7
142 262 204 354 177 61 32 15 15 31 98 248 331 532 739 567 399 265 227 168 91 88 167 190 180 185 146 229 98 127 170 178 211 223 184 129 82 2 36 78 33 0 4 3
290 250 132 319 434 211 53 15 0 0 3 159 418 476 476 597 342 187 156 115 54 56 48 41 106 186 84 32 0 0 0 0 0 0 0 0 0 0 1 0 0 0 0 0
80 0 65 332 317 205 325 91 0 0 1 35 227 500 550 371 316 251 189 110 56 47 83 85 30 0 0 0 0 0 0 0 0 0 0 0 0 0 0 0 0 0 0 0

GFSCGP_con_mucape_120.txt.gz
CAPE
0 0 0 0 0 47 41 123 185 130 121 47 85 93 58 218 52 49 69 75 81 67 67 51 88 430 441 532 849 1348 1127 1842 2125 1869 508 1711 2041 2720 2105 2186 2635 3272 2580 2495
0 0 0 0 0 21 47 363 233 196 163 85 0 54 84 97 76 56 60 84 71 96 59 74 132 302 840 1122 397 1356 1676 2136 1595 1632 1537 815 2602 2048 2401 2539 2685 2117 2200 2170
0 0 0 0 0 2 114 241 271 219 43 16 0 0 122 50 10 36 92 128 86 67 46 195 111 77 335 1393 1226 1633 1807 2125 1676 375 580 912 1913 938 2166 1572 2197 2654 2170 2203
0 0 0 0 0 0 113 290 297 235 67 52 79 56 96 17 0 0 65 110 70 62 64 101 95 160 177 590 1658 2195 2264 2129 1838 1973 1395 679 830 1175 1681 2077 2299 1652 2071 2192
0 0 0 0 0 0 160 354 357 246 237 124 120 183 195 52 13 5 3 77 39 34 78 133 117 266 112 430 562 2255 2333 2089 2263 2253 1414 1640 2617 1882 407 2093 2158 2546 3022 2023
0 0 0 0 0 0 59 246 189 75 78 13 99 218 576 272 198 0 1 78 76 53 102 57 135 209 332 373 443 1038 2335 2242 2500 1859 2052 2287 1914 1247 1688 1632 2091 1980 2501 2538
0 0 0 0 0 1 75 4 63 123 19 60 134 247 210 437 244 2 4 41 41 57 131 53 72 257 274 501 766 844 2076 2294 2148 2146 2219 2062 2467 1299 2430 2098 2194 1443 1435 1609
0 0 0 0 0 0 86 16 126 140 113 134 151 66 95 574 171 0 0 75 112 100 17 134 72 454 258 515 1002 844 2007 2133 2007 2138 2248 2164 1982 1892 2051 2757 2252 2591 1060 1521
3 0 0 0 0 0 52 0 23 142 88 107 174 6 568 325 41 0 13 85 100 120 39 139 432 203 88 411 640 1477 2019 1837 1991 1759 2326 2399 2969 1942 1174 2473 1383 2871 1799 2127
0 4 0 0 0 0 0 15 35 38 173 123 82 217 210 210 161 109 220 300 200 158 231 153 256 366 139 191 213 1721 2276 2071 1982 1757 1853 1777 2100 2044 1796 1958 2349 2276 2034 3078
1 7 10 18 0 0 0 0 0 35 58 112 152 111 462 55 318 678 569 316 361 164 353 682 451 557 133 100 359 1890 2278 2132 1826 2037 1784 1918 1719 1884 1953 2020 2224 2664 2502 2153
20 10 27 7 6 0 0 0 0 0 1 6 33 168 79 0 64 23 643 828 282 343 456 792 340 369 430 789 295 1892 1613 1918 1637 1441 1865 2042 2084 1958 1533 1845 2074 2567 2995 1922
32 1 0 12 12 6 0 0 0 0 0 64 114 316 102 236 586 762 501 878 549 1202 586 191 192 400 151 82 195 678 713 919 1442 1832 1762 1716 1841 1721 2179 1810 2132 2283 2791 2646
7 2 31 61 66 35 0 0 0 0 0 1 7 612 595 366 1175 995 911 1054 1200 1026 398 100 63 840 66 237 621 1035 958 563 878 1402 685 1031 1943 1996 1853 2269 2636 2512 2392 2906
44 86 136 39 46 27 58 0 0 0 0 1 245 529 664 594 919 999 948 1126 1098 1039 993 628 303 729 177 2 305 1142 1260 939 512 525 1000 412 611 1011 2064 1819 2058 2222 2173 2152
154 186 216 125 56 23 35 14 0 0 0 0 22 509 421 7 119 590 1168 968 1042 1028 747 1317 1447 1112 238 329 882 837 621 610 673 363 541 428 370 857 1216 1371 1354 1873 2088 2270
271 415 386 342 155 23 58 277 240 52 48 48 355 920 199 10 11 24 717 1058 1281 1421 1509 1328 1060 660 535 512 782 806 568 395 306 119 149 124 192 320 511 1452 1881 1392 1685 1266
187 400 149 278 208 40 181 220 116 299 460 633 993 771 136 6 348 688 718 645 731 663 675 887 767 437 657 507 604 696 570 356 203 148 150 194 141 164 291 785 997 1153 1290 1001
58 162 155 217 201 23 74 131 34 55 464 106 704 337 210 616 457 516 453 348 609 640 591 644 610 370 277 343 221 179 336 471 335 302 264 223 319 232 125 59 95 120 256 189
28 270 129 200 140 67 29 18 0 17 159 70 47 355 378 710 463 271 390 527 269 459 500 492 668 634 608 350 171 114 87 149 105 84 133 232 307 139 93 62 107 91 71 33
112 206 214 17 51 30 0 12 0 68 197 92 664 729 96 479 500 433 503 228 268 300 212 238 286 296 335 274 266 287 181 112 80 51 45 58 229 232 82 41 71 35 54 95
47 110 331 108 26 73 4 22 176 185 164 24 440 662 731 814 743 559 410 255 199 284 231 295 272 175 185 174 304 327 367 196 131 142 104 84 75 70 55 203 234 91 18 58
71 17 322 506 320 167 86 108 95 140 292 187 63 675 455 631 521 464 383 305 110 213 135 77 118 82 89 95 146 232 198 142 116 75 81 175 117 103 10 72 89 41 182 32
109 115 585 703 295 77 18 11 14 5 54 83 193 561 665 612 469 251 220 115 207 94 82 104 90 67 51 56 32 56 103 184 199 135 212 168 187 122 63 40 48 55 71 35
321 188 10 580 446 228 42 7 0 0 0 12 84 172 654 638 566 370 366 182 54 41 30 94 170 138 68 72 72 62 31 81 162 145 161 111 73 61 106 5 0 35 0 0
0 0 0 365 651 470 261 110 0 0 0 0 26 149 428 523 441 334 330 268 146 11 2 28 62 119 159 177 133 64 0 9 9 26 0 55 49 10 4 5 0 0 0 0

GFSCGP_con_mucape_123.txt.gz
CAPE
0 0 0 2 42 60 67 121 178 142 102 82 78 18 65 95 110 28 27 47 33 25 46 56 90 107 238 328 618 498 443 629 1074 700 299 515 650 1336 1253 1171 1166 1620 1204 351
0 0 0 0 8 34 142 148 152 173 147 77 75 86 97 90 107 97 53 35 38 21 26 50 121 208 167 263 438 424 631 626 620 535 511 694 1025 1083 1326 1127 1652 1245 1407 1305
0 0 0 0 0 7 126 191 93 109 110 31 10 17 18 51 76 48 52 66 41 17 14 96 180 170 131 177 318 692 321 383 393 407 331 470 780 870 1035 1308 756 1272 1332 1007
0 0 0 0 0 0 129 182 108 169 28 0 5 0 0 30 20 39 34 103 95 20 13 58 194 245 218 106 107 521 563 511 407 12 304 360 522 418 761 813 932 882 1062 1200
0 0 0 0 0 0 254 9 144 145 35 35 0 0 0 2 0 0 0 51 64 18 57 19 57 406 480 193 374 626 411 570 545 325 245 262 377 372 730 841 1236 1204 1087 798
0 0 0 0 0 23 244 231 146 101 3 0 0 0 0 0 15 2 0 18 48 17 39 61 53 284 655 624 824 974 634 594 632 464 432 217 321 684 425 822 1046 1057 950 718
0 0 0 0 0 46 280 186 63 20 1 0 0 0 0 47 37 25 1 1 23 27 21 25 44 57 96 558 1074 1205 1103 957 1026 608 551 577 553 506 584 800 713 855 1082 1029
0 0 0 0 0 0 13 80 19 54 24 41 21 20 54 152 138 71 11 8 29 66 28 25 87 72 129 183 1300 1311 1058 1164 959 957 906 805 615 416 363 614 769 1014 873 888
0 1 0 0 0 0 8 72 18 18 41 0 22 71 310 434 355 145 43 4 16 85 29 22 77 22 154 188 655 1055 1118 822 868 1371 1090 872 824 704 752 890 1053 1295 971 967
0 0 0 0 0 0 0 1 13 0 0 37 64 112 168 377 240 205 134 2 56 87 36 53 32 22 110 373 417 1073 1103 963 845 1304 945 915 931 765 999 1189 1123 974 1039 1112
0 0 0 0 0 0 0 0 0 0 19 33 0 91 368 184 223 62 66 61 91 122 90 40 42 138 143 421 754 1108 878 1051 1023 1211 1062 1165 1077 873 943 1001 1027 1186 1321 1481
0 0 0 0 3 0 0 1 4 0 0 0 9 69 464 265 12 79 26 63 107 180 110 160 175 183 125 777 926 1224 1096 924 991 1319 942 849 1187 1286 824 946 973 1092 1122 1261
0 0 0 0 7 1 0 0 0 0 0 0 4 92 165 301 104 6 54 99 132 315 278 270 212 165 280 443 963 1191 1199 1073 1043 1317 978 880 987 1123 888 703 1222 1087 1038 1094
9 0 23 0 14 10 0 1 0 0 0 0 8 94 104 74 38 41 5 152 323 409 245 269 289 226 246 208 668 822 888 617 581 478 823 645 693 611 805 914 856 936 1067 1048
36 8 19 71 8 7 5 1 49 0 0 0 273 440 348 342 367 361 260 226 372 377 279 362 287 224 147 109 106 425 318 276 305 472 487 324 69 87 351 426 665 1005 928 915
141 138 306 129 59 48 28 171 200 155 747 616 899 694 571 577 537 521 280 111 329 372 225 589 204 117 113 64 20 427 280 197 339 277 423 260 129 4 182 252 315 580 918 990
90 347 186 258 217 120 79 71 142 236 682 846 650 257 176 99 95 67 0 0 322 854 803 599 278 207 118 15 116 412 295 281 267 259 353 274 129 23 65 369 382 589 429 790
51 441 213 172 257 132 96 51 23 27 204 638 399 110 8 90 10 21 27 378 439 492 791 713 578 372 348 570 681 363 266 200 208 229 184 142 119 104 140 203 282 458 306 367
67 78 198 180 237 137 112 36 5 23 40 259 338 394 711 433 154 257 151 320 328 332 418 231 313 416 353 309 437 381 345 248 235 290 281 270 223 99 68 65 90 114 182 182
51 219 131 97 16 52 110 23 42 34 37 497 327 272 314 292 266 178 233 222 216 332 387 509 382 439 426 412 321 175 208 236 291 305 232 256 277 191 70 53 101 81 77 68
136 5 30 113 162 84 25 1 0 33 42 529 238 58 19 289 427 221 237 118 242 260 225 294 381 500 385 357 266 187 111 273 263 189 142 112 88 54 42 38 19 15 12 34
65 44 70 119 65 58 31 52 256 127 76 375 383 257 143 437 338 293 324 283 134 182 190 167 161 309 258 240 410 239 258 174 197 94 96 97 81 89 77 11 7 22 11 39
6 14 137 49 105 139 78 51 77 101 143 242 548 484 531 503 374 322 315 197 160 166 174 123 107 171 129 209 209 217 299 260 185 140 112 122 78 71 19 14 27 31 46 26
128 85 13 159 86 131 45 17 28 36 41 59 669 615 483 333 228 167 104 96 46 48 63 44 78 45 81 58 172 190 257 171 127 131 114 116 117 169 90 64 77 56 28 36
91 39 24 140 266 105 41 0 0 2 0 18 226 485 388 315 218 161 68 94 92 21 20 41 54 2 1 10 32 46 20 55 58 155 127 88 114 197 123 174 95 59 46 38
51 8 53 260 295 269 52 0 0 0 0 0 356 659 565 284 211 138 102 18 5 1 0 0 0 27 25 35 34 24 51 13 15 41 16 76 79 98 102 66 61 23 8 0

GFSCGP_con_mucape_126.txt.gz
CAPE
0 0 0 5 36 55 69 63 79 120 147 66 14 44 63 61 86 23 19 30 70 57 129 98 63 115 168 180 407 637 467 411 814 550 649 495 571 695 725 913 1115 1467 939 600
0 0 0 5 78 40 5 215 200 145 115 59 45 7 84 41 49 82 32 26 52 56 104 85 70 169 199 232 460 433 341 546 622 456 489 682 988 991 874 843 1100 1230 804 1010
0 8 0 0 110 47 244 239 115 96 123 37 45 18 111 50 58 74 49 55 47 27 70 100 64 162 269 313 362 273 360 480 384 351 310 570 676 974 1022 998 1139 1055 1186 1056
0 0 14 0 3 7 215 348 27 0 67 0 17 0 12 9 53 53 22 40 26 22 52 39 114 103 193 280 268 308 310 265 231 243 262 412 375 621 598 858 655 1016 1074 850
0 0 13 5 0 49 162 155 140 199 98 36 19 0 0 27 21 16 0 12 53 26 39 78 87 85 111 208 351 301 278 264 214 120 181 302 439 348 590 698 789 715 922 1035
0 0 0 2 12 79 115 99 99 120 12 0 8 5 0 0 0 0 0 9 33 29 73 141 144 130 69 154 353 246 333 320 262 38 141 233 280 332 352 560 911 780 801 792
0 0 0 2 343 379 80 17 0 2 0 0 10 0 0 11 0 11 14 6 23 34 30 141 231 238 170 76 354 323 364 328 312 298 169 198 188 324 518 314 661 819 824 748
0 0 0 0 277 395 122 151 75 14 0 4 42 0 0 17 80 80 49 16 34 46 43 42 192 301 379 277 615 614 339 356 376 349 349 312 308 445 489 464 568 657 662 677
0 0 0 0 0 354 237 114 70 63 36 4 2 0 83 218 291 242 71 24 25 91 71 49 108 326 462 466 827 787 539 490 534 376 382 388 415 375 318 463 524 618 847 747
0 0 0 0 0 0 0 0 32 38 4 4 60 2 11 112 199 166 49 13 17 70 100 74 69 141 293 649 890 849 648 615 608 456 425 551 368 471 408 484 589 782 894 1052
0 0 0 0 0 0 0 0 0 0 5 0 5 33 53 42 114 153 93 9 9 55 94 92 114 158 169 416 1004 824 679 550 518 730 753 726 549 682 718 820 820 972 815 1013
0 0 0 0 0 0 0 0 0 0 0 2 33 0 331 135 186 111 92 65 19 0 76 95 87 102 204 277 877 745 688 469 465 841 730 505 614 555 629 790 790 792 908 1091
1 0 0 0 1 2 0 0 1 15 0 0 0 0 388 307 124 5 0 0 0 38 37 63 84 84 248 518 803 803 703 686 686 942 467 568 788 743 694 689 746 815 864 903
8 0 0 16 23 0 0 70 166 18 0 0 0 32 317 310 93 23 4 14 16 14 70 82 94 120 550 735 809 736 738 751 844 1060 727 684 710 942 1039 737 568 677 777 822
2 19 12 6 97 113 245 177 192 370 481 0 0 56 135 232 107 91 105 65 90 179 243 151 106 121 213 453 584 569 501 395 541 610 846 670 610 663 625 729 677 743 789 612
24 86 127 144 181 159 117 66 62 252 375 475 191 192 218 122 94 151 184 29 114 224 299 250 175 144 233 376 604 480 263 238 152 234 320 604 479 344 281 364 358 451 631 734
53 89 41 168 132 77 71 32 82 318 252 483 336 148 140 149 188 192 13 16 52 168 348 241 196 186 203 285 362 191 170 158 118 170 277 276 327 149 150 176 251 278 206 287
33 22 87 26 78 67 33 28 46 181 487 188 172 76 137 137 298 206 85 98 10 61 127 61 94 285 179 153 198 139 107 73 113 155 296 320 252 177 96 148 173 139 142 146
42 108 92 28 104 105 43 26 23 128 119 460 652 691 378 298 152 47 78 218 97 124 87 184 95 132 271 304 251 274 132 170 212 191 180 208 201 172 176 138 70 65 79 109
7 83 100 33 4 15 23 19 97 64 58 213 429 592 458 258 68 109 37 89 127 205 168 342 268 224 193 335 284 234 141 110 111 157 206 230 153 112 96 78 51 42 78 78
94 8 11 30 78 10 33 24 1 9 22 264 274 182 232 251 199 154 86 68 139 301 418 335 251 490 375 276 295 250 93 84 143 175 208 200 192 130 80 56 62 65 92 86
0 0 0 0 30 30 49 18 8 19 268 310 74 109 422 393 228 216 173 122 155 226 150 145 343 543 520 507 464 757 321 97 224 243 219 145 83 66 92 49 37 54 56 35
0 0 0 0 0 110 126 130 158 86 503 419 302 379 472 379 283 250 170 86 111 134 163 109 98 104 97 142 186 227 210 291 310 243 314 120 122 78 56 29 29 65 72 51
5 7 0 2 26 25 41 66 39 48 161 590 560 668 549 387 342 186 130 36 72 73 53 44 36 21 16 45 98 168 246 90 146 164 247 287 208 173 110 85 55 28 0 5
55 16 17 33 24 47 13 0 0 0 172 908 810 642 525 348 216 110 11 27 14 5 11 11 3 0 0 0 21 71 159 159 115 185 132 124 71 98 121 114 109 44 79 29
17 40 38 57 107 40 0 0 0 0 178 631 560 439 362 284 207 99 4 0 0 0 0 0 0 0 0 0 0 0 2 5 20 32 45 60 29 69 29 46 45 70 95 60